     2              OBSERVATION DATA    GPS                 RINEX VERSION / TYPE
teqc 1998Mar9 19980522 19:09:30UTC                          PGM / RUN BY / DATE
                                                            COMMENT
Original Marker Name: MEAN                                  COMMENT
Campaign Name: Landers 1997-1998                            COMMENT
4-Character Station Name: MEAN                              COMMENT
6-Character Antenna Code: DMRCHT                            COMMENT
Vertical Measurement Point: BCR                             COMMENT
Vertical Offset to Rinex Ref. Point: 0.0349                 COMMENT
Radial Measurement Point: ECF                               COMMENT
Radial Offset to Rinex Ref. Point: 0.1896                   COMMENT
Antenna Height from Field Measurement: 1.3200 m             COMMENT
Additional Antenna Identification Info.:                    COMMENT
Turborogue and Ashtech Choke Ring                           COMMENT
Original XYZ: -2355065.9512 -4713271.0913 3584188.5349      COMMENT
New XYZ position is based on association with SCEC monument COMMENT
E1F2H2V5+0011. Position of that monument is believed to be  COMMENT
valid to within 1 m horizontally; vertical accuracy         COMMENT
should be no worse than 3-times this value.                 COMMENT
                                                            COMMENT
Revised Rinex header created by UCSD GPS archive for        COMMENT
GSAC on 11-Nov-1999 (1999:315) 01:43:37 GMT                 COMMENT
For assistance contact dagnew@ucsd.edu or hjohnson@ucsd.edu COMMENT
                                                            COMMENT
MEANS 1935                                                  MARKER NAME
MSM UNIV CALIF LOS ANGELES                                  OBSERVER / AGENCY
148 ASHTECH Z12-XII3 1F50                                   REC # / TYPE / VERS
768 DORNE-MARGOL. TYPE T                                    ANT # / TYPE
 -2355060.0000 -4713277.0000  3584186.0000                  APPROX POSITION XYZ
        1.2714        0.0000        0.0000                  ANTENNA: DELTA H/E/N
     1     1     0                                          WAVELENGTH FACT L1/2
     7    C1    L1    L2    P1    P2    S1    S2            # / TYPES OF OBSERV
     0                                                      INTERVAL
  1998     3    19     0     0   30.000000                  TIME OF FIRST OBS
  1998     3    19    23    58   60.000000                  TIME OF LAST OBS
     0                                                      # OF SATELLITES
                                                            END OF HEADER
 98  3 19  0  0 30.0000000  0  8G30G10G 4G24G 5G 9G 8G 6
  21752697.132   -29780564.45149 -22838517.87747  21752697.351    21752703.588
       238.000         199.000
  22070484.133   -26544895.09049 -20321989.60947  22070483.322    22070490.591
       234.000         193.000
  23742984.638   -32441681.97649  -5417529.18346  23742985.933    23742992.494
       221.000         164.000
  20943661.722   -44621951.45749 -34384148.15948  20943661.895    20943668.616
       246.000         213.000
  20475337.677   -47788177.25449 -36018025.31648  20475337.239    20475343.363
       247.000         219.000
  24142634.484   -31330088.91449 -23627893.75345  24142634.312    24142643.596
       215.000         159.000
  22570786.987   -30939845.83449 -22195723.31046  22570786.749    22570794.883
       228.000         180.000
  23686396.778   -17678432.56749 -12625446.32346  23686396.539    23686405.120
       220.000         165.000
 98  3 19  0  0 59.9990000  0  8G30G10G 4G24G 5G 9G 8G 6
  21431300.317   -29894095.88549 -22926983.90547  21431300.649    21431306.604
       238.000         199.000
  21749932.195   -26653986.58949 -20406995.92847  21749931.616    21749938.785
       234.000         194.000
  23453204.588   -32389066.46249  -5376530.13546  23453204.624    23453211.512
       221.000         164.000
  20644978.256   -44616123.70049 -34379607.05748  20644978.219    20644985.071
       246.000         213.000
  20167422.199   -47830863.98649 -36051287.70748  20167421.874    20167427.945
       247.000         219.000
  23851815.609   -31282932.56549 -23591148.64145  23851815.722    23851824.731
       215.000         158.000
  22274706.473   -30920339.71749 -22180523.78046  22274706.112    22274713.729
       227.000         180.000
  23365541.470   -17789118.25549 -12711694.81046  23365541.382    23365549.203
       220.000         166.000
 98  3 19  0  1 29.9990000  0  8G30G10G 4G24G 5G 9G 8G 6
  21409764.477   -30007267.30649 -23015169.40247  21409764.728    21409770.699
       239.000         199.000
  21729256.482   -26762637.89849 -20491659.23547  21729255.709    21729263.308
       234.000         194.000
  23463225.456   -32336406.59349  -5335496.52546  23463226.626    23463232.879
       220.000         164.000
  20646146.035   -44609987.00549 -34374825.22648  20646145.941    20646152.908
       246.000         213.000
  20159398.268   -47873030.01249 -36084144.35748  20159397.959    20159403.975
       247.000         219.000
  23860796.362   -31235738.86049 -23554374.40345  23860796.454    23860805.708
       213.000         157.000
  22278492.575   -30900443.84849 -22165020.55146  22278492.910    22278499.638
       227.000         179.000
  23344482.303   -17899784.47049 -12797928.13546  23344481.981    23344490.082
       220.000         166.000
 98  3 19  0  1 59.9990000  0  8G30G10G 4G24G 5G 9G 8G 6
  21388302.302   -30120051.58349 -23103053.23147  21388302.706    21388308.658
       238.000         199.000
  21708664.190   -26870850.90949 -20575981.01547  21708663.265    21708671.027
       234.000         194.000
  23473255.571   -32283698.32949  -5294425.21246  23473255.343    23473262.656
       220.000         163.000
  20647373.311   -44603537.71549 -34369799.81948  20647373.321    20647380.194
       246.000         213.000
  20151471.820   -47914683.90249 -36116601.93948  20151471.507    20151477.614
       247.000         219.000
  23869788.007   -31188487.58149 -23517555.32245  23869788.100    23869797.497
       213.000         156.000
  22282353.207   -30880156.31749 -22149212.13446  22282353.218    22282360.803
       227.000         180.000
  23323429.162   -18010418.95549 -12884136.73346  23323428.966    23323436.885
       221.000         166.000
 98  3 19  0  2 29.9990000  0  8G30G10G 4G24G 5G 9G 8G 6
  21366916.569   -30232434.07049 -23190623.97747  21366916.711    21366922.989
       238.000         199.000
  21688152.722   -26978639.18949 -20659971.83447  21688151.885    21688159.835
       235.000         194.000
  23483295.140   -32230940.40949  -5253315.20245  23483295.962    23483302.083
       219.000         162.000
  20648662.277   -44596764.23149 -34364521.78948  20648662.279    20648669.129
       246.000         213.000
  20143644.396   -47955817.38449 -36148654.00748  20143644.105    20143650.190
       248.000         219.000
  23878790.238   -31141180.47849 -23480692.73845  23878790.208    23878800.192
       213.000         155.000
  22286290.543   -30859465.82149 -22133089.71346  22286290.242    22286297.637
       228.000         180.000
  23302380.935   -18121027.77349 -12970325.34546  23302380.478    23302388.986
       220.000         166.000
 98  3 19  0  2 59.9990000  0  8G30G10G 4G24G 5G 9G 8G 6
  21345598.573   -30344460.75149 -23277917.46547  21345598.799    21345604.842
       238.000         199.000
  21667713.998   -27086045.15949 -20743664.75147  21667713.444    21667720.206
       234.000         194.000
  23493334.390   -32178183.73049  -5212206.15845  23493335.172    23493342.564
       219.000         162.000
  20650006.760   -44589698.83149 -34359016.29047  20650006.638    20650013.451
       246.000         212.000
  20135909.373   -47996465.17649 -36180327.61448  20135909.070    20135915.113
       247.000         219.000
  23887794.438   -31093863.54049 -23443822.48045  23887793.964    23887803.339
       212.000         155.000
  22290296.844   -30838412.71349 -22116684.73746  22290296.789    22290304.718
       227.000         180.000
  23281331.489   -18231642.88849 -13056518.85246  23281331.420    23281339.843
       222.000         167.000
 98  3 19  0  3 29.9990000  0  8G30G10G 4G24G 5G 9G 8G 6
  21324350.311   -30456120.86149 -23364925.31547  21324350.589    21324356.893
       237.000         200.000
  21647349.712   -27193059.97049 -20827052.87347  21647348.962    21647356.047
       234.000         194.000
  23503377.293   -32125407.89149  -5171082.18645  23503377.350    23503385.154
       220.000         161.000
  20651409.554   -44582327.03549 -34353272.04547  20651409.487    20651416.364
       246.000         212.000
  20128272.008   -48036599.83349 -36211601.37748  20128271.677    20128277.810
       247.000         219.000
  23896802.288   -31046527.01849 -23406936.97845  23896802.158    23896811.705
       213.000         155.000
  22294374.707   -30816983.48149 -22099986.66946  22294373.816    22294382.479
       227.000         179.000
  23260281.479   -18342261.14649 -13142714.82246  23260281.492    23260289.788
       222.000         167.000
 98  3 19  0  3 59.9990000  0  8G30G10G 4G24G 5G 9G 8G 6
  21303169.396   -30567427.05349 -23451657.38447  21303169.683    21303175.892
       238.000         200.000
  21627057.720   -27299694.71249 -20910144.83947  21627056.730    21627064.275
       235.000         194.000
  23513423.834   -32072613.18949  -5129943.51045  23513424.535    23513431.064
       219.000         161.000
  20652868.332   -44574661.26349 -34347298.72847  20652868.277    20652875.180
       246.000         212.000
  20120731.072   -48076227.80949 -36242480.32448  20120730.908    20120736.923
       248.000         219.000
  23905807.909   -30999202.33849 -23370060.70045  23905808.433    23905817.128
       211.000         155.000
  22298524.103   -30795178.29049 -22082995.66146  22298524.023    22298531.565
       226.000         178.000
  23239225.108   -18452912.78749 -13228936.79946  23239225.149    23239232.702
       221.000         167.000
 98  3 19  0  4 29.9990000  0  8G30G10G 4G24G 5G 9G 8G 6
  21282053.181   -30678393.27049 -23538124.53347  21282053.171    21282059.545
       238.000         200.000
  21606839.758   -27405940.47149 -20992933.69747  21606838.757    21606846.213
       235.000         194.000
  23523473.315   -32019803.30449  -5088793.01145  23523474.328    23523480.619
       219.000         161.000
  20654383.985   -44566696.59149 -34341092.49947  20654384.087    20654390.933
       245.000         212.000
  20113287.518   -48115344.06049 -36272960.52248  20113287.151    20113293.258
       247.000         219.000
  23914808.052   -30951906.34749 -23333206.79045  23914808.413    23914817.888
       212.000         154.000
  22302743.131   -30773007.36949 -22065719.66246  22302742.972    22302750.555
       226.000         178.000
  23218163.076   -18563594.51349 -13315182.22146  23218162.930    23218170.715
       221.000         167.000
 98  3 19  0  4 59.9990000  0  8G30G10G 4G24G 5G 9G 8G 6
  21261007.736   -30788987.50449 -23624301.82547  21261008.010    21261014.228
       239.000         200.000
  21586704.013   -27511754.51549 -21075386.16247  21586703.466    21586710.496
       236.000         195.000
  23533530.921   -31966950.25949  -5047608.86945  23533531.135    23533538.363
       220.000         160.000
  20655959.001   -44558419.71049 -34334642.99247  20655958.837    20655965.668
       246.000         212.000
  20105944.319   -48153932.79649 -36303029.67248  20105943.975    20105950.110
       248.000         219.000
  23923806.551   -30904619.45849 -23296359.95445  23923806.743    23923816.006
       213.000         154.000
  22307034.770   -30750454.77849 -22048146.26446  22307034.621    22307041.604
       226.000         178.000
  23197103.319   -18674263.97949 -13401418.09446  23197103.020    23197110.482
       220.000         167.000
 98  3 19  0  5 29.9990000  0  8G30G10G 4G24G 5G 9G 8G 6
  21240044.713   -30899148.73349 -23710141.71147  21240044.813    21240051.171
       239.000         201.000
  21566663.266   -27617069.47049 -21157449.72247  21566662.580    21566669.743
       235.000         196.000
  23543608.859   -31913990.66149  -5006341.71245  23543610.008    23543616.443
       220.000         160.000
  20657602.234   -44549784.41549 -34327914.20147  20657602.120    20657608.875
       246.000         212.000
  20098709.939   -48191949.71449 -36332653.25048  20098709.533    20098715.551
       247.000         219.000
  23932811.949   -30857296.31049 -23259484.87645  23932812.269    23932821.388
       212.000         154.000
  22311406.679   -30727480.24049 -22030244.06946  22311406.075    22311414.936
       226.000         178.000
  23176059.358   -18784850.50249 -13487589.33646  23176059.028    23176067.252
       221.000         167.000
 98  3 19  0  5 59.9990000  0  8G30G10G 4G24G 5G 9G 8G 6
  21219147.048   -31008966.66849 -23795714.09547  21219147.300    21219153.409
       239.000         201.000
  21546701.014   -27721971.67349 -21239191.65147  21546700.030    21546707.714
       235.000         196.000
  23553689.335   -31861017.85849  -4965064.24745  23553690.499    23553696.756
       220.000         159.000
  20659295.576   -44540886.02849 -34320980.40847  20659295.527    20659302.289
       246.000         212.000
  20091563.666   -48229503.37949 -36361915.85148  20091563.110    20091569.399
       247.000         219.000
  23941805.704   -30810034.40149 -23222657.51145  23941806.372    23941815.152
       212.000         155.000
  22315838.933   -30704188.70849 -22012094.86846  22315838.087    22315846.275
       226.000         177.000
  23155017.815   -18895424.24449 -13573750.61446  23155017.705    23155025.506
       220.000         167.000
 98  3 19  0  6 29.9990000  0  8G30G10G 4G24G 5G 9G 8G 6
  21198322.673   -31118399.55649 -23880986.44047  21198322.846    21198329.075
       240.000         201.000
  21526823.474   -27826428.61149 -21320586.62847  21526822.681    21526829.766
       236.000         196.000
  23563778.888   -31807997.24849  -4923749.53345  23563779.445    23563786.833
       219.000         159.000
  20661044.319   -44531696.29849 -34313819.59047  20661044.397    20661051.054
       246.000         212.000
  20084512.954   -48266554.81449 -36390787.10648  20084512.561    20084518.625
       248.000         219.000
  23950795.878   -30762791.25649 -23185844.76345  23950796.459    23950805.568
       215.000         155.000
  22320335.404   -30680560.00249 -21993682.92646  22320335.303    22320342.736
       227.000         177.000
  23133988.102   -19005935.53549 -13659863.22946  23133987.054    23133995.174
       219.000         167.000
 98  3 19  0  6 59.9990000  0  8G30G10G 4G24G 5G 9G 8G 6
  21177573.976   -31227434.57449 -23965948.76247  21177574.210    21177580.235
       239.000         201.000
  21507030.567   -27930440.94949 -21401635.16747  21507030.083    21507037.144
       236.000         197.000
  23573878.913   -31754921.50749  -4882391.86345  23573879.453    23573887.068
       218.000         158.000
  20662847.769   -44522219.36049 -34306434.97347  20662847.918    20662854.484
       246.000         211.000
  20077558.306   -48303101.81449 -36419265.29348  20077557.976    20077564.254
       247.000         219.000
  23959785.159   -30715552.85949 -23149035.71245  23959785.016    23959794.673
       216.000         156.000
  22324900.108   -30656572.73649 -21974991.59346  22324899.554    22324907.072
       226.000         177.000
  23112969.751   -19116386.96149 -13745929.19646  23112969.534    23112976.902
       221.000         166.000
 98  3 19  0  7 29.9990000  0  8G30G10G 4G24G 5G 9G 8G 6
  21156891.457   -31336121.90749 -24050640.16247  21156891.469    21156897.968
       240.000         202.000
  21487311.625   -28034064.78749 -21482380.97447  21487310.904    21487318.181
       236.000         197.000
  23583980.957   -31701834.88549  -4841025.72245  23583980.720    23583988.282
       218.000         158.000
  20664698.681   -44512492.84549 -34298855.88147  20664698.837    20664705.371
       246.000         211.000
  20070692.100   -48339184.08749 -36447381.35448  20070691.679    20070697.941
       248.000         219.000
  23968767.175   -30668352.55749 -23112256.35645  23968768.057    23968776.982
       214.000         156.000
  22329523.454   -30632276.87649 -21956059.78446  22329523.043    22329531.140
       226.000         177.000
  23091951.701   -19226837.26749 -13831994.29446  23091951.445    23091959.031
       219.000         166.000
 98  3 19  0  7 59.9990000  0  8G30G10G 4G24G 5G 9G 8G 6
  21136283.200   -31444418.79349 -24135027.31547  21136283.405    21136289.536
       240.000         202.000
  21467675.514   -28137253.04949 -21562787.37647  21467674.438    21467681.962
       237.000         197.000
  23594092.883   -31648696.62249  -4799619.33945  23594093.229    23594100.089
       218.000         158.000
  20666606.076   -44502469.45749 -34291045.45747  20666605.996    20666612.695
       246.000         211.000
  20063924.737   -48374746.86149 -36475092.61248  20063924.374    20063930.583
       249.000         219.000
  23977750.563   -30621144.54249 -23075470.99445  23977750.649    23977760.317
       213.000         156.000
  22334214.598   -30607625.00449 -21936850.58346  22334214.555    22334222.298
       227.000         176.000
  23070938.178   -19337263.44449 -13918040.58946  23070938.152    23070945.680
       220.000         167.000
 98  3 19  0  8 29.9990000  0  8G30G10G 4G24G 5G 9G 8G 6
  21115747.406   -31552335.01449 -24219117.84947  21115747.652    21115753.875
       239.000         202.000
  21448123.034   -28240001.84749 -21642851.34147  21448121.974    21448129.395
       236.000         197.000
  23604211.538   -31595522.89649  -4758185.32445  23604212.154    23604218.972
       218.000         158.000
  20668566.720   -44492166.05349 -34283016.83947  20668566.759    20668573.493
       245.000         211.000
  20057257.542   -48409783.24649 -36502393.69548  20057257.080    20057263.298
       247.000         219.000
  23986734.073   -30573936.04949 -23038685.26345  23986734.169    23986743.626
       212.000         155.000
  22338973.303   -30582617.94549 -21917364.60846  22338972.711    22338981.007
       226.000         176.000
  23049925.386   -19447686.24449 -14004084.26546  23049925.039    23049932.656
       222.000         168.000
 98  3 19  0  8 59.9990000  0  8G30G10G 4G24G 5G 9G 8G 6
  21095287.540   -31659852.38649 -24302897.60147  21095287.926    21095293.900
       241.000         202.000
  21428659.569   -28342282.84449 -21722550.78747  21428658.668    21428665.947
       237.000         197.000
  23614339.385   -31542300.84649  -4716713.65045  23614339.623    23614346.870
       218.000         158.000
  20670581.941   -44481576.12649 -34274764.96447  20670581.994    20670588.712
       246.000         211.000
  20050694.394   -48444272.75349 -36529268.64648  20050694.143    20050700.239
       248.000         219.000
  23995718.418   -30526723.16449 -23001896.11645  23995718.740    23995727.609
       213.000         155.000
  22343803.481   -30557235.27449 -21897585.95246  22343803.207    22343810.921
       225.000         175.000
  23028913.745   -19558103.00949 -14090123.22446  23028913.455    23028921.435
       223.000         169.000
 98  3 19  0  9 29.9990000  0  8G30G10G 4G24G 5G 9G 8G 6
  21074907.542   -31766949.85149 -24386350.14947  21074907.795    21074913.905
       240.000         202.000
  21409291.239   -28444063.96649 -21801860.72247  21409290.547    21409297.615
       237.000         198.000
  23624476.979   -31489027.41249  -4675201.93945  23624477.465    23624484.875
       218.000         158.000
  20672654.994   -44470682.15849 -34266276.16747  20672654.999    20672661.751
       245.000         211.000
  20044241.216   -48478184.42249 -36555693.32948  20044240.901    20044246.984
       247.000         219.000
  24004704.612   -30479500.62549 -22965099.43345  24004705.768    24004714.180
       212.000         155.000
  22348705.198   -30531476.51549 -21877514.24146  22348705.293    22348713.365
       224.000         175.000
  23007905.528   -19668501.67349 -14176148.10046  23007905.049    23007913.444
       222.000         169.000
 98  3 19  0  9 59.9990000  0  8G30G10G 4G24G 5G 9G 8G 6
  21054606.334   -31873633.32649 -24469480.10847  21054606.539    21054612.426
       241.000         203.000
  21390015.415   -28545358.90749 -21880791.80547  21390014.671    21390022.008
       238.000         198.000
  23634619.460   -31435728.54549  -4633670.40245  23634619.593    23634627.709
       219.000         158.000
  20674780.863   -44459510.49149 -34257570.98547  20674780.737    20674787.807
       246.000         211.000
  20037896.283   -48511527.31049 -36581674.80648  20037895.913    20037902.203
       249.000         219.000
  24013688.193   -30432292.20049 -22928313.74345  24013688.240    24013697.922
       214.000         155.000
  22353678.149   -30505343.70249 -21857151.05246  22353677.381    22353685.413
       225.000         174.000
  22986897.954   -19778897.05149 -14262170.40746  22986898.112    22986905.777
       223.000         170.000
 98  3 19  0 10 29.9990000  0  8G30G10G 4G24G 5G 9G 8G 6
  21034386.403   -31979889.64649 -24552277.21447  21034386.557    21034392.672
       240.000         203.000
  21370829.603   -28646180.69549 -21959354.19747  21370828.883    21370836.020
       237.000         198.000
  23644766.339   -31382406.69349  -4592120.95845  23644767.208    23644773.493
       217.000         158.000
  20676958.532   -44448066.85249 -34248653.87147  20676958.519    20676965.514
       245.000         210.000
  20031658.850   -48544305.18949 -36607216.01248  20031658.521    20031664.658
       247.000         219.000
  24022668.890   -30385098.79649 -22891539.77045  24022669.512    24022678.073
       212.000         155.000
  22358720.716   -30478844.69749 -21836502.52346  22358720.910    22358728.652
       223.000         174.000
  22965891.556   -19889286.50549 -14348188.10546  22965891.714    22965899.079
       223.000         170.000
 98  3 19  0 10 59.9990000  0  8G30G10G 4G24G 5G 9G 8G 6
  21014248.942   -32085712.79149 -24634736.78647  21014249.108    21014255.300
       240.000         203.000
  21351732.457   -28746536.82049 -22037553.74347  21351731.804    21351738.705
       237.000         198.000
  23654916.658   -31329066.63649  -4550557.32045  23654917.671    23654924.914
       217.000         157.000
  20679189.394   -44436343.43849 -34239518.75347  20679189.305    20679196.289
       245.000         210.000
  20025526.807   -48576529.31449 -36632325.72948  20025526.476    20025532.700
       247.000         219.000
  24031644.888   -30337930.33449 -22854785.22945  24031645.688    24031654.817
       213.000         155.000
  22363829.165   -30451999.82049 -21815584.48646  22363828.504    22363837.430
       224.000         174.000
  22944887.241   -19999664.51849 -14434196.88946  22944887.025    22944894.514
       222.000         170.000
 98  3 19  0 11 29.9990000  0  8G30G10G 4G24G 5G 9G 8G 6
  20994191.806   -32191113.63349 -24716867.29147  20994192.093    20994198.165
       240.000         203.000
  21332721.059   -28846442.21749 -22115402.06447  21332720.195    21332727.500
       237.000         198.000
  23665067.601   -31275723.26649  -4508991.11745  23665067.085    23665075.342
       216.000         156.000
  20681472.593   -44424345.15449 -34230169.44847  20681472.554    20681479.370
       245.000         210.000
  20019496.986   -48608216.42049 -36657016.98548  20019496.691    20019502.690
       247.000         219.000
  24040616.956   -30290782.59649 -22818046.84145  24040616.977    24040626.907
       213.000         155.000
  22368997.315   -30424841.06649 -21794421.87146  22368996.986    22369004.757
       223.000         174.000
  22923887.519   -20110018.61649 -14520187.03546  22923887.223    22923894.878
       223.000         171.000
 98  3 19  0 11 59.9990000  0  8G30G10G 4G24G 5G 9G 8G 6
  20974218.115   -32296076.02449 -24798656.14947  20974218.211    20974224.347
       241.000         204.000
  21313798.319   -28945881.86849 -22192887.47147  21313797.505    21313804.854
       237.000         199.000
  23675223.400   -31222354.45949  -4467405.08245  23675222.704    23675231.278
       216.000         156.000
  20683810.499   -44412059.49449 -34220596.22047  20683810.456    20683817.461
       245.000         210.000
  20013568.523   -48639370.76449 -36681293.10248  20013568.265    20013574.252
       247.000         219.000
  24049588.999   -30243634.66649 -22781308.30345  24049588.866    24049598.663
       211.000         154.000
  22374228.142   -30397353.03449 -21773002.68446  22374227.794    22374236.145
       224.000         174.000
  22902898.944   -20220314.27449 -14606131.63746  22902898.213    22902906.302
       223.000         171.000
 98  3 19  0 12 29.9990000  0  8G30G10G 4G24G 5G 9G 8G 6
  20954330.005   -32400588.70449 -24880094.57947  20954330.519    20954336.475
       241.000         204.000
  21294969.708   -29044826.52649 -22269987.16347  21294969.190    21294976.202
       237.000         199.000
  23685386.467   -31168946.97249  -4425788.91045  23685388.097    23685394.408
       214.000         156.000
  20686206.065   -44399470.84249 -34210786.89447  20686206.127    20686213.213
       245.000         210.000
  20007741.860   -48669990.24849 -36705152.44948  20007741.469    20007747.618
       247.000         219.000
  24058560.428   -30196490.02849 -22744572.33245  24058560.995    24058570.061
       211.000         154.000
  22379520.720   -30369540.49249 -21751330.61946  22379520.480    22379528.602
       225.000         174.000
  22881925.286   -20330531.52049 -14692015.15046  22881924.823    22881932.246
       222.000         171.000
 98  3 19  0 12 59.9990000  0  8G30G10G 4G24G 5G 9G 8G 6
  20934525.195   -32504663.68649 -24961191.95147  20934525.480    20934531.399
       241.000         204.000
  21276238.332   -29143260.49649 -22346688.92447  21276237.677    21276245.099
       237.000         199.000
  23695556.035   -31115505.90249  -4384146.57645  23695556.398    23695564.055
       215.000         156.000
  20688658.731   -44386582.16449 -34200743.78847  20688658.760    20688665.685
       243.000         210.000
  20002016.914   -48700075.05749 -36728595.16948  20002016.542    20002022.768
       248.000         219.000
  24067530.557   -30149352.18349 -22707841.65545  24067530.126    24067540.189
       213.000         154.000
  22384876.679   -30341395.27649 -21729399.33546  22384876.303    22384883.704
       224.000         174.000
  22860969.087   -20440656.61049 -14777826.85046  22860969.060    22860976.580
       223.000         171.000
 98  3 19  0 13 29.9990000  0  8G30G10G 4G24G 5G 9G 8G 6
  20914803.746   -32608300.75249 -25041948.08847  20914804.142    20914809.856
       241.000         204.000
  21257607.243   -29241167.53349 -22422980.07847  21257606.655    21257613.854
       237.000         200.000
  23705733.788   -31062021.86449  -4342470.74945  23705734.142    23705741.830
       215.000         157.000
  20691169.475   -44373388.21149 -34190462.79547  20691169.581    20691176.401
       243.000         210.000
  19996394.579   -48729620.54849 -36751617.63848  19996394.024    19996400.233
       248.000         219.000
  24076500.418   -30102215.45849 -22671111.85645  24076500.366    24076510.720
       211.000         153.000
  22390300.656   -30312892.08449 -21707189.10546  22390300.807    22390308.413
       224.000         174.000
  22840031.464   -20550684.22649 -14863562.59546  22840031.405    22840038.354
       222.000         171.000
 98  3 19  0 13 59.9990000  0  8G30G10G 4G24G 5G 9G 8G 6
  20895158.482   -32711537.24549 -25122392.09547  20895158.713    20895164.420
       242.000         205.000
  21239069.199   -29338585.69149 -22498890.30047  21239068.779    21239075.535
       239.000         200.000
  23715910.293   -31008544.20649  -4300799.89345  23715910.956    23715917.862
       217.000         157.000
  20693730.459   -44359930.13749 -34179975.99847  20693730.259    20693737.136
       244.000         210.000
  19990867.753   -48758664.00449 -36774248.91548  19990867.321    19990873.562
       249.000         219.000
  24085457.370   -30055147.27949 -22634435.45245  24085457.445    24085466.893
       212.000         153.000
  22395787.170   -30284060.46949 -21684722.96446  22395786.949    22395795.299
       224.000         174.000
  22819099.504   -20660682.07849 -14949275.14946  22819099.416    22819106.750
       222.000         171.000
 98  3 19  0 14 29.9990000  0  8G30G10G 4G24G 5G 9G 8G 6
  20875596.773   -32814334.59249 -25202493.90747  20875596.985    20875602.831
       241.000         205.000
  21220629.985   -29435484.19749 -22574395.59747  21220629.264    21220636.551
       237.000         200.000
  23726091.769   -30955040.44549  -4259108.70145  23726092.358    23726099.589
       215.000         157.000
  20696348.311   -44346173.10349 -34169256.24847  20696348.196    20696355.200
       243.000         209.000
  19985446.082   -48787155.30649 -36796449.94348  19985445.814    19985452.000
       248.000         219.000
  24094405.484   -30008124.89649 -22597794.74245  24094405.290    24094415.422
       210.000         152.000
  22401341.316   -30254873.54449 -21661979.96746  22401340.964    22401348.904
       223.000         174.000
  22798177.515   -20770627.97749 -15034947.22746  22798177.770    22798184.415
       222.000         171.000
 98  3 19  0 14 59.9990000  0  8G30G10G 4G24G 5G 9G 8G 6
  20856117.514   -32916698.78949 -25282258.19747  20856117.820    20856123.610
       242.000         205.000
  21202287.506   -29531874.61849 -22649504.98147  21202286.792    21202293.643
       237.000         200.000
  23736275.849   -30901522.86549  -4217406.74845  23736276.967    23736284.087
       217.000         158.000
  20699019.035   -44332138.58249 -34158320.27047  20699018.957    20699026.062
       243.000         209.000
  19980128.945   -48815097.16949 -36818222.83348  19980128.635    19980134.858
       248.000         219.000
  24103346.841   -29961137.91549 -22561181.62945  24103346.900    24103356.528
       208.000         151.000
  22406961.493   -30225339.63449 -21638966.59446  22406961.383    22406969.289
       224.000         174.000
  22777261.628   -20880541.36849 -15120593.94646  22777261.340    22777268.810
       222.000         171.000
 98  3 19  0 15 29.9990000  0  8G30G10G 4G24G 5G 9G 8G 6
  20836721.475   -33018625.68649 -25361681.73347  20836721.548    20836727.586
       242.000         205.000
  21184039.128   -29627770.05349 -22724228.66447  21184037.916    21184045.536
       237.000         200.000
  23746459.953   -30848005.08449  -4175704.63345  23746460.198    23746468.135
       215.000         156.000
  20701738.551   -44317847.13149 -34147184.09047  20701738.465    20701745.366
       242.000         209.000
  19974913.104   -48842506.57649 -36839580.82348  19974912.906    19974918.897
       248.000         219.000
  24112280.412   -29914192.13549 -22524600.62145  24112280.326    24112290.453
       209.000         150.000
  22412643.054   -30195483.01949 -21615701.74446  22412642.331    22412650.725
       223.000         173.000
  22756345.439   -20990456.14249 -15206241.75346  22756345.270    22756352.116
       222.000         171.000
 98  3 19  0 15 59.9990000  0  8G30G10G 4G24G 5G 9G 8G 6
  20817410.226   -33120106.76149 -25440757.87647  20817410.327    20817416.359
       242.000         205.000
  21165882.983   -29723181.04149 -22798574.85747  21165882.305    21165889.513
       238.000         200.000
  23756642.974   -30794493.43349  -4134007.29845  23756643.308    23756651.447
       215.000         156.000
  20704503.361   -44303317.71349 -34135862.48247  20704503.391    20704510.200
       243.000         208.000
  19969797.637   -48869388.74849 -36860527.98148  19969797.307    19969803.401
       248.000         219.000
  24121206.384   -29867286.23549 -22488050.69445  24121206.286    24121216.946
       210.000         148.000
  22418381.959   -30165324.77449 -21592201.87246  22418381.437    22418389.800
       223.000         172.000
  22735428.142   -21100376.71049 -15291894.07446  22735427.761    22735435.440
       222.000         171.000
 98  3 19  0 16 29.9990000  0  8G30G10G 4G24G 5G 9G 8G 6
  20798179.660   -33221163.99249 -25519503.75147  20798179.930    20798185.890
       242.000         206.000
  21147817.233   -29818117.40849 -22872551.21947  21147816.331    21147823.503
       238.000         200.000
  23766824.205   -30740990.64049  -4092316.86545  23766825.309    23766832.504
       215.000         154.000
  20707309.458   -44288571.59049 -34124372.00947  20707309.448    20707316.517
       242.000         208.000
  19964778.476   -48895764.70449 -36881080.68348  19964778.152    19964784.218
       248.000         219.000
  24130123.692   -29820425.91849 -22451536.26945  24130123.883    24130133.453
       209.000         148.000
  22424173.591   -30134889.49349 -21568486.12546  22424173.458    22424181.097
       223.000         171.000
  22714510.459   -21210299.40449 -15377548.05346  22714510.312    22714518.360
       222.000         172.000
 98  3 19  0 16 59.9980000  0  8G30G10G 4G24G 5G 9G 8G 6
  20779032.733   -33321781.61849 -25597907.08247  20779033.055    20779038.894
       243.000         206.000
  21129845.787   -29912557.44649 -22946140.83647  21129844.943    21129852.145
       238.000         200.000
  23777008.279   -30687473.05549  -4050614.91045  23777008.839    23777016.963
       214.000         154.000
  20710157.708   -44273604.13249 -34112709.07347  20710157.626    20710164.881
       243.000         208.000
  19959856.749   -48921628.72249 -36901234.48048  19959856.579    19959862.655
       248.000         219.000
  24139036.602   -29773588.67249 -22415039.82545  24139037.222    24139046.227
       209.000         147.000
  22430021.221   -30104160.36049 -21544541.41846  22430021.449    22430028.965
       223.000         171.000
  22693596.964   -21320200.00649 -15463184.81746  22693596.610    22693604.386
       223.000         172.000
 98  3 19  0 17 29.9980000  0  8G30G10G 4G24G 5G 9G 8G 6
  20759966.905   -33421973.19349 -25675978.41947  20759967.004    20759972.876
       242.000         206.000
  21111965.549   -30006518.47249 -23019357.19347  21111964.751    21111971.883
       238.000         200.000
  23787194.155   -30633945.71049  -4008905.33645  23787194.348    23787202.322
       213.000         152.000
  20713051.097   -44258399.31549 -34100861.17947  20713051.283    20713058.191
       242.000         208.000
  19955031.263   -48946986.81549 -36920994.04048  19955030.940    19955037.090
       247.000         219.000
  24147940.439   -29726798.98349 -22378580.44145  24147939.769    24147950.489
       208.000         146.000
  22435921.141   -30073156.35249 -21520382.51446  22435920.435    22435928.425
       222.000         171.000
  22672688.054   -21430076.90649 -15548803.11346  22672688.215    22672695.602
       223.000         173.000
 98  3 19  0 17 59.9980000  0  8G30G10G 4G24G 5G 9G 8G 6
  20740977.360   -33521763.67449 -25753737.21747  20740977.790    20740983.562
       243.000         206.000
  21094174.954   -30100008.53449 -23092206.56847  21094174.077    21094181.434
       238.000         201.000
  23797381.460   -30580411.62449  -3967190.52045  23797381.266    23797389.612
       212.000         151.000
  20715990.107   -44242954.66749 -34088826.40447  20715990.118    20715997.094
       242.000         208.000
  19950302.034   -48971839.10649 -36940359.47148  19950301.564    19950307.955
       247.000         219.000
  24156828.316   -29680093.39649 -22342186.58545  24156828.346    24156838.193
       206.000         145.000
  22441867.759   -30041906.79349 -21496032.27346  22441867.388    22441875.459
       222.000         170.000
  22651783.768   -21539929.46249 -15634402.43746  22651783.327    22651790.987
       223.000         173.000
 98  3 19  0 18 29.9980000  0  8G30G10G 4G24G 5G 9G 8G 6
  20722062.658   -33621160.99449 -25831189.65547  20722063.074    20722068.723
       242.000         207.000
  21076472.654   -30193034.65649 -23164694.42947  21076472.022    21076479.035
       238.000         201.000
  23807570.529   -30526867.78549  -3925468.10345  23807571.841    23807578.282
       214.000         151.000
  20718974.760   -44227270.32749 -34076604.85747  20718974.702    20718981.675
       242.000         207.000
  19945670.883   -48996175.96849 -36959323.26948  19945670.340    19945676.579
       247.000         219.000
  24165697.190   -29633487.34249 -22305870.29145  24165696.986    24165707.017
       208.000         146.000
  22447860.219   -30010416.45949 -21471494.42346  22447860.060    22447867.955
       221.000         170.000
  22630882.849   -21649764.18849 -15719987.87546  22630882.666    22630890.681
       224.000         174.000
 98  3 19  0 18 59.9980000  0  8G30G10G 4G24G 5G 9G 8G 6
  20703225.366   -33720151.65749 -25908325.22347  20703225.525    20703231.654
       242.000         207.000
  21058858.565   -30285597.00749 -23236820.91347  21058857.956    21058864.917
       238.000         201.000
  23817759.599   -30473324.13349  -3883745.83645  23817759.029    23817767.559
       212.000         151.000
  20722005.753   -44211342.51849 -34064193.59547  20722005.484    20722012.497
       242.000         207.000
  19941139.642   -49019987.61149 -36977877.80948  19941139.337    19941145.493
       247.000         219.000
  24174546.582   -29586984.05249 -22269634.08245  24174547.159    24174555.823
       211.000         147.000
  22453899.024   -29978682.69549 -21446766.87646  22453898.510    22453907.134
       221.000         170.000
  22609983.818   -21759589.18149 -15805565.74046  22609983.774    22609991.182
       223.000         175.000
 98  3 19  0 19 29.9980000  0  8G30G10G 4G24G 5G 9G 8G 6
  20684459.952   -33818764.31749 -25985166.23747  20684460.166    20684465.850
       243.000         207.000
  21041325.739   -30377732.64649 -23308614.89447  21041325.224    21041332.240
       238.000         201.000
  23827939.276   -30419829.58649  -3842061.82745  23827940.490    23827947.418
       213.000         151.000
  20725077.253   -44195201.62749 -34051616.29547  20725077.218    20725084.139
       242.000         207.000
  19936702.418   -49043305.35349 -36996047.48848  19936702.108    19936708.435
       247.000         219.000
  24183366.716   -29540634.81349 -22233517.90245  24183366.574    24183378.341
       210.000         148.000
  22459976.971   -29946742.92049 -21421878.80946  22459976.862    22459984.887
       222.000         169.000
  22589076.654   -21869456.69649 -15891176.72146  22589075.468    22589083.514
       224.000         175.000
 98  3 19  0 19 59.9980000  0  8G30G10G 4G24G 5G 9G 8G 6
  20665770.385   -33916978.55449 -26061696.79647  20665770.835    20665776.563
       244.000         207.000
  21023878.132   -30469420.14449 -23380059.67747  21023877.572    21023884.479
       238.000         201.000
  23838111.378   -30366375.15749  -3800409.07245  23838112.658    23838120.004
       212.000         151.000
  20728184.426   -44178873.40649 -34038893.01747  20728184.267    20728191.570
       242.000         207.000
  19932359.118   -49066129.53949 -37013832.57548  19932358.775    19932364.955
       247.000         219.000
  24192159.959   -29494426.88349 -22197511.82845  24192159.486    24192169.756
       212.000         149.000
  22466099.866   -29914567.22449 -21396806.90346  22466099.373    22466107.867
       222.000         169.000
  22568159.656   -21979375.64649 -15976827.79046  22568159.398    22568167.665
       224.000         176.000
 98  3 19  0 20 29.9980000  0  8G30G10G 4G24G 5G 9G 8G 6
  20647155.679   -34014799.52549 -26137920.91147  20647155.881    20647161.924
       244.000         207.000
  21006509.758   -30560691.53549 -23451180.21047  21006508.916    21006516.118
       238.000         201.000
  23848264.807   -30313019.03849  -3758832.92845  23848265.070    23848273.154
       212.000         152.000
  20731317.181   -44162410.78049 -34026065.01147  20731317.248    20731324.104
       241.000         207.000
  19928100.139   -49088510.63149 -37031272.39548  19928099.834    19928106.100
       247.000         219.000
  24200921.462   -29448385.31649 -22161635.39445  24200922.420    24200931.950
       210.000         149.000
  22472265.706   -29882165.80849 -21371559.10146  22472265.384    22472273.245
       221.000         169.000
  22547227.783   -22089373.53749 -16062540.37346  22547227.859    22547235.091
       225.000         176.000
 98  3 19  0 20 59.9980000  0  8G30G10G 4G24G 5G 9G 8G 6
  20628624.432   -34112181.74149 -26213803.14547  20628624.600    20628630.449
       244.000         207.000
  20989231.445   -30651489.51649 -23521931.86247  20989230.858    20989237.798
       238.000         202.000
  23858401.768   -30259749.13349  -3717323.97645  23858402.402    23858410.344
       212.000         151.000
  20734482.114   -44145779.00149 -34013105.20047  20734482.067    20734489.056
       242.000         206.000
  19923928.574   -49110432.40149 -37048354.30548  19923928.281    19923934.596
       247.000         218.000
  24209656.835   -29402481.24849 -22125866.09245  24209657.383    24209666.820
       210.000         149.000
  22478481.353   -29849502.81149 -21346107.48946  22478482.181    22478490.430
       222.000         169.000
  22526285.963   -22199423.35749 -16148293.42446  22526285.977    22526293.177
       225.000         177.000
 98  3 19  0 21 29.9980000  0  8G30G10G 4G24G 5G 9G 8G 6
  20610176.678   -34209125.28149 -26289343.54747  20610177.111    20610182.915
       244.000         207.000
  20972044.644   -30741806.76849 -23592308.91647  20972043.756    20972051.139
       238.000         202.000
  23868520.589   -30206574.96849  -3675889.62245  23868520.517    23868529.249
       212.000         151.000
  20737676.745   -44128991.14449 -34000023.76747  20737676.775    20737683.644
       242.000         206.000
  19919842.201   -49131906.49749 -37065087.37848  19919841.810    19919848.058
       247.000         218.000
  24218364.402   -29356723.37049 -22090210.70745  24218364.405    24218374.556
       212.000         149.000
  22484745.046   -29816586.93449 -21320458.81546  22484744.935    22484753.320
       221.000         168.000
  22505334.785   -22309522.41849 -16234084.84846  22505335.251    22505342.087
       224.000         177.000
 98  3 19  0 21 59.9980000  0  8G30G10G 4G24G 5G 9G 8G 6
  20591817.195   -34305605.00849 -26364522.53547  20591817.371    20591823.406
       244.000         208.000
  20954956.021   -30831607.88049 -23662283.78047  20954955.256    20954962.504
       238.000         202.000
  23878624.644   -30153478.02949  -3634515.44945  23878625.082    23878632.618
       213.000         151.000
  20740905.004   -44112026.64649 -33986804.69347  20740905.030    20740911.872
       241.000         206.000
  19915846.508   -49152903.97349 -37081449.05648  19915846.087    19915852.369
       247.000         218.000
  24227048.979   -29311085.91549 -22054649.17345  24227049.153    24227059.127
       208.000         148.000
  22491059.536   -29783404.26149 -21294602.24546  22491059.314    22491068.778
       221.000         168.000
  22484384.021   -22419619.27249 -16319874.55646  22484383.505    22484391.566
       224.000         177.000
 98  3 19  0 22 29.9980000  0  8G30G10G 4G24G 5G 9G 8G 6
  20573533.221   -34401687.65149 -26439392.11347  20573533.479    20573539.264
       244.000         208.000
  20937956.357   -30920941.68849 -23731894.51347  20937955.645    20937962.956
       239.000         202.000
  23888705.239   -30100504.36949  -3593237.33345  23888706.143    23888713.893
       211.000         150.000
  20744163.384   -44094903.75349 -33973462.19747  20744163.235    20744170.152
       242.000         206.000
  19911935.609   -49173455.95049 -37097463.59648  19911935.264    19911941.425
       247.000         218.000
  24235700.372   -29265622.79649 -22019223.48745  24235699.544    24235710.828
       208.000         147.000
  22497412.820   -29750017.88049 -21268586.95646  22497412.455    22497420.696
       221.000         168.000
  22463427.490   -22529746.39649 -16405687.85446  22463426.963    22463434.632
       224.000         177.000
 98  3 19  0 22 59.9980000  0  8G30G10G 4G24G 5G 9G 8G 6
  20555331.187   -34497340.01649 -26513926.40547  20555331.370    20555337.323
       244.000         208.000
  20921057.630   -31009744.99249 -23801091.86447  20921056.824    20921063.980
       239.000         203.000
  23898777.132   -30047576.42449  -3551994.84645  23898777.551    23898785.849
       211.000         149.000
  20747465.593   -44077550.41949 -33959940.13847  20747465.538    20747472.515
       242.000         206.000
  19908124.755   -49193482.21049 -37113068.48748  19908124.392    19908130.666
       247.000         218.000
  24244329.527   -29220276.43049 -21983888.77345  24244329.490    24244339.960
       209.000         146.000
  22503811.399   -29716393.36749 -21242386.10846  22503811.555    22503820.150
       221.000         168.000
  22442474.874   -22639852.98449 -16491485.15046  22442474.738    22442482.031
       225.000         177.000
 98  3 19  0 23 29.9980000  0  8G30G10G 4G24G 5G 9G 8G 6
  20537209.715   -34592568.83249 -26588130.66147  20537210.175    20537215.815
       244.000         208.000
  20904255.469   -31098040.83249 -23869893.78847  20904254.836    20904261.910
       238.000         203.000
  23908842.669   -29994681.70449  -3510778.24545  23908842.543    23908851.848
       211.000         149.000
  20750810.076   -44059975.20949 -33946245.18347  20750810.023    20750816.897
       241.000         205.000
  19904415.649   -49212973.72549 -37128256.69648  19904415.240    19904421.453
       247.000         218.000
  24252937.223   -29175043.15249 -21948642.19345  24252938.060    24252948.106
       208.000         145.000
  22510253.320   -29682541.44149 -21216008.04146  22510254.275    22510261.588
       221.000         168.000
  22421528.005   -22749929.22049 -16577258.80046  22421527.789    22421535.734
       225.000         177.000
 98  3 19  0 23 59.9980000  0  8G30G10G 4G24G 5G 9G 8G 6
  20519165.496   -34687391.90349 -26662018.75047  20519165.727    20519171.369
       245.000         208.000
  20887545.133   -31185854.09549 -23938319.67947  20887544.194    20887551.272
       239.000         203.000
  23918900.212   -29941829.02249  -3469594.39845  23918901.659    23918909.128
       212.000         148.000
  20754195.581   -44042184.21549 -33932382.08647  20754195.340    20754202.546
       242.000         205.000
  19900806.940   -49231937.69449 -37143033.82548  19900806.608    19900812.703
       248.000         218.000
  24261521.767   -29129931.45049 -21913490.32645  24261521.958    24261532.085
       208.000         144.000
  22516734.687   -29648481.83549 -21189468.15446  22516734.529    22516742.983
       221.000         168.000
  22400582.499   -22859998.55749 -16663027.06946  22400582.729    22400590.263
       227.000         177.000
 98  3 19  0 24 29.9980000  0  8G30G10G 4G24G 5G 9G 8G 6
  20501188.235   -34781862.96249 -26735632.54247  20501188.612    20501194.363
       244.000         208.000
  20870913.851   -31273251.89349 -24006421.83547  20870913.088    20870919.971
       238.000         203.000
  23928938.333   -29889078.67049  -3428490.28945  23928938.591    23928946.161
       210.000         147.000
  20757611.631   -44024232.83049 -33918394.01347  20757611.624    20757618.838
       241.000         205.000
  19897287.079   -49250434.72549 -37157447.10748  19897286.805    19897292.779
       248.000         218.000
  24270072.583   -29084997.11149 -21878476.66245  24270073.118    24270082.494
       211.000         144.000
  22523242.640   -29614282.69649 -21162819.54946  22523242.034    22523250.771
       220.000         169.000
  22379622.923   -22970141.65949 -16748852.82946  22379623.099    22379630.513
       226.000         177.000
 98  3 19  0 24 59.9980000  0  8G30G10G 4G24G 5G 9G 8G 6
  20483288.061   -34875928.93849 -26808930.69347  20483288.275    20483294.163
       244.000         209.000
  20854366.650   -31360207.76349 -24074179.63447  20854365.833    20854372.894
       238.000         203.000
  23938961.651   -29836406.17449  -3387446.83545  23938962.241    23938970.078
       211.000         147.000
  20761057.802   -44006123.24449 -33904282.67147  20761057.829    20761064.920
       241.000         205.000
  19893857.676   -49268456.39149 -37171489.98248  19893857.329    19893863.515
       247.000         218.000
  24278597.967   -29040196.42649 -21843567.14145  24278598.106    24278608.766
       211.000         143.000
  22529780.005   -29579928.90649 -21136050.42046  22529779.938    22529787.917
       221.000         168.000
  22358654.754   -23080329.84649 -16834713.71046  22358654.506    22358662.396
       225.000         177.000
 98  3 19  0 25 29.9980000  0  8G30G10G 4G24G 5G 9G 8G 6
  20465467.102   -34969578.54949 -26881904.39647  20465467.292    20465473.154
       244.000         209.000
  20837902.219   -31446728.84849 -24141598.63647  20837901.381    20837908.652
       239.000         203.000
  23948965.773   -29783834.36649  -3346481.84745  23948966.915    23948973.760
       211.000         146.000
  20764529.380   -43987880.14549 -33890067.28947  20764529.605    20764536.268
       242.000         205.000
  19890514.812   -49286023.25149 -37185178.45748  19890514.673    19890520.564
       247.000         218.000
  24287096.173   -28995538.24849 -21808768.68045  24287096.743    24287107.496
       209.000         143.000
  22536346.546   -29545421.81449 -21109161.84746  22536346.592    22536354.821
       220.000         169.000
  22337677.855   -23190563.87849 -16920610.32646  22337677.967    22337685.534
       225.000         177.000
 98  3 19  0 25 59.9980000  0  8G30G10G 4G24G 5G 9G 8G 6
  20447729.559   -35062789.82449 -26954536.54047  20447729.891    20447735.798
       244.000         209.000
  20821527.829   -31532776.75149 -24208648.92347  20821527.077    20821534.345
       238.000         203.000
  23958953.074   -29731351.02549  -3305585.77545  23958954.831    23958961.741
       214.000         147.000
  20768031.341   -43969477.33949 -33875727.45547  20768031.271    20768038.046
       241.000         205.000
  19887263.070   -49303111.52649 -37198494.00948  19887262.764    19887269.135
       247.000         218.000
  24295570.971   -28951003.39749 -21774066.30945  24295571.036    24295581.645
       211.000         143.000
  22542946.126   -29510740.72049 -21082137.69246  22542945.863    22542954.419
       220.000         169.000
  22316697.923   -23300813.76749 -17006519.29446  22316697.262    22316705.269
       225.000         178.000
 98  3 19  0 26 29.9980000  0  8G30G10G 4G24G 5G 9G 8G 6
  20430077.817   -35155550.25549 -27026817.37447  20430078.141    20430083.955
       244.000         209.000
  20805246.712   -31618334.53849 -24275317.30247  20805245.918    20805253.152
       239.000         203.000
  23968925.596   -29678945.31049  -3264750.20645  23968925.598    23968933.392
       212.000         148.000
  20771562.202   -43950922.63249 -33861269.26247  20771562.197    20771569.298
       241.000         205.000
  19884102.696   -49319719.50249 -37211435.30148  19884102.322    19884108.476
       247.000         218.000
  24304023.225   -28906586.95949 -21739456.21445  24304023.924    24304033.997
       211.000         142.000
  22549582.647   -29475865.88549 -21054962.57246  22549582.129    22549590.814
       221.000         169.000
  22295718.693   -23411060.02349 -17092425.42646  22295718.715    22295726.218
       226.000         178.000
 98  3 19  0 26 59.9980000  0  8G30G10G 4G24G 5G 9G 8G 6
  20412514.527   -35247845.93049 -27098736.06547  20412514.740    20412520.684
       245.000         210.000
  20789064.153   -31703374.40149 -24341582.10747  20789063.211    20789070.383
       239.000         203.000
  23978886.993   -29626597.95249  -3223960.09845  23978888.511    23978895.261
       213.000         148.000
  20775123.225   -43932209.38749 -33846687.53247  20775123.461    20775130.213
       241.000         204.000
  19881036.856   -49335830.58949 -37223989.40948  19881036.555    19881042.630
       247.000         218.000
  24312454.062   -28862283.12449 -21704933.86045  24312454.178    24312464.243
       210.000         142.000
  22556262.981   -29440760.51149 -21027607.80846  22556262.764    22556271.187
       221.000         168.000
  22274746.356   -23521270.13649 -17178303.40046  22274746.614    22274753.774
       227.000         178.000
 98  3 19  0 27 29.9980000  0  8G30G10G 4G24G 5G 9G 8G 6
  20395035.501   -35339698.73449 -27170309.65647  20395035.850    20395041.745
       245.000         210.000
  20772976.238   -31787916.66549 -24407459.16947  20772975.418    20772982.406
       239.000         203.000
  23988832.299   -29574335.11449  -3183235.85645  23988832.087    23988841.207
       211.000         149.000
  20778714.028   -43913339.58149 -33831983.80047  20778713.986    20778720.786
       241.000         204.000
  19878063.928   -49351453.30649 -37236162.96748  19878063.573    19878069.879
       247.000         218.000
  24320856.108   -28818130.58049 -21670529.38645  24320856.461    24320867.207
       210.000         141.000
  22562986.609   -29405427.78449 -21000075.87146  22562986.779    22562994.991
       220.000         167.000
  22253777.245   -23631463.60049 -17264168.39346  22253777.510    22253784.728
       227.000         179.000
 98  3 19  0 27 59.9980000  0  8G30G10G 4G24G 5G 9G 8G 6
  20377647.372   -35431074.12049 -27241511.24347  20377647.918    20377653.468
       244.000         210.000
  20756988.883   -31871930.77849 -24472924.69547  20756988.296    20756995.192
       239.000         204.000
  23998767.941   -29522123.24849  -3142551.32445  23998768.558    23998776.472
       213.000         149.000
  20782340.468   -43894282.59749 -33817134.22547  20782340.305    20782347.278
       241.000         204.000
  19875187.189   -49366570.62549 -37247942.71648  19875186.884    19875193.297
       247.000         218.000
  24329232.532   -28774112.58349 -21636229.75445  24329231.733    24329243.283
       210.000         141.000
  22569758.660   -29369840.59049 -20972345.65746  22569758.251    22569767.018
       219.000         166.000
  22232815.875   -23741616.34449 -17350001.66146  22232815.812    22232822.548
       227.000         179.000
 98  3 19  0 28 29.9980000  0  8G30G10G 4G24G 5G 9G 8G 6
  20360347.852   -35521983.87349 -27312349.98847  20360348.034    20360353.680
       244.000         210.000
  20741096.893   -31955443.53249 -24537999.54347  20741096.268    20741103.260
       239.000         204.000
  24008690.931   -29469977.98349  -3101918.69945  24008691.509    24008699.144
       212.000         150.000
  20785996.568   -43875069.72249 -33802163.16547  20785996.514    20786003.319
       240.000         204.000
  19872398.803   -49381223.74049 -37259360.73948  19872398.365    19872404.854
       247.000         218.000
  24337576.358   -28730265.97349 -21602063.68745  24337576.906    24337586.982
       210.000         141.000
  22576572.982   -29334030.98849 -20944442.14146  22576572.894    22576581.616
       220.000         165.000
  22211855.754   -23851762.19649 -17435829.55146  22211855.912    22211863.037
       227.000         179.000
 98  3 19  0 28 59.9980000  0  8G30G10G 4G24G 5G 9G 8G 6
  20343138.561   -35612419.01949 -27382818.91647  20343138.718    20343144.546
       244.000         210.000
  20725301.216   -32038450.12549 -24602679.98647  20725300.323    20725307.457
       239.000         204.000
  24018600.653   -29417902.23149  -3061340.23645  24018601.118    24018609.284
       213.000         151.000
  20789683.355   -43855695.55349 -33787066.42447  20789683.152    20789690.253
       241.000         204.000
  19869697.167   -49395420.97049 -37270423.53248  19869696.845    19869703.045
       247.000         218.000
  24345886.598   -28686595.66049 -21568034.98345  24345886.613    24345897.222
       206.000         142.000
  22583425.711   -29298020.14349 -20916381.81046  22583425.340    22583434.407
       219.000         165.000
  22190896.189   -23961905.22949 -17521655.23546  22190895.773    22190903.116
       226.000         179.000
 98  3 19  0 29 29.9980000  0  8G30G10G 4G24G 5G 9G 8G 6
  20326021.608   -35702368.86149 -27452909.68647  20326021.918    20326027.724
       244.000         210.000
  20709603.170   -32120943.91949 -24666960.84947  20709602.441    20709609.450
       239.000         204.000
  24028497.715   -29365893.34449  -3020813.87545  24028498.407    24028505.758
       210.000         150.000
  20793402.236   -43836152.54149 -33771838.12347  20793402.347    20793409.171
       240.000         203.000
  19867080.839   -49409169.87349 -37281136.98048  19867080.316    19867086.727
       247.000         218.000
  24354165.247   -28643091.57649 -21534135.83545  24354165.592    24354176.315
       208.000         141.000
  22590312.561   -29261829.69449 -20888181.52746  22590312.382    22590321.101
       219.000         164.000
  22169936.193   -24072050.66449 -17607482.79946  22169936.053    22169943.495
       227.000         179.000
 98  3 19  0 29 59.9980000  0  9G30G10G 4G24G17G 5G 9G 8G 6
  20308996.304   -35791837.33249 -27522625.35947  20308996.674    20309002.436
       245.000         210.000
  20694005.805   -32202908.44149 -24730829.29147  20694005.258    20694012.193
       240.000         204.000
  24038384.184   -29313939.21149  -2980330.18845  24038384.123    24038392.577
       211.000         150.000
  20797153.798   -43816438.14949 -33756476.27647  20797153.830    20797160.648
       241.000         203.000
  24472166.235    -3727481.88749  -2545675.81645  24472165.642    24472177.552
       208.000         138.000
  19864552.180   -49422458.18449 -37291491.51948  19864551.687    19864558.008
       248.000         218.000
  24362413.482   -28599747.40649 -21500361.27045  24362413.212    24362424.339
       206.000         142.000
  22597231.871   -29225468.71649 -20859848.37046  22597231.892    22597240.952
       216.000         163.000
  22148976.558   -24182194.23649 -17693308.90746  22148976.962    22148983.623
       229.000         179.000
 98  3 19  0 30 29.9980000  0  8G30G10G 4G24G17G 5G 8G 6
  20292063.562   -35880819.36249 -27591961.99047  20292063.827    20292069.519
       244.000         211.000
  20678511.452   -32284331.87349 -24794276.10447  20678510.695    20678517.673
       240.000         204.000
  24048260.890   -29262037.12049  -2939887.03645  24048261.445    24048269.243
       212.000         150.000
  20800941.162   -43796535.36149 -33740967.62447  20800941.198    20800948.208
       240.000         203.000
  24445773.342    -3866176.74749  -2653749.58545  24445773.113    24445782.880
       207.000         139.000
  19862119.216   -49435243.25449 -37301453.92948  19862118.841    19862125.249
       247.000         218.000
  22604183.251   -29188938.78249 -20831383.56945  22604181.920    22604192.244
       217.000         162.000
  22128020.689   -24292318.01149 -17779119.58646  22128020.450    22128027.067
       227.000         180.000
 98  3 19  0 30 59.9980000  0  8G30G10G 4G24G17G 5G 8G 6
  20275216.121   -35969353.19149 -27660949.37547  20275216.390    20275222.178
       244.000         211.000
  20663116.752   -32365231.50949 -24857314.76047  20663115.992    20663122.981
       240.000         204.000
  24058120.797   -29210223.02749  -2899512.46745  24058121.709    24058129.221
       211.000         149.000
  20804760.455   -43776465.09949 -33725328.47047  20804760.464    20804767.684
       240.000         203.000
  24419401.822    -4004759.45549  -2761735.93045  24419401.240    24419411.805
       208.000         139.000
  19859783.078   -49447519.68849 -37311019.99848  19859782.739    19859789.080
       247.000         217.000
  22611162.227   -29152263.61349 -20802805.60045  22611162.018    22611171.501
       217.000         162.000
  22107064.465   -24402443.26149 -17864931.40846  22107064.418    22107071.047
       227.000         180.000
 98  3 19  0 31 29.9980000  0  8G30G10G 4G24G17G 5G 8G 6
  20258452.606   -36057446.04949 -27729593.14447  20258452.685    20258458.545
       245.000         211.000
  20647821.414   -32445608.92949 -24919946.49947  20647820.791    20647827.508
       241.000         205.000
  24067964.429   -29158494.75849  -2859204.75745  24067964.045    24067971.533
       208.000         148.000
  20808612.750   -43756221.36749 -33709554.15447  20808612.797    20808619.819
       241.000         203.000
  24393048.009    -4143248.90849  -2869649.63345  24393046.845    24393058.150
       205.000         137.000
  19857547.813   -49459266.09849 -37320173.06248  19857547.546    19857553.773
       247.000         217.000
  22618169.930   -29115438.08249 -20774110.46245  22618170.566    22618178.681
       218.000         162.000
  22086109.353   -24512562.67049 -17950738.68346  22086108.955    22086116.621
       227.000         180.000
 98  3 19  0 31 59.9980000  0  8G30G10G 4G24G17G 5G 8G 6
  20241774.705   -36145088.91749 -27797886.27147  20241775.021    20241780.687
       244.000         211.000
  20632625.589   -32525463.46949 -24982170.79747  20632624.701    20632631.630
       240.000         205.000
  24077794.844   -29106835.57949  -2818950.89345  24077794.150    24077802.922
       209.000         146.000
  20812497.846   -43735805.30649 -33693645.54847  20812497.718    20812505.102
       240.000         203.000
  24366712.375    -4281643.23549  -2977489.19345  24366712.296    24366722.525
       208.000         136.000
  19855417.514   -49470460.98349 -37328896.36348  19855417.101    19855423.520
       247.000         217.000
  22625206.981   -29078458.72149 -20745295.43945  22625207.235    22625215.458
       218.000         162.000
  22065157.447   -24622665.32549 -18036532.90346  22065157.659    22065164.171
       228.000         180.000
 98  3 19  0 32 29.9980000  0  8G30G10G 4G24G17G 5G 8G 6
  20225179.230   -36232298.66249 -27865841.90647  20225179.380    20225185.227
       245.000         211.000
  20617523.874   -32604823.49549 -25044009.76347  20617523.196    20617530.138
       241.000         205.000
  24087608.839   -29055262.94549  -2778764.46645  24087609.625    24087617.108
       209.000         144.000
  20816410.114   -43715246.25149 -33677625.52247  20816410.219    20816417.133
       240.000         202.000
  24340391.582    -4419959.13049  -3085267.64745  24340390.308    24340399.866
       206.000         134.000
  19853385.015   -49481141.92649 -37337219.19548  19853384.658    19853390.956
       247.000         217.000
  22632268.421   -29041351.61949 -20716380.88645  22632268.906    22632277.011
       219.000         162.000
  22044202.971   -24732781.87349 -18122337.96146  22044202.976    22044210.549
       228.000         181.000
 98  3 19  0 32 59.9980000  0  8G30G10G 4G24G17G 5G 8G 6
  20208671.367   -36319047.92949 -27933438.72147  20208671.698    20208677.554
       245.000         211.000
  20602522.505   -32683656.18549 -25105437.80947  20602521.761    20602528.454
       241.000         205.000
  24097414.474   -29003733.69049  -2738611.83045  24097415.117    24097422.215
       206.000         142.000
  20820352.747   -43694527.77649 -33661481.26647  20820352.490    20820359.687
       239.000         202.000
  24314088.460    -4558182.12349  -3192973.68945  24314087.477    24314098.972
       208.000         135.000
  19851449.733   -49491311.88649 -37345143.85148  19851449.378    19851455.773
       246.000         217.000
  22639360.837   -29004081.12249 -20687339.00345  22639360.707    22639369.335
       217.000         161.000
  22023250.711   -24842886.27549 -18208133.53646  22023251.200    22023258.003
       228.000         181.000
 98  3 19  0 33 29.9980000  0  8G30G10G 4G24G17G 5G 8G 6
  20192252.365   -36405330.26149 -28000671.69547  20192252.724    20192258.389
       245.000         211.000
  20587618.643   -32761976.30049 -25166466.45147  20587617.819    20587624.766
       241.000         205.000
  24107210.508   -28952255.08349  -2698498.65645  24107210.356    24107218.378
       207.000         140.000
  20824322.165   -43673668.16749 -33645227.04047  20824322.192    20824329.067
       239.000         201.000
  24287802.107    -4696317.08249  -3300611.13845  24287801.645    24287812.885
       205.000         135.000
  19849604.744   -49501007.45749 -37352698.86148  19849604.455    19849610.868
       247.000         217.000
  22646482.739   -28966655.52149 -20658176.27045  22646482.876    22646491.708
       215.000         160.000
  22002298.232   -24952992.21849 -18293930.33046  22002297.836    22002305.098
       229.000         182.000
 98  3 19  0 33 59.9980000  0  8G30G10G 4G24G17G 5G 8G 6
  20175917.633   -36491169.87849 -28067559.69447  20175917.903    20175923.603
       245.000         211.000
  20572807.371   -32839809.89649 -25227115.98947  20572806.752    20572813.574
       241.000         205.000
  24116988.656   -28900870.55649  -2658458.80145  24116987.997    24116996.654
       205.000         138.000
  20828312.071   -43652701.02649 -33628889.02747  20828311.830    20828319.062
       239.000         201.000
  24261528.856    -4834383.53149  -3408195.20345  24261528.643    24261538.805
       213.000         137.000
  19847842.738   -49510267.16549 -37359914.23148  19847842.425    19847848.632
       247.000         217.000
  22653628.825   -28929102.66649 -20628914.38145  22653627.800    22653637.132
       216.000         161.000
  21981339.860   -25063129.22349 -18379751.32046  21981339.825    21981346.636
       229.000         182.000
 98  3 19  0 34 29.9980000  0  8G30G10G 4G24G17G 5G 8G 6
  20159668.173   -36576561.22749 -28134098.39647  20159668.372    20159674.221
       244.000         211.000
  20558089.686   -32917151.76949 -25287382.36747  20558088.801    20558095.964
       241.000         205.000
  24126745.883   -28849595.52549  -2618504.28945  24126746.871    24126754.411
       205.000         136.000
  20832323.037   -43631622.88749 -33612464.52247  20832322.813    20832330.129
       239.000         201.000
  24235270.223    -4972373.01149  -3515719.29945  24235268.413    24235281.449
       212.000         141.000
  19846160.393   -49519107.81549 -37366803.07048  19846160.139    19846166.533
       247.000         217.000
  22660802.892   -28891403.23049 -20599538.27345  22660802.343    22660811.202
       217.000         162.000
  21960376.931   -25173290.09449 -18465590.91746  21960376.628    21960383.941
       230.000         183.000
 98  3 19  0 34 59.9970000  0  8G30G10G 4G24G17G 5G 8G 6
  20143512.041   -36661462.20449 -28200254.98647  20143512.317    20143518.181
       244.000         211.000
  20543470.483   -32993976.28749 -25347245.60347  20543469.812    20543476.810
       241.000         205.000
  24136484.166   -28798420.72249  -2578627.82845  24136484.100    24136492.260
       203.000         136.000
  20836360.288   -43610407.04649 -33595932.71047  20836360.238    20836367.376
       239.000         200.000
  24209031.340    -5110258.37249  -3623162.25945  24209030.757    24209041.149
       212.000         143.000
  19844564.098   -49527496.47549 -37373339.70648  19844563.774    19844570.161
       247.000         217.000
  22668010.762   -28853525.80849 -20570023.47045  22668011.003    22668019.005
       217.000         162.000
  21939415.557   -25283442.72749 -18551424.09446  21939415.499    21939422.281
       229.000         183.000
 98  3 19  0 35 29.9970000  0  8G30G10G 4G24G17G 5G 8G 6
  20127447.412   -36745882.37149 -28266036.91947  20127447.878    20127453.351
       245.000         211.000
  20528944.624   -33070310.01149 -25406726.40647  20528944.028    20528950.876
       241.000         205.000
  24146197.915   -28747374.40349  -2538851.54245  24146197.735    24146206.603
       205.000         135.000
  20840422.465   -43589060.19549 -33579298.81847  20840422.696    20840429.593
       239.000         200.000
  24182807.128    -5248066.79949  -3730545.28145  24182806.981    24182817.749
       210.000         144.000
  19843054.159   -49535431.20749 -37379522.62948  19843053.870    19843060.202
       247.000         217.000
  22675248.685   -28815490.41749 -20540385.57846  22675248.502    22675257.307
       217.000         163.000
  21918451.845   -25393607.64449 -18637266.83446  21918452.061    21918458.821
       229.000         183.000
 98  3 19  0 35 59.9970000  0  8G30G10G 4G24G17G 5G 8G 6
  20111477.911   -36829802.60249 -28331429.29647  20111478.173    20111483.933
       245.000         211.000
  20514516.534   -33146130.09649 -25465806.97347  20514515.736    20514522.964
       241.000         206.000
  24155891.959   -28696432.07149  -2499156.22845  24155893.083    24155899.630
       207.000         136.000
  20844515.634   -43567550.57749 -33562538.09647  20844515.612    20844522.800
       239.000         200.000
  24156601.215    -5385778.73049  -3837853.11845  24156600.144    24156610.996
       211.000         143.000
  19841638.041   -49542873.05549 -37385321.49148  19841637.710    19841643.860
       247.000         217.000
  22682519.054   -28777284.91649 -20510615.12645  22682518.829    22682528.058
       217.000         162.000
  21897492.187   -25503750.91449 -18723092.71846  21897492.192    21897498.638
       229.000         184.000
 98  3 19  0 36 29.9970000  0  8G30G10G 4G24G17G 5G 8G 6
  20095607.252   -36913203.48349 -28396416.98647  20095607.730    20095613.341
       244.000         211.000
  20500189.868   -33221417.29349 -25524472.30647  20500189.164    20500195.935
       241.000         205.000
  24165571.247   -28645566.82649  -2459520.99345  24165572.033    24165581.311
       206.000         136.000
  20848642.746   -43545862.47849 -33545638.29947  20848642.585    20848649.899
       239.000         200.000
  24130419.102    -5523366.40149  -3945064.12745  24130418.399    24130429.594
       208.000         143.000
  19840319.553   -49549801.86249 -37390720.58148  19840319.103    19840325.309
       247.000         217.000
  22689823.841   -28738898.08649 -20480703.38545  22689823.602    22689831.987
       217.000         162.000
  21876537.273   -25613869.53549 -18808899.40646  21876537.298    21876544.185
       228.000         184.000
 98  3 19  0 36 59.9970000  0  8G30G10G 4G24G17G 5G 8G 6
  20079818.694   -36996172.76749 -28461068.36347  20079818.981    20079824.824
       245.000         211.000
  20485951.012   -33296242.91449 -25582777.96747  20485950.372    20485957.264
       241.000         205.000
  24175219.128   -28594866.91449  -2420014.59445  24175220.403    24175227.254
       209.000         137.000
  20852787.508   -43524081.80449 -33528666.36847  20852787.576    20852794.600
       238.000         200.000
  24104243.495    -5660919.43549  -4052248.15145  24104242.950    24104253.283
       207.000         141.000
  19839087.362   -49556277.15649 -37395766.28248  19839087.046    19839093.306
       247.000         217.000
  22697143.346   -28700434.42049 -20450731.76045  22697143.215    22697152.881
       214.000         161.000
  21855569.804   -25724053.98949 -18894757.37946  21855569.694    21855576.729
       228.000         184.000
 98  3 19  0 37 29.9970000  0  7G30G10G24G17G 5G 8G 6
  20064115.702   -37078692.45449 -28525369.40447  20064115.972    20064121.531
       244.000         211.000
  20471808.682   -33370561.31049 -25640688.38947  20471807.902    20471814.760
       241.000         205.000
  20856954.493   -43502184.14749 -33511603.27847  20856954.361    20856961.195
       238.000         200.000
  24078080.882    -5798403.84849  -4159378.72145  24078080.182    24078090.812
       206.000         139.000
  19837947.099   -49562269.40049 -37400435.58348  19837946.965    19837953.096
       247.000         217.000
  22704480.312   -28661878.54849 -20420688.29645  22704479.856    22704489.353
       217.000         161.000
  21834597.184   -25834265.75649 -18980636.63846  21834597.443    21834604.379
       229.000         185.000
 98  3 19  0 37 59.9970000  0  7G30G10G24G17G 5G 8G 6
  20048500.603   -37160750.13049 -28589310.43747  20048500.742    20048506.524
       244.000         211.000
  20457768.557   -33444342.52849 -25698180.22947  20457768.022    20457774.669
       241.000         206.000
  20861146.324   -43480156.03049 -33494438.52847  20861146.149    20861153.005
       239.000         199.000
  24051936.965    -5935790.29749  -4266432.94445  24051935.911    24051946.837
       204.000         136.000
  19836900.030   -49567771.73049 -37404723.12848  19836899.580    19836906.081
       246.000         217.000
  22711837.168   -28623218.24549 -20390563.46045  22711836.972    22711846.241
       218.000         162.000
  21813622.276   -25944489.60349 -19066525.31146  21813622.134    21813629.158
       229.000         185.000
 98  3 19  0 38 29.9970000  0  7G30G10G24G17G 5G 8G 6
  20032969.299   -37242367.42349 -28652908.31747  20032969.394    20032975.202
       245.000         212.000
  20443827.175   -33517604.91649 -25755267.78847  20443826.533    20443833.127
       241.000         206.000
  20865354.407   -43458042.59349 -33477207.29947  20865354.006    20865361.229
       239.000         199.000
  24025807.771    -6073099.30049  -4373426.83645  24025806.330    24025817.649
       203.000         136.000
  19835938.119   -49572826.75749 -37408662.12948  19835937.726    19835944.254
       246.000         216.000
  22719206.443   -28584492.83549 -20360387.89046  22719206.621    22719215.056
       218.000         164.000
  21792639.543   -26054754.46549 -19152445.93646  21792639.180    21792646.564
       229.000         185.000
 98  3 19  0 38 59.9970000  0  7G30G10G24G17G 5G 8G 6
  20017521.591   -37323545.48749 -28716163.94347  20017521.898    20017527.682
       245.000         212.000
  20429982.265   -33590360.08649 -25811960.11447  20429981.428    20429988.246
       241.000         206.000
  20869577.258   -43435851.45849 -33459915.52647  20869577.122    20869584.281
       239.000         199.000
  23999692.040    -6210338.03349  -4480365.95745  23999691.769    23999702.398
       206.000         138.000
  19835058.717   -49577447.91849 -37412263.05648  19835058.585    19835064.903
       246.000         216.000
  22726584.818   -28545719.78649 -20330175.18946  22726584.693    22726593.180
       219.000         165.000
  21771651.270   -26165047.99849 -19238388.91146  21771651.399    21771658.156
       229.000         185.000
 98  3 19  0 39 29.9970000  0  7G30G10G24G17G 5G 8G 6
  20002155.343   -37404295.76449 -28779086.22847  20002155.586    20002161.421
       245.000         212.000
  20416228.569   -33662636.19349 -25868279.14247  20416227.940    20416234.626
       241.000         206.000
  20873812.342   -43413596.16949 -33442573.76347  20873812.560    20873819.311
       238.000         199.000
  23973589.352    -6347507.74549  -4587251.30545  23973588.240    23973598.925
       205.000         141.000
  19834255.141   -49581670.90149 -37415553.71248  19834254.841    19834261.226
       246.000         216.000
  22733969.668   -28506912.54449 -20299935.85546  22733969.301    22733978.844
       220.000         166.000
  21750656.630   -26275375.51949 -19324358.36446  21750656.934    21750663.667
       229.000         186.000
 98  3 19  0 39 59.9970000  0  7G30G10G24G17G 5G 8G 6
  19986882.885   -37484553.03649 -28841624.35547  19986883.199    19986888.921
       245.000         212.000
  20402576.496   -33734378.20949 -25924181.99847  20402575.751    20402582.657
       242.000         206.000
  20878068.722   -43391228.97949 -33425144.79947  20878068.924    20878075.527
       238.000         199.000
  23947510.352    -6484553.22949  -4694039.84345  23947509.144    23947520.125
       206.000         142.000
  19833536.954   -49585445.14949 -37418494.70448  19833536.658    19833543.112
       247.000         216.000
  22741372.252   -28468011.89349 -20269623.73446  22741372.945    22741381.222
       218.000         166.000
  21729664.778   -26385688.19649 -19410316.24846  21729664.746    21729671.676
       231.000         186.000
 98  3 19  0 40 29.9970000  0  7G30G10G24G17G 5G 8G 6
  19971694.912   -37564366.35249 -28903816.54347  19971695.203    19971700.989
       245.000         212.000
  20389013.361   -33805652.84549 -25979720.65947  20389012.720    20389019.592
       242.000         206.000
  20882332.469   -43368822.86849 -33407685.51147  20882332.272    20882339.607
       239.000         198.000
  23921441.639    -6621544.34349  -4800786.01745  23921439.492    23921451.948
       203.000         144.000
  19832892.998   -49588829.24049 -37421131.67848  19832892.614    19832899.046
       247.000         216.000
  22748782.148   -28429073.08549 -20239281.89346  22748781.446    22748791.464
       219.000         165.000
  21708663.969   -26496048.08049 -19496310.92246  21708663.565    21708671.041
       230.000         186.000
 98  3 19  0 40 59.9970000  0  7G30G10G24G17G 5G 8G 6
  19956589.669   -37643744.80949 -28965669.88147  19956589.980    19956595.579
       245.000         212.000
  20375537.505   -33876468.89249 -26034901.97947  20375536.809    20375543.512
       241.000         206.000
  20886601.629   -43346388.39749 -33390204.12647  20886601.377    20886608.494
       238.000         198.000
  23895379.526    -6758501.00049  -4907505.33645  23895379.013    23895389.538
       205.000         146.000
  19832321.572   -49591832.10849 -37423471.59648  19832321.090    19832327.613
       247.000         216.000
  22756200.647   -28390088.79349 -20208904.60146  22756201.250    22756209.546
       217.000         164.000
  21687652.124   -26606465.88349 -19582350.73046  21687651.651    21687658.864
       230.000         187.000
 98  3 19  0 41 29.9970000  0  7G30G10G24G17G 5G 8G 6
  19941573.666   -37722654.44049 -29027157.90547  19941574.006    19941579.654
       246.000         212.000
  20362161.674   -33946759.12449 -26089673.57347  20362160.939    20362167.996
       241.000         206.000
  20890880.599   -43323902.10649 -33372682.36147  20890880.524    20890887.532
       238.000         198.000
  23869327.383    -6895405.03349  -5014183.63445  23869327.139    23869337.070
       205.000         145.000
  19831828.999   -49594420.73149 -37425488.72448  19831828.621    19831834.995
       247.000         216.000
  22763635.011   -28351021.09649 -20178462.33246  22763635.293    22763643.757
       217.000         163.000
  21666635.586   -26716908.22149 -19668409.65046  21666635.181    21666642.785
       230.000         187.000
 98  3 19  0 41 59.9970000  0  7G30G10G24G17G 5G 8G 6
  19926645.903   -37801100.43749 -29088284.65148  19926646.200    19926652.062
       245.000         213.000
  20348886.178   -34016522.29049 -26144034.46547  20348885.290    20348892.177
       240.000         206.000
  20895166.325   -43301380.67149 -33355133.21047  20895166.327    20895173.369
       238.000         198.000
  23843280.693    -7032280.77649  -5120839.90345  23843279.671    23843290.755
       203.000         145.000
  19831412.799   -49596607.76649 -37427192.92648  19831412.389    19831418.846
       246.000         216.000
  22771081.286   -28311890.88949 -20147971.34145  22771081.089    22771090.666
       217.000         162.000
  21645610.991   -26827393.03949 -19754501.67046  21645610.736    21645618.109
       231.000         187.000
 98  3 19  0 42 29.9970000  0  7G30G10G24G17G 5G 8G 6
  19911817.596   -37879023.87949 -29149004.21848  19911818.015    19911823.492
       245.000         213.000
  20335722.248   -34085698.95849 -26197938.34747  20335721.583    20335728.335
       240.000         206.000
  20899474.807   -43278739.53549 -33337490.78847  20899474.975    20899481.800
       238.000         198.000
  23817253.062    -7169056.37549  -5227418.13845  23817251.660    23817263.562
       206.000         146.000
  19831085.560   -49598327.45449 -37428532.96648  19831085.255    19831091.591
       246.000         215.000
  22778549.895   -28272643.44549 -20117388.99145  22778549.338    22778559.076
       216.000         162.000
  21624592.541   -26937845.52549 -19840568.49846  21624592.346    21624599.279
       231.000         187.000
 98  3 19  0 42 59.9970000  0  7G30G10G24G17G 5G 8G 6
  19897076.783   -37956487.24949 -29209365.28448  19897077.040    19897082.807
       245.000         213.000
  20322661.905   -34154331.51049 -26251418.24047  20322661.304    20322668.248
       241.000         207.000
  20903799.556   -43256012.71849 -33319781.60047  20903799.181    20903806.437
       237.000         198.000
  23791237.207    -7305770.01849  -5333948.11945  23791236.839    23791247.953
       209.000         148.000
  19830837.923   -49599628.73849 -37429546.97348  19830837.597    19830844.014
       246.000         215.000
  22786029.047   -28233340.55749 -20086763.43145  22786028.830    22786038.436
       218.000         161.000
  21603573.308   -27048302.23149 -19926638.62147  21603573.148    21603580.553
       230.000         188.000
 98  3 19  0 43 29.9970000  0  7G30G10G24G17G 5G 8G 6
  19882428.060   -38033466.74549 -29269349.30248  19882428.461    19882434.161
       245.000         213.000
  20309706.138   -34222414.31949 -26304469.75947  20309705.324    20309712.366
       240.000         207.000
  20908146.868   -43233167.47249 -33301980.12847  20908146.621    20908154.060
       237.000         197.000
  23765239.483    -7442388.63149  -5440404.06645  23765238.688    23765249.480
       210.000         149.000
  19830676.454   -49600477.35949 -37430208.25348  19830676.129    19830682.579
       245.000         215.000
  22793521.492   -28193967.57949 -20056083.27145  22793521.753    22793530.077
       216.000         161.000
  21582557.652   -27158739.83849 -20012693.85047  21582557.456    21582564.533
       230.000         188.000
 98  3 19  0 43 59.9970000  0  7G30G10G24G17G 5G 8G 6
  19867860.791   -38110018.30849 -29328999.87148  19867861.096    19867866.741
       245.000         213.000
  20296835.892   -34290047.82349 -26357171.17347  20296835.083    20296841.825
       240.000         207.000
  20912508.470   -43210247.21349 -33284120.20947  20912508.512    20912515.058
       237.000         197.000
  23739254.134    -7578942.15849  -5546809.29645  23739253.517    23739263.880
       212.000         150.000
  19830592.194   -49600920.25549 -37430553.39248  19830591.857    19830598.310
       246.000         215.000
  22801017.219   -28154577.70249 -20025389.93645  22801016.954    22801026.684
       217.000         161.000
  21561533.217   -27269223.88049 -20098785.27447  21561532.891    21561540.109
       230.000         188.000
 98  3 19  0 44 29.9970000  0  7G30G10G24G17G 5G 8G 6
  19853389.806   -38186063.83349 -29388256.12248  19853390.084    19853395.892
       245.000         213.000
  20284063.835   -34357165.41749 -26409470.57547  20284063.145    20284069.963
       241.000         207.000
  20916898.240   -43187178.60049 -33266144.68847  20916898.193    20916905.448
       237.000         196.000
  23713297.358    -7715345.57549  -5653097.57445  23713296.646    23713306.806
       212.000         150.000
  19830602.038   -49600868.76449 -37430513.28948  19830601.750    19830608.306
       246.000         215.000
  22808533.369   -28115080.18249 -19994612.73045  22808533.321    22808542.398
       217.000         160.000
  21540516.492   -27379667.10049 -20184844.88047  21540516.241    21540523.183
       230.000         188.000
 98  3 19  0 44 59.9970000  0  7G30G10G24G17G 5G 8G 6
  19839014.847   -38261604.66549 -29447119.10348  19839015.156    19839020.966
       245.000         213.000
  20271385.436   -34423790.85649 -26461386.48447  20271384.862    20271391.732
       240.000         207.000
  20921306.319   -43164014.10049 -33248094.44847  20921306.461    20921313.447
       237.000         196.000
  23687363.016    -7851630.93049  -5759293.85645  23687362.260    23687372.620
       211.000         150.000
  19830703.511   -49600335.49849 -37430097.77848  19830703.080    19830709.663
       246.000         215.000
  22816064.748   -28075502.75749 -19963773.25345  22816063.778    22816073.990
       214.000         159.000
  21519500.422   -27490107.15349 -20270902.01947  21519500.160    21519507.352
       231.000         188.000
 98  3 19  0 45 29.9970000  0  7G30G10G24G17G 5G 8G 6
  19824733.800   -38336652.12649 -29505597.64248  19824734.122    19824740.047
       245.000         213.000
  20258797.586   -34489940.24349 -26512931.43847  20258796.877    20258803.660
       241.000         207.000
  20925727.681   -43140779.58549 -33229989.65047  20925727.620    20925734.782
       237.000         196.000
  23661447.384    -7987818.09049  -5865413.60845  23661447.271    23661457.230
       212.000         150.000
  19830893.244   -49599338.57349 -37429320.97748  19830892.968    19830899.460
       246.000         215.000
  22823607.376   -28035866.19849 -19932887.71345  22823606.976    22823616.944
       213.000         157.000
  21498478.058   -27600580.36949 -20356985.00247  21498478.083    21498484.902
       231.000         188.000
 98  3 19  0 45 59.9970000  0  7G30G10G24G17G 5G 8G 6
  19810554.301   -38411165.79149 -29563660.23348  19810554.598    19810560.585
       245.000         213.000
  20246312.072   -34555551.86849 -26564057.36147  20246311.330    20246318.290
       241.000         207.000
  20930169.294   -43117438.92349 -33211802.14047  20930169.465    20930176.713
       236.000         196.000
  23635557.625    -8123869.23349  -5971427.39145  23635556.685    23635567.125
       211.000         150.000
  19831175.924   -49597853.11049 -37428163.49448  19831175.613    19831182.138
       246.000         215.000
  22831165.006   -27996150.63749 -19901940.61345  22831164.594    22831174.192
       213.000         155.000
  21477456.693   -27711048.17449 -20443063.76747  21477456.786    21477463.732
       231.000         188.000
 98  3 19  0 46 29.9970000  0  7G30G10G24G17G 5G 8G 6
  19796470.131   -38485178.32349 -29621332.32948  19796470.289    19796476.220
       245.000         213.000
  20233928.412   -34620628.35949 -26614766.29447  20233927.533    20233934.519
       241.000         207.000
  20934621.476   -43094042.38049 -33193571.08547  20934621.503    20934628.608
       236.000         196.000
  23609684.568    -8259832.31949  -6077372.54245  23609683.456    23609693.272
       212.000         150.000
  19831543.408   -49595922.07349 -37426658.81348  19831543.068    19831549.499
       245.000         215.000
  22838727.737   -27956408.47049 -19870972.77745  22838726.948    22838737.268
       211.000         154.000
  21456431.491   -27821536.45049 -20529158.49047  21456431.502    21456438.547
       231.000         189.000
 98  3 19  0 46 59.9970000  0  7G30G10G24G17G 5G 8G 6
  19782471.540   -38558741.20749 -29678654.04848  19782471.750    19782477.777
       245.000         213.000
  20221641.137   -34685198.38849 -26665080.58047  20221640.540    20221647.579
       241.000         207.000
  20939079.415   -43070615.83949 -33175316.65147  20939079.507    20939086.503
       236.000         195.000
  23583822.174    -8395739.85549  -6183274.40745  23583821.260    23583832.047
       214.000         151.000
  19831987.422   -49593588.73649 -37424840.64948  19831986.941    19831993.563
       245.000         214.000
  22846285.663   -27916691.49349 -19840024.57145  22846286.095    22846295.467
       213.000         153.000
  21435394.607   -27932086.08649 -20615301.02647  21435394.615    21435401.589
       231.000         189.000
 98  3 19  0 47 29.9970000  0  7G30G10G24G17G 5G 8G 6
  19768551.674   -38631890.57949 -29735653.55448  19768551.906    19768557.854
       245.000         213.000
  20209446.997   -34749278.95049 -26715013.46847  20209446.122    20209453.067
       241.000         207.000
  20943542.586   -43047161.74249 -33157040.75647  20943542.667    20943549.783
       236.000         195.000
  23557969.203    -8531597.91749  -6289137.74845  23557968.448    23557978.865
       216.000         151.000
  19832500.997   -49590889.76349 -37422737.58048  19832500.636    19832507.414
       245.000         214.000
  22853838.639   -27877000.54649 -19809096.65745  22853838.557    22853847.323
       212.000         152.000
  21414346.615   -28042693.59349 -20701488.65847  21414346.127    21414353.103
       231.000         189.000
 98  3 19  0 47 59.9970000  0  7G30G10G24G17G 5G 8G 6
  19754705.684   -38704651.73549 -29792350.54648  19754705.962    19754711.965
       245.000         213.000
  20197338.577   -34812909.07149 -26764595.35947  20197337.864    20197344.861
       241.000         207.000
  20948003.222   -43023720.89349 -33138775.17647  20948003.249    20948010.372
       235.000         195.000
  23532118.959    -8667441.55749  -6394989.84045  23532117.854    23532128.440
       214.000         151.000
  19833078.948   -49587852.51449 -37420370.91548  19833078.426    19833085.279
       245.000         214.000
  22861381.849   -27837361.19549 -19778208.93245  22861381.365    22861390.697
       213.000         152.000
  21393286.213   -28153366.42049 -20787727.19247  21393285.976    21393292.871
       232.000         190.000
 98  3 19  0 48 29.9970000  0  7G30G10G24G17G 5G 8G 6
  19740945.794   -38776960.40649 -29848694.95848  19740946.147    19740952.030
       245.000         213.000
  20185327.280   -34876028.62449 -26813779.41047  20185326.349    20185333.389
       241.000         207.000
  20952470.575   -43000244.85749 -33120482.18347  20952470.786    20952477.643
       235.000         194.000
  23506281.689    -8803216.96849  -6500788.76845  23506280.750    23506291.045
       213.000         149.000
  19833735.116   -49584404.25549 -37417683.98348  19833734.881    19833741.449
       245.000         214.000
  22868930.556   -27797692.62549 -19747298.44845  22868929.959    22868939.733
       212.000         152.000
  21372227.316   -28264031.56849 -20873959.74647  21372227.295    21372234.431
       232.000         190.000
 98  3 19  0 48 59.9970000  0  7G30G10G24G17G 5G 8G 6
  19727250.961   -38848927.01149 -29904772.82648  19727251.298    19727257.111
       245.000         213.000
  20173388.892   -34938765.17449 -26862665.02147  20173388.224    20173394.998
       241.000         207.000
  20956923.843   -42976842.66949 -33102246.73347  20956923.694    20956931.024
       235.000         194.000
  23480437.704    -8939027.47949  -6606615.05845  23480437.022    23480447.649
       212.000         147.000
  19834447.242   -49580662.19549 -37414768.11348  19834446.978    19834453.516
       245.000         214.000
  22876465.954   -27758094.41949 -19716442.79245  22876465.932    22876474.878
       212.000         152.000
  21351147.705   -28374805.54749 -20960277.09847  21351147.328    21351154.077
       232.000         190.000
 98  3 19  0 49 29.9970000  0  7G30G10G24G17G 5G 8G 6
  19713633.887   -38920485.07049 -29960532.34248  19713634.215    19713640.115
       245.000         213.000
  20161533.005   -35001068.33649 -26911212.92447  20161532.392    20161539.369
       241.000         207.000
  20961368.602   -42953485.20549 -33084046.12747  20961368.117    20961375.333
       234.000         193.000
  23454594.539    -9074833.73549  -6712437.99645  23454594.192    23454603.924
       211.000         146.000
  19835223.666   -49576582.17649 -37411588.90248  19835223.291    19835229.814
       245.000         213.000
  22883995.663   -27718525.93849 -19685610.29345  22883995.520    22884005.068
       215.000         154.000
  21330055.195   -28485647.31149 -21046647.27647  21330055.310    21330062.075
       232.000         190.000
 98  3 19  0 49 59.9970000  0  7G30G10G24G17G 5G 8G 6
  19700102.635   -38991592.31549 -30015940.57848  19700102.933    19700108.426
       245.000         213.000
  20149769.243   -35062887.19349 -26959383.44847  20149768.506    20149775.322
       241.000         208.000
  20965810.291   -42930144.01749 -33065858.21047  20965810.381    20965817.275
       235.000         193.000
  23428757.948    -9210605.34349  -6818233.95345  23428756.100    23428766.615
       211.000         146.000
  19836071.707   -49572125.63249 -37408116.29248  19836071.314    19836077.962
       245.000         213.000
  22891521.471   -27678977.81749 -19654793.65545  22891520.760    22891530.404
       215.000         155.000
  21308953.876   -28596535.09249 -21133053.31247  21308953.968    21308960.428
       232.000         190.000
 98  3 19  0 50 29.9970000  0  7G30G10G24G17G 5G 8G 6
  19686664.805   -39062208.68349 -30070966.31148  19686665.185    19686670.980
       245.000         213.000
  20138104.985   -35124183.19249 -27007146.55247  20138104.480    20138111.182
       241.000         208.000
  20970256.975   -42906776.44649 -33047649.73047  20970256.933    20970264.181
       235.000         193.000
  23402937.205    -9346293.76149  -6923965.06445  23402935.785    23402945.805
       211.000         146.000
  19836994.338   -49567277.19549 -37404338.31248  19836994.045    19837000.624
       245.000         213.000
  22899047.267   -27639429.89849 -19623977.18845  22899046.720    22899056.418
       214.000         156.000
  21287846.930   -28707452.56249 -21219482.48147  21287846.780    21287853.752
       232.000         191.000
 98  3 19  0 50 59.9970000  0  7G30G10G24G17G 5G 8G 6
  19673310.914   -39132383.66449 -30125648.10448  19673311.410    19673317.053
       245.000         214.000
  20126529.084   -35185014.82849 -27054547.81347  20126528.384    20126535.234
       241.000         208.000
  20974700.626   -42883425.00649 -33029453.82447  20974700.727    20974707.949
       234.000         192.000
  23377124.709    -9481939.19349  -7029662.68945  23377123.834    23377134.314
       211.000         147.000
  19837978.260   -49562106.73149 -37400309.40248  19837977.964    19837984.412
       245.000         213.000
  22906558.992   -27599956.03549 -19593218.42645  22906559.219    22906568.581
       214.000         157.000
  21266722.067   -28818464.35849 -21305985.16247  21266721.665    21266729.071
       232.000         191.000
 98  3 19  0 51 29.9970000  0  7G30G10G24G17G 5G 8G 6
  19660049.714   -39202071.88049 -30179950.60248  19660050.031    19660055.717
       245.000         214.000
  20115052.361   -35245325.10749 -27101542.82247  20115051.550    20115058.333
       241.000         208.000
  20979150.821   -42860039.16949 -33011231.11547  20979150.336    20979158.215
       234.000         192.000
  23351324.936    -9617517.45449  -7135307.98145  23351324.924    23351334.512
       212.000         149.000
  19839031.728   -49556570.84749 -37395995.74748  19839031.434    19839038.021
       245.000         213.000
  22914062.179   -27560526.89149 -19562494.51545  22914062.635    22914071.463
       213.000         157.000
  21245587.459   -28929527.34549 -21392527.72147  21245587.286    21245594.572
       233.000         191.000
 98  3 19  0 51 59.9960000  0  7G30G10G24G17G 5G 8G 6
  19646887.816   -39271238.22849 -30233846.45048  19646888.092    19646893.794
       245.000         214.000
  20103679.905   -35305087.77149 -27148111.12247  20103679.222    20103686.033
       241.000         208.000
  20983614.493   -42836582.44049 -32992953.16847  20983614.366    20983621.503
       234.000         191.000
  23325546.271    -9752984.78949  -7240866.80945  23325545.321    23325555.301
       211.000         149.000
  19840159.436   -49550644.99949 -37391378.22548  19840159.074    19840165.557
       245.000         213.000
  22921562.954   -27521110.46649 -19531780.50845  22921562.602    22921572.415
       212.000         156.000
  21224451.496   -29040597.48349 -21479075.85647  21224451.648    21224458.674
       232.000         191.000
 98  3 19  0 52 29.9960000  0  7G30G10G24G17G 5G 8G 6
  19633809.887   -39339963.31349 -30287398.45348  19633810.006    19633815.962
       246.000         214.000
  20092394.513   -35364392.84749 -27194322.86147  20092393.745    20092400.688
       242.000         208.000
  20988077.664   -42813128.31949 -32974677.25147  20988077.646    20988084.651
       235.000         191.000
  23299773.821    -9888419.53749  -7346400.26445  23299772.913    23299782.152
       212.000         148.000
  19841349.056   -49544393.62349 -37386507.04548  19841348.770    19841355.207
       245.000         213.000
  22929047.266   -27481780.50649 -19501133.88745  22929047.401    22929056.521
       212.000         156.000
  21203300.379   -29151747.15949 -21565685.96847  21203300.181    21203307.309
       232.000         192.000
 98  3 19  0 52 59.9960000  0  7G30G10G24G17G 5G 8G 6
  19620821.591   -39408217.17149 -30340583.27148  19620821.918    19620827.639
       246.000         214.000
  20081206.296   -35423187.35949 -27240136.75747  20081205.461    20081212.415
       241.000         208.000
  20992549.269   -42789629.93149 -32956366.83547  20992549.261    20992556.192
       234.000         191.000
  23274018.452   -10023764.28949  -7451863.58445  23274017.173    23274027.762
       213.000         150.000
  19842614.270   -49537744.97849 -37381326.30647  19842613.954    19842620.563
       245.000         212.000
  22936523.661   -27442492.32049 -19470519.81345  22936523.445    22936533.106
       212.000         155.000
  21182145.354   -29262917.60749 -21652312.26947  21182145.506    21182152.328
       233.000         192.000
 98  3 19  0 53 29.9960000  0  7G30G10G24G17G 5G 8G 6
  19607931.278   -39475956.25549 -30393366.97148  19607931.501    19607937.235
       246.000         214.000
  20070123.239   -35481429.13049 -27285519.95247  20070122.553    20070129.563
       242.000         208.000
  20997035.263   -42766055.86949 -32937997.46447  20997035.235    20997042.434
       234.000         191.000
  23248287.882   -10158978.92449  -7557225.52245  23248286.796    23248296.743
       213.000         151.000
  19843965.570   -49530643.71849 -37375792.88147  19843965.239    19843971.806
       245.000         212.000
  22944001.024   -27403198.93449 -19439901.68045  22944000.479    22944010.358
       213.000         154.000
  21160994.634   -29374065.28149 -21738920.82347  21160994.698    21161001.572
       233.000         192.000
 98  3 19  0 53 59.9960000  0  7G30G10G24G17G 5G 8G 6
  19595127.275   -39543241.65749 -30445797.14748  19595127.605    19595133.369
       245.000         214.000
  20059130.329   -35539197.23749 -27330534.05447  20059129.644    20059136.399
       241.000         208.000
  21001520.831   -42742484.14649 -32919629.91147  21001520.760    21001527.768
       233.000         190.000
  23222573.406   -10294108.77749  -7662521.39845  23222572.518    23222582.852
       213.000         152.000
  19845392.102   -49523147.48849 -37369951.68547  19845391.771    19845398.226
       245.000         212.000
  22951467.513   -27363962.61549 -19409328.01745  22951466.330    22951476.555
       214.000         154.000
  21139836.320   -29485253.04149 -21825560.61447  21139836.426    21139843.142
       234.000         193.000
 98  3 19  0 54 29.9960000  0  7G30G10G24G17G 5G 8G 6
  19582406.393   -39610090.13149 -30497886.86148  19582406.542    19582412.303
       246.000         214.000
  20048227.835   -35596490.09049 -27375177.82547  20048226.971    20048234.073
       242.000         208.000
  21006004.843   -42718920.71249 -32901268.81547  21006004.636    21006012.320
       234.000         190.000
  23196871.818   -10429170.84049  -7767764.45045  23196871.130    23196881.093
       213.000         153.000
  19846894.910   -49515250.13349 -37363797.92247  19846894.631    19846901.086
       244.000         212.000
  22958923.395   -27324782.17349 -19378797.88145  22958922.978    22958933.431
       212.000         154.000
  21118668.901   -29596488.56549 -21912237.61847  21118668.800    21118675.515
       233.000         193.000
 98  3 19  0 54 59.9960000  0  7G30G10G24G17G 5G 8G 6
  19569800.238   -39676335.74349 -30549506.81748  19569800.509    19569806.310
       246.000         214.000
  20037446.471   -35653146.72649 -27419325.84547  20037445.955    20037452.656
       242.000         208.000
  21010515.855   -42695215.49849 -32882797.24347  21010516.122    21010523.462
       233.000         190.000
  23171209.718   -10564025.48049  -7872845.88045  23171209.286    23171218.884
       213.000         154.000
  19848500.921   -49506810.58549 -37357221.67647  19848500.649    19848507.168
       245.000         212.000
  22966399.896   -27285493.22949 -19348183.20345  22966399.502    22966408.955
       214.000         154.000
  21097520.746   -29707622.60749 -21998835.54247  21097520.391    21097527.494
       235.000         193.000
 98  3 19  0 55 29.9960000  0  7G30G10G24G17G 5G 8G 6
  19557307.269   -39741986.78949 -30600663.47748  19557307.558    19557313.314
       246.000         214.000
  20026780.591   -35709196.38749 -27463000.89947  20026779.849    20026786.712
       242.000         208.000
  21015046.713   -42671405.72449 -32864244.19347  21015046.526    21015053.969
       233.000         190.000
  23145576.587   -10698728.04749  -7977808.80445  23145575.651    23145585.522
       212.000         153.000
  19850200.247   -49497880.56749 -37350263.24547  19850199.992    19850206.492
       245.000         212.000
  22973892.409   -27246120.10049 -19317502.92945  22973892.845    22973901.592
       213.000         153.000
  21076387.286   -29818679.52049 -22085373.37247  21076387.211    21076393.778
       234.000         193.000
 98  3 19  0 55 59.9960000  0  7G30G10G24G17G 5G 8G 6
  19544903.557   -39807168.84049 -30651454.68148  19544903.765    19544909.514
       246.000         214.000
  20016209.490   -35764747.95249 -27506287.82147  20016208.537    20016215.536
       242.000         208.000
  21019574.390   -42647612.66349 -32845704.15747  21019573.812    21019581.286
       233.000         190.000
  23119949.344   -10833399.30749  -8082747.34945  23119948.912    23119958.664
       210.000         152.000
  19851968.299   -49488589.52349 -37343023.48947  19851967.989    19851974.570
       245.000         212.000
  22981377.558   -27206785.61249 -19286852.76345  22981376.744    22981386.741
       211.000         153.000
  21055247.176   -29929771.38749 -22171938.43147  21055247.076    21055254.068
       233.000         194.000
 98  3 19  0 56 29.9960000  0  7G30G10G24G17G 5G 8G 6
  19532591.252   -39871870.40349 -30701871.49148  19532591.558    19532597.159
       246.000         214.000
  20005736.297   -35819784.84349 -27549173.70447  20005735.617    20005742.353
       242.000         208.000
  21024102.258   -42623818.68049 -32827163.42047  21024102.417    21024109.278
       234.000         189.000
  23094331.661   -10968020.48049  -8187646.84945  23094331.167    23094340.542
       210.000         152.000
  19853804.839   -49478938.56549 -37335503.28847  19853804.697    19853810.861
       244.000         212.000
  22988855.164   -27167490.73249 -19256233.46645  22988854.947    22988864.122
       212.000         152.000
  21034104.793   -30040875.47749 -22258513.02047  21034104.632    21034111.337
       234.000         194.000
 98  3 19  0 56 59.9960000  0  7G30G10G24G17G 5G 8G 6
  19520364.937   -39936119.99449 -30751936.10948  19520365.242    19520371.046
       246.000         214.000
  19995352.730   -35874350.76049 -27591692.58647  19995351.916    19995358.994
       242.000         208.000
  21028624.684   -42600053.30249 -32808644.96547  21028624.366    21028631.757
       233.000         189.000
  23068719.320   -11102613.42049  -8292524.35345  23068718.578    23068728.623
       211.000         152.000
  19855700.586   -49468976.28749 -37327740.49447  19855700.255    19855706.795
       244.000         211.000
  22996315.750   -27128285.11049 -19225683.72245  22996315.672    22996326.020
       214.000         152.000
  21012951.061   -30152038.90049 -22345133.83047  21012951.307    21012957.692
       235.000         194.000
 98  3 19  0 57 29.9960000  0  7G30G10G24G17G 5G 8G 6
  19508240.491   -39999834.55049 -30801583.82248  19508240.886    19508246.371
       246.000         214.000
  19985074.988   -35928360.50149 -27633778.08847  19985074.221    19985080.911
       241.000         208.000
  21033159.554   -42576222.48649 -32790075.52147  21033159.687    21033166.743
       233.000         189.000
  23043132.008   -11237075.11549  -8397299.60145  23043131.202    23043141.090
       212.000         152.000
  19857674.014   -49458606.05949 -37319659.82647  19857673.639    19857680.326
       244.000         211.000
  23003774.699   -27089088.72749 -19195141.16745  23003774.418    23003783.806
       214.000         153.000
  20991802.825   -30263173.59949 -22431732.26547  20991802.567    20991809.556
       235.000         195.000
 98  3 19  0 57 59.9960000  0  7G30G10G24G17G 5G 8G 6
  19496208.868   -40063061.26149 -30850851.39548  19496209.195    19496214.725
       246.000         214.000
  19974891.355   -35981875.80649 -27675478.31047  19974890.391    19974897.528
       241.000         208.000
  21037698.492   -42552370.45949 -32771489.54347  21037698.245    21037705.744
       234.000         189.000
  23017565.982   -11371425.14449  -8501987.81445  23017565.081    23017575.396
       212.000         153.000
  19859716.648   -49447871.95849 -37311295.61647  19859716.304    19859722.982
       244.000         211.000
  23011220.388   -27049961.76249 -19164652.70645  23011219.644    23011229.227
       212.000         153.000
  20970651.487   -30374324.42849 -22518343.25747  20970651.280    20970658.386
       234.000         195.000
 98  3 19  0 58 29.9960000  0  7G30G10G24G17G 5G 8G 6
  19484286.862   -40125711.63149 -30899669.86948  19484287.109    19484292.668
       246.000         214.000
  19964816.281   -36034820.28749 -27716733.73747  19964815.596    19964822.390
       241.000         208.000
  21042258.781   -42528405.90949 -32752815.88847  21042258.538    21042265.714
       233.000         189.000
  22992036.394   -11505583.38749  -8606526.59745  22992035.925    22992045.312
       213.000         153.000
  19861844.489   -49436690.17049 -37302582.56547  19861843.932    19861850.743
       244.000         211.000
  23018667.616   -27010826.56149 -19134157.83845  23018665.739    23018676.486
       213.000         152.000
  20949511.512   -30485415.41149 -22604907.62647  20949511.535    20949518.150
       234.000         195.000
 98  3 19  0 58 59.9960000  0  7G30G10G24G17G 5G 8G 6
  19472453.635   -40187895.61349 -30948124.92348  19472453.971    19472459.669
       246.000         215.000
  19954829.799   -36087299.45849 -27757626.58447  19954829.239    19954836.149
       242.000         208.000
  21046816.970   -42504452.67249 -32734151.04847  21046816.672    21046824.544
       233.000         188.000
  22966517.654   -11639685.05449  -8711021.29445  22966517.051    22966526.775
       214.000         153.000
  19864036.828   -49425169.40949 -37293605.37247  19864036.434    19864043.172
       244.000         211.000
  23026095.552   -26971792.61549 -19103741.86245  23026095.796    23026105.408
       212.000         151.000
  20928359.263   -30596571.29649 -22691522.56047  20928359.078    20928365.891
       235.000         195.000
 98  3 19  0 59 29.9960000  0  7G30G10G24G17G 5G 8G 6
  19460720.261   -40249554.95449 -30996171.16948  19460720.454    19460726.096
       246.000         215.000
  19944943.723   -36139251.16649 -27798108.42247  19944943.163    19944949.897
       241.000         208.000
  21051379.546   -42480476.03149 -32715467.97247  21051379.633    21051386.699
       232.000         188.000
  22941020.982   -11773670.99549  -8815425.82345  22941020.752    22941030.052
       216.000         154.000
  19866305.014   -49413249.91949 -37284317.48547  19866304.604    19866311.347
       244.000         210.000
  23033513.872   -26932809.36349 -19073365.40045  23033513.440    23033523.478
       212.000         150.000
  20907210.082   -30707710.75649 -22778124.70647  20907209.950    20907216.532
       235.000         195.000
 98  3 19  0 59 59.9960000  0  7G30G10G24G17G 5G 8G 6
  19449094.979   -40310646.20249 -31043774.74448  19449095.282    19449100.909
       246.000         215.000
  19935168.107   -36190622.25249 -27838137.83047  19935167.321    19935174.359
       241.000         208.000
  21055954.233   -42456435.75549 -32696735.30646  21055954.316    21055961.803
       232.000         187.000
  22915554.235   -11907499.55449  -8919707.72145  22915553.412    22915563.033
       215.000         155.000
  19868657.374   -49400888.29849 -37274685.07947  19868657.225    19868663.800
       243.000         210.000
  23040931.218   -26893831.41049 -19042993.04345  23040930.396    23040940.597
       209.000         149.000
  20886075.611   -30818772.90549 -22864666.60147  20886075.241    20886082.251
       234.000         195.000
 98  3 19  1  0 29.9960000  0  7G30G10G24G17G 5G 8G 6
  19437583.626   -40371138.71949 -31090911.77048  19437583.911    19437589.683
       246.000         215.000
  19925514.643   -36241351.43649 -27877667.04947  19925513.674    19925520.726
       241.000         208.000
  21060546.572   -42432303.05149 -32677930.61746  21060546.537    21060553.999
       232.000         187.000
  22890120.935   -12041152.09049  -9023852.44945  22890120.160    22890129.857
       216.000         156.000
  19871104.000   -49388031.30949 -37264666.67247  19871103.651    19871110.487
       243.000         210.000
  23048355.912   -26854814.61749 -19012590.44445  23048356.285    23048366.034
       211.000         149.000
  20864963.093   -30929719.56549 -22951118.50547  20864962.807    20864969.994
       235.000         195.000
 98  3 19  1  0 59.9960000  0  7G30G10G24G17G 5G 8G 6
  19426178.700   -40431072.12949 -31137613.12948  19426179.086    19426184.794
       246.000         215.000
  19915975.388   -36291480.45249 -27916728.60747  19915974.728    19915981.635
       241.000         208.000
  21065146.672   -42408129.40449 -32659094.02846  21065146.343    21065154.108
       231.000         187.000
  22864716.061   -12174655.52349  -9127880.99645  22864714.637    22864724.407
       216.000         156.000
  19873640.715   -49374701.01049 -37254279.45647  19873640.465    19873647.378
       243.000         210.000
  23055780.782   -26815796.72549 -18982186.99145  23055780.975    23055790.238
       209.000         147.000
  20843869.501   -31040566.94049 -23037493.04547  20843869.290    20843876.374
       235.000         196.000
 98  3 19  1  1 29.9960000  0  7G30G10G24G17G 5G 8G 6
  19414875.951   -40490468.50049 -31183896.01848  19414876.341    19414882.001
       246.000         215.000
  19906545.876   -36341032.79149 -27955340.80647  19906545.206    19906552.167
       241.000         208.000
  21069752.490   -42383925.51249 -32640233.87046  21069752.384    21069759.789
       232.000         187.000
  22839340.002   -12308006.98649  -9231791.11845  22839339.125    22839349.213
       215.000         156.000
  19876262.371   -49360924.27849 -37243544.36947  19876262.120    19876268.730
       243.000         210.000
  23063203.381   -26776791.03349 -18951793.02545  23063203.417    23063212.940
       209.000         147.000
  20822794.747   -31151315.38149 -23123790.49447  20822794.869    20822801.362
       235.000         196.000
 98  3 19  1  1 59.9960000  0  7G30G10G24G17G 5G 8G 6
  19403678.580   -40549311.04149 -31229747.35048  19403678.733    19403684.652
       246.000         215.000
  19897225.550   -36390011.59949 -27993506.10147  19897224.838    19897231.581
       242.000         208.000
  21074367.550   -42359673.15249 -32621335.94846  21074367.509    21074374.790
       232.000         186.000
  22813993.364   -12441203.87949  -9335580.78945  22813992.572    22814001.976
       215.000         156.000
  19878968.068   -49346705.80049 -37232465.06547  19878967.807    19878974.446
       243.000         210.000
  23070627.642   -26737776.68849 -18921392.31945  23070627.627    23070637.270
       210.000         147.000
  20801737.546   -31261971.61149 -23210016.09347  20801737.477    20801743.990
       236.000         196.000
 98  3 19  1  2 29.9960000  0  7G30G10G24G17G 5G 8G 6
  19392563.204   -40607722.49849 -31275262.77148  19392563.478    19392569.120
       246.000         215.000
  19887988.111   -36438554.52749 -28031331.74647  19887987.153    19887994.139
       242.000         208.000
  21078965.426   -42335511.19649 -32602508.47046  21078965.516    21078973.052
       231.000         186.000
  22788653.720   -12574363.99949  -9439341.82345  22788653.513    22788662.276
       215.000         157.000
  19881732.121   -49332180.80949 -37221146.91847  19881731.744    19881738.340
       243.000         210.000
  23078028.250   -26698886.42649 -18891088.30945  23078028.393    23078037.786
       209.000         147.000
  20780669.423   -31372685.06249 -23296286.28047  20780669.142    20780676.129
       236.000         196.000
 98  3 19  1  2 59.9960000  0  7G30G10G24G17G 5G 8G 6
  19381537.785   -40665661.34949 -31320409.92948  19381538.010    19381543.913
       246.000         215.000
  19878837.566   -36486640.98649 -28068801.69947  19878836.828    19878843.566
       242.000         208.000
  21083554.497   -42311395.49549 -32583717.02646  21083554.409    21083561.603
       231.000         186.000
  22763330.443   -12707438.55849  -9543036.17645  22763329.385    22763338.739
       215.000         157.000
  19884554.926   -49317346.85049 -37209588.01547  19884554.439    19884561.100
       243.000         209.000
  23085410.252   -26660094.28249 -18860860.75645  23085410.093    23085419.753
       209.000         148.000
  20759594.423   -31483434.76849 -23382584.71747  20759594.512    20759601.314
       236.000         197.000
 98  3 19  1  3 29.9960000  0  7G30G10G24G17G 5G 8G 6
  19370609.981   -40723087.46549 -31365157.54948  19370610.246    19370615.902
       246.000         215.000
  19869781.934   -36534228.49049 -28105882.85747  19869781.147    19869787.887
       242.000         208.000
  21088144.653   -42287274.09749 -32564921.14946  21088144.681    21088152.315
       231.000         185.000
  22738030.569   -12840389.71149  -9646634.37245  22738029.390    22738039.401
       215.000         157.000
  19887438.377   -49302194.22849 -37197780.80547  19887438.083    19887444.845
       243.000         209.000
  23092779.788   -26621367.26249 -18830683.95145  23092779.591    23092789.928
       210.000         148.000
  20738513.556   -31594215.53149 -23468907.35647  20738513.436    20738519.868
       235.000         197.000
 98  3 19  1  3 59.9960000  0  7G30G10G24G17G 5G 8G 6
  19359794.380   -40779923.82249 -31409445.62348  19359794.693    19359800.436
       246.000         215.000
  19860838.203   -36581228.05049 -28142505.88447  19860837.378    19860844.247
       242.000         208.000
  21092751.130   -42263066.78149 -32546058.32146  21092750.992    21092758.377
       231.000         185.000
  22712769.954   -12973134.54649  -9750071.80045  22712769.087    22712778.865
       215.000         158.000
  19890402.741   -49286616.52949 -37185642.36747  19890402.461    19890409.247
       243.000         209.000
  23100149.096   -26582641.40449 -18800508.03945  23100148.430    23100158.347
       210.000         148.000
  20717439.669   -31704959.44349 -23555201.28747  20717439.795    20717446.137
       236.000         197.000
 98  3 19  1  4 29.9960000  0  7G30G10G24G17G 5G 8G 6
  19349080.246   -40836227.16549 -31453318.35948  19349080.650    19349086.400
       246.000         215.000
  19852003.992   -36627652.15649 -28178680.50147  19852003.214    19852010.131
       242.000         208.000
  21097368.341   -42238803.18349 -32527151.63446  21097368.186    21097375.914
       230.000         186.000
  22687540.771   -13105714.30949  -9853380.60345  22687539.753    22687549.690
       216.000         159.000
  19893443.757   -49270635.96249 -37173190.01147  19893443.256    19893450.012
       242.000         208.000
  23107508.052   -26543970.24049 -18770374.75545  23107508.125    23107517.768
       210.000         149.000
  20696366.392   -31815700.20749 -23641492.75947  20696366.304    20696372.911
       236.000         197.000
 98  3 19  1  4 59.9960000  0  7G30G10G24G17G 5G 8G 6
  19338465.049   -40892010.34549 -31496785.77448  19338465.209    19338471.128
       246.000         215.000
  19843278.559   -36673504.48349 -28214409.57947  19843277.845    19843284.674
       242.000         208.000
  21101998.771   -42214470.27949 -32508190.94746  21101998.840    21102005.776
       230.000         185.000
  22662338.954   -13238150.51049  -9956577.54645  22662338.390    22662348.237
       216.000         160.000
  19896560.229   -49254258.87649 -37160428.67447  19896559.988    19896566.624
       242.000         208.000
  23114853.450   -26505370.55649 -18740297.16745  23114853.550    23114863.801
       210.000         149.000
  20675295.316   -31926429.38649 -23727775.20947  20675295.181    20675301.828
       237.000         197.000
 98  3 19  1  5 29.9960000  0  7G30G10G24G17G 5G 8G 6
  19327945.622   -40947290.18749 -31539860.97848  19327946.001    19327951.691
       246.000         215.000
  19834658.835   -36718801.39449 -28249705.86947  19834658.002    19834664.919
       242.000         208.000
  21106634.506   -42190109.37649 -32489208.44546  21106634.381    21106642.144
       231.000         186.000
  22637158.196   -13370476.08749 -10059688.28545  22637157.442    22637166.978
       217.000         160.000
  19899750.708   -49237492.99549 -37147364.38347  19899750.409    19899757.170
       242.000         208.000
  23122181.530   -26466861.85249 -18710290.47945  23122181.347    23122191.742
       210.000         150.000
  20654226.006   -32037149.14649 -23814050.32147  20654225.887    20654232.696
       237.000         197.000
 98  3 19  1  5 59.9960000  0  7G30G10G24G17G 5G 8G 6
  19317518.170   -41002086.89549 -31582559.71348  19317518.410    19317524.302
       246.000         215.000
  19826140.172   -36763567.21949 -28284588.32347  19826139.519    19826146.408
       242.000         208.000
  21111266.520   -42165768.13149 -32470241.25446  21111266.564    21111274.274
       231.000         185.000
  22611990.300   -13502733.79049 -10162746.14145  22611989.655    22611998.486
       218.000         161.000
  19903011.040   -49220359.99349 -37134014.01747  19903010.533    19903017.480
       243.000         208.000
  23129485.847   -26428477.60949 -18680380.77045  23129485.610    23129495.995
       208.000         149.000
  20633158.063   -32147861.82549 -23900319.91847  20633158.122    20633164.266
       238.000         197.000
 98  3 19  1  6 29.9960000  0  7G30G10G24G17G 5G 8G 6
  19307219.800   -41056205.21449 -31624729.83648  19307219.970    19307225.764
       246.000         215.000
  19817753.637   -36807638.62849 -28318929.67147  19817753.035    19817759.664
       242.000         208.000
  21115925.658   -42141284.30949 -32451162.96946  21115925.879    21115932.925
       231.000         185.000
  22586863.494   -13634775.59149 -10265635.77245  22586862.101    22586872.045
       216.000         160.000
  19906367.186   -49202723.26649 -37120271.14447  19906366.859    19906373.581
       242.000         208.000
  23136798.487   -26390049.68349 -18650437.02145  23136798.927    23136808.777
       209.000         148.000
  20612126.323   -32258384.15549 -23986441.19047  20612126.122    20612133.175
       238.000         197.000
 98  3 19  1  6 59.9960000  0  7G30G10G24G17G 5G 8G 6
  19297013.992   -41109836.92049 -31666520.77848  19297014.225    19297020.057
       246.000         215.000
  19809456.600   -36851239.78649 -28352904.59247  19809455.919    19809462.723
       242.000         208.000
  21120569.904   -42116878.79749 -32432145.70546  21120570.353    21120577.006
       231.000         185.000
  22561742.899   -13766784.93149 -10368500.10245  22561742.221    22561751.255
       216.000         160.000
  19909777.436   -49184802.34949 -37106306.82147  19909777.088    19909783.839
       242.000         207.000
  23144079.882   -26351785.85649 -18620621.16145  23144079.417    23144089.783
       207.000         147.000
  20591092.489   -32368917.51349 -24072571.05347  20591092.503    20591098.902
       238.000         198.000
 98  3 19  1  7 29.9960000  0  7G30G10G24G17G 5G 8G 6
  19286913.026   -41162917.79849 -31707882.50348  19286913.288    19286918.991
       246.000         215.000
  19801261.393   -36894305.68149 -28386462.42547  19801260.553    19801267.473
       242.000         208.000
  21125208.133   -42092505.09149 -32413153.22146  21125208.173    21125214.909
       230.000         185.000
  22536643.327   -13898683.52049 -10471278.13345  22536643.027    22536651.239
       216.000         159.000
  19913251.402   -49166546.63649 -37092081.61947  19913251.113    19913257.787
       242.000         207.000
  23151342.345   -26313621.63549 -18590882.90945  23151342.009    23151352.562
       208.000         146.000
  20570068.118   -32479401.35449 -24158662.33747  20570068.028    20570074.498
       237.000         198.000
 98  3 19  1  7 59.9950000  0  7G30G10G24G17G 5G 8G 6
  19276903.568   -41215517.84649 -31748869.56148  19276903.907    19276909.644
       246.000         215.000
  19793155.836   -36936900.65549 -28419653.30947  19793155.214    19793161.812
       242.000         208.000
  21129832.108   -42068206.01249 -32394218.89546  21129832.411    21129839.743
       230.000         185.000
  22511555.684   -14030519.34749 -10574007.25545  22511554.925    22511564.463
       215.000         158.000
  19916774.730   -49148031.64949 -37077654.39047  19916774.274    19916781.145
       242.000         207.000
  23158571.774   -26275630.83049 -18561279.79045  23158570.605    23158582.576
       203.000         144.000
  20549040.145   -32589903.97949 -24244768.26047  20549039.836    20549046.880
       237.000         198.000
 98  3 19  1  8 29.9950000  0  7G30G10G24G17G 5G 8G 6
  19266983.092   -41267650.21949 -31789492.19048  19266983.265    19266989.003
       246.000         215.000
  19785137.509   -36979037.43349 -28452487.16147  19785136.755    19785143.779
       242.000         208.000
  21134444.710   -42043966.99349 -32375331.36246  21134444.778    21134452.296
       230.000         185.000
  22486481.643   -14162283.79449 -10676680.76245  22486480.374    22486490.465
       216.000         158.000
  19920347.475   -49129256.89449 -37063024.74147  19920347.231    19920354.155
       242.000         207.000
  23165769.314   -26237808.01049 -18531807.56245  23165768.982    23165780.016
       203.000         143.000
  20528006.594   -32700435.95149 -24330897.05347  20528006.517    20528013.244
       238.000         198.000
 98  3 19  1  8 59.9950000  0  7G30G10G24G17G 5G 8G 6
  19257153.257   -41319306.33549 -31829743.71348  19257153.460    19257159.444
       246.000         215.000
  19777212.504   -37020683.54649 -28484938.67347  19777211.921    19777218.507
       242.000         208.000
  21139052.022   -42019755.44949 -32356465.24246  21139051.329    21139059.497
       230.000         185.000
  22461431.890   -14293920.48849 -10779254.72245  22461431.395    22461439.797
       217.000         158.000
  19923978.177   -49110177.40549 -37048157.63947  19923977.747    19923984.740
       242.000         207.000
  23172942.890   -26200110.88949 -18502433.29645  23172942.536    23172953.109
       201.000         142.000
  20506972.790   -32810969.31949 -24417026.93447  20506972.628    20506979.204
       238.000         199.000
 98  3 19  1  9 29.9950000  0  7G30G10G24G17G 5G 8G 6
  19247421.244   -41370448.34649 -31869594.63248  19247421.537    19247427.439
       246.000         215.000
  19769387.205   -37061805.97449 -28516982.11547  19769386.558    19769393.343
       242.000         208.000
  21143659.458   -41995543.22249 -32337598.58646  21143659.529    21143666.767
       230.000         184.000
  22436408.569   -14425418.43949 -10881720.56945  22436407.838    22436417.058
       215.000         158.000
  19927675.996   -49090745.44549 -37033015.87947  19927675.447    19927682.422
       242.000         207.000
  23180098.375   -26162508.55749 -18473132.88245  23180097.982    23180108.583
       205.000         141.000
  20485944.852   -32921471.64049 -24503132.61647  20485944.676    20485951.187
       238.000         199.000
 98  3 19  1  9 59.9950000  0  7G30G10G24G17G 5G 8G 6
  19237792.234   -41421049.29949 -31909023.94948  19237792.503    19237798.364
       246.000         215.000
  19761663.798   -37102392.69149 -28548608.12447  19761663.125    19761669.811
       242.000         208.000
  21148269.742   -41971316.09349 -32318720.33646  21148269.558    21148277.632
       230.000         184.000
  22411413.355   -14556768.77949 -10984071.39845  22411412.072    22411421.946
       217.000         159.000
  19931449.069   -49070917.79349 -37017565.79547  19931448.605    19931455.550
       241.000         207.000
  23187239.500   -26124981.99249 -18443891.51645  23187239.728    23187249.696
       206.000         141.000
  20464927.476   -33031918.68849 -24589195.23747  20464927.126    20464933.995
       239.000         200.000
 98  3 19  1 10 29.9950000  0  7G30G10G24G17G 5G 8G 6
  19228249.826   -41471194.77749 -31948098.35348  19228250.020    19228255.812
       245.000         215.000
  19754026.969   -37142524.39949 -28579879.58047  19754026.182    19754033.022
       242.000         208.000
  21152865.887   -41947163.16849 -32299899.89446  21152865.616    21152872.989
       230.000         184.000
  22386430.291   -14688055.77849 -11086372.86445  22386429.617    22386439.068
       219.000         160.000
  19935286.470   -49050752.14949 -37001852.33347  19935286.308    19935292.815
       241.000         206.000
  23194352.405   -26087604.46149 -18414766.25845  23194352.244    23194361.656
       205.000         140.000
  20443905.926   -33142387.67549 -24675274.95447  20443905.829    20443912.422
       238.000         200.000
 98  3 19  1 10 59.9950000  0  7G30G10G24G17G 5G 8G 6
  19218792.401   -41520893.73049 -31986824.81448  19218792.887    19218798.830
       246.000         215.000
  19746474.378   -37182213.50349 -28610806.14747  19746473.541    19746480.498
       243.000         208.000
  21157441.186   -41923119.97649 -32281164.95746  21157441.348    21157448.702
       230.000         184.000
  22361454.370   -14819305.11249 -11188644.99445  22361453.128    22361462.403
       218.000         161.000
  19939184.078   -49030270.14649 -36985892.36447  19939183.730    19939190.807
       242.000         206.000
  23201430.288   -26050410.15049 -18385783.76845  23201430.044    23201440.767
       207.000         139.000
  20422874.749   -33252907.08749 -24761393.95747  20422874.548    20422881.251
       238.000         200.000
 98  3 19  1 11 29.9950000  0  7G30G10G24G17G 5G 8G 6
  19209410.377   -41570196.88149 -32025242.85748  19209410.792    19209416.481
       246.000         215.000
  19738995.129   -37221516.93249 -28641432.18947  19738994.498    19739001.349
       243.000         208.000
  21161985.553   -41899239.28149 -32262556.64546  21161985.542    21161992.880
       230.000         183.000
  22336473.853   -14950578.34849 -11290935.73745  22336473.311    22336481.950
       218.000         161.000
  19943127.831   -49009545.72949 -36969743.49847  19943127.290    19943134.296
       242.000         206.000
  23208460.214   -26013468.19149 -18356997.90445  23208459.818    23208470.554
       209.000         141.000
  20401823.594   -33363531.35249 -24847594.66447  20401823.511    20401829.939
       239.000         200.000
 98  3 19  1 11 59.9950000  0  7G30G10G24G17G 5G 8G 6
  19200084.511   -41619204.82349 -32063430.86548  19200084.668    19200090.555
       248.000         215.000
  19731574.015   -37260515.03249 -28671820.31047  19731573.196    19731580.285
       244.000         208.000
  21166486.219   -41875588.17549 -32244127.22446  21166486.236    21166493.872
       231.000         182.000
  22311474.639   -15081949.76649 -11393303.00345  22311473.978    22311482.585
       220.000         161.000
  19947098.258   -48988681.10649 -36953485.37947  19947097.891    19947104.858
       242.000         206.000
  23215424.588   -25976870.26949 -18328480.12945  23215424.446    23215434.021
       211.000         140.000
  20380738.046   -33474336.59249 -24933936.38647  20380737.669    20380744.554
       239.000         200.000
 98  3 19  1 12 29.9950000  0  7G30G10G24G17G 5G 8G 6
  19190834.678   -41667812.89149 -32101307.29348  19190834.991    19190840.781
       246.000         216.000
  19724230.666   -37299104.73849 -28701890.20847  19724230.080    19724236.838
       242.000         208.000
  21170964.305   -41852055.63549 -32225790.20646  21170964.206    21170971.104
       229.000         181.000
  22286476.890   -15213313.42049 -11495664.21345  22286476.024    22286485.818
       218.000         161.000
  19951111.531   -48967591.32649 -36937051.82447  19951110.913    19951118.174
       240.000         205.000
  23222341.766   -25940520.37349 -18300155.62145  23222341.707    23222352.728
       209.000         141.000
  20359638.692   -33585214.34049 -25020334.62047  20359638.396    20359645.006
       238.000         200.000
 98  3 19  1 12 59.9950000  0  7G30G10G24G17G 5G 8G 6
  19181674.452   -41715950.28749 -32138816.94848  19181674.683    19181680.606
       248.000         216.000
  19716977.751   -37337219.13249 -28731589.72447  19716977.021    19716983.800
       242.000         208.000
  21175431.252   -41828581.59449 -32207498.76146  21175431.444    21175438.576
       228.000         181.000
  22261492.422   -15344607.27649 -11597971.03245  22261491.740    22261500.163
       219.000         162.000
  19955175.363   -48946235.63449 -36920411.05247  19955174.900    19955181.726
       241.000         205.000
  23229221.599   -25904366.93149 -18271984.17945  23229221.704    23229231.089
       209.000         141.000
  20338537.613   -33696101.27149 -25106739.99247  20338537.384    20338543.984
       238.000         201.000
 98  3 19  1 13 29.9950000  0  7G30G10G24G17G 5G 8G 6
  19172627.759   -41763490.90449 -32175861.59548  19172628.236    19172633.923
       248.000         216.000
  19709838.692   -37374735.04849 -28760822.90347  19709838.003    19709844.798
       243.000         208.000
  21179915.952   -41805014.30049 -32189134.66546  21179915.560    21179923.950
       228.000         180.000
  22236546.119   -15475700.72649 -11700121.69345  22236545.740    22236554.831
       219.000         162.000
  19959314.809   -48924482.76349 -36903460.79947  19959314.404    19959321.328
       241.000         205.000
  23236090.407   -25868271.30349 -18243857.80245  23236089.770    23236099.691
       209.000         141.000
  20317462.531   -33806851.45749 -25193038.82447  20317462.573    20317469.020
       239.000         201.000
 98  3 19  1 13 59.9950000  0  7G30G10G24G17G 5G 8G 6
  19163639.357   -41810725.34449 -32212667.65648  19163639.618    19163645.469
       248.000         216.000
  19702756.620   -37411951.56449 -28789822.77947  19702755.826    19702762.712
       243.000         208.000
  21184358.974   -41781666.20349 -32170941.35946  21184358.274    21184366.810
       228.000         180.000
  22211581.511   -15606890.50449 -11802347.41146  22211580.283    22211589.686
       220.000         163.000
  19963475.125   -48902620.32149 -36886425.16847  19963474.804    19963481.700
       241.000         204.000
  23242892.240   -25832527.76849 -18216005.77545  23242892.091    23242903.045
       210.000         142.000
  20296356.358   -33917765.02249 -25279464.95647  20296356.225    20296362.899
       239.000         201.000
 98  3 19  1 14 29.9950000  0  6G30G10G24G17G 5G 6
  19154736.553   -41857509.93449 -32249123.18548  19154736.862    19154742.643
       248.000         216.000
  19695758.730   -37448725.64849 -28818477.90547  19695758.010    19695765.009
       242.000         208.000
  21188783.269   -41758416.41249 -32152824.66546  21188782.731    21188790.103
       228.000         180.000
  22186623.875   -15738043.35149 -11904544.35246  22186623.130    22186632.521
       218.000         163.000
  19967680.745   -48880519.89849 -36869204.08947  19967680.622    19967687.605
       240.000         204.000
  20275241.405   -34028724.89649 -25365927.17547  20275241.303    20275247.841
       239.000         201.000
 98  3 19  1 14 59.9950000  0  6G30G10G24G17G 5G 6
  19145917.840   -41903852.45049 -32285234.24048  19145918.047    19145923.990
       248.000         216.000
  19688845.154   -37485056.72849 -28846787.83047  19688844.407    19688851.307
       243.000         208.000
  21193187.302   -41735273.04949 -32134790.89446  21193187.282    21193195.047
       229.000         180.000
  22161673.254   -15869159.09849 -12006712.37946  22161673.023    22161681.193
       221.000         164.000
  19971928.545   -48858197.74449 -36851810.23447  19971927.782    19971935.251
       240.000         204.000
  20254113.103   -34139754.78749 -25452443.94747  20254113.009    20254119.418
       240.000         202.000
 98  3 19  1 15 29.9950000  0  6G30G10G24G17G 5G 6
  19137185.901   -41949739.09649 -32320990.07448  19137186.172    19137192.051
       248.000         216.000
  19682016.742   -37520940.24349 -28874749.00747  19682015.824    19682022.576
       242.000         208.000
  21197571.141   -41712235.75049 -32116839.75746  21197571.417    21197578.815
       228.000         179.000
  22136733.288   -16000219.41349 -12108837.23046  22136733.318    22136741.285
       220.000         164.000
  19976222.701   -48835631.80749 -36834226.42147  19976222.099    19976229.431
       240.000         204.000
  20232975.250   -34250834.72649 -25538999.71947  20232975.093    20232981.594
       238.000         202.000
 98  3 19  1 15 59.9950000  0  6G30G10G24G17G 5G 6
  19128533.577   -41995207.33449 -32356419.87648  19128533.712    19128539.601
       249.000         215.000
  19675268.792   -37556400.81949 -28902380.61847  19675267.945    19675274.777
       244.000         208.000
  21201926.389   -41689348.71949 -32099005.72846  21201926.562    21201933.558
       229.000         179.000
  22111797.758   -16131256.30449 -12210943.81846  22111796.732    22111805.617
       222.000         165.000
  19980557.110   -48812854.42849 -36816477.84147  19980556.798    19980563.676
       242.000         203.000
  20211821.345   -34361999.07749 -25625621.26747  20211821.257    20211827.916
       241.000         202.000
 98  3 19  1 16 29.9950000  0  6G30G10G24G17G 5G 6
  19120017.825   -42039957.93749 -32391290.48248  19120018.077    19120023.983
       247.000         215.000
  19668660.985   -37591124.90949 -28929438.34247  19668660.190    19668667.219
       242.000         208.000
  21206312.249   -41666300.77249 -32081046.29146  21206312.615    21206319.901
       227.000         178.000
  22086923.215   -16261972.71049 -12312800.67346  22086922.472    22086930.701
       221.000         165.000
  19984990.169   -48789558.58049 -36798325.26947  19984989.889    19984997.150
       240.000         203.000
  20190711.032   -34472934.37249 -25712064.32847  20190711.072    20190717.599
       238.000         202.000
 98  3 19  1 16 59.9950000  0  6G30G10G24G17G 5G 6
  19111609.830   -42084142.42449 -32425719.96348  19111610.188    19111615.977
       248.000         215.000
  19662163.508   -37625269.33249 -28956044.38147  19662162.848    19662169.543
       242.000         208.000
  21210699.608   -41643245.15049 -32063080.88546  21210698.939    21210707.314
       226.000         177.000
  22062081.827   -16392514.65149 -12414521.59246  22062080.859    22062090.175
       221.000         166.000
  19989496.746   -48765876.31049 -36779871.58947  19989496.430    19989503.745
       240.000         203.000
  20169619.712   -34583769.80149 -25798429.57147  20169619.683    20169626.491
       239.000         202.000
 98  3 19  1 17 29.9950000  0  6G30G10G24G17G 5G 6
  19103326.062   -42127673.81849 -32459640.54048  19103326.292    19103332.325
       248.000         215.000
  19655792.932   -37658747.10549 -28982130.95047  19655792.138    19655799.151
       242.000         208.000
  21215105.524   -41620091.95349 -32045039.45046  21215105.618    21215113.261
       227.000         177.000
  22037289.486   -16522799.08949 -12516041.85646  22037288.563    22037297.651
       223.000         167.000
  19994096.238   -48741705.87649 -36761037.51847  19994095.546    19994102.927
       239.000         202.000
  20148568.998   -34694391.80349 -25884628.50447  20148568.706    20148575.481
       239.000         202.000
 98  3 19  1 17 59.9950000  0  6G30G10G24G17G 5G 6
  19095127.745   -42170756.34549 -32493211.35248  19095127.988    19095133.923
       248.000         215.000
  19649511.882   -37691754.16049 -29007850.72647  19649511.037    19649518.036
       242.000         208.000
  21219493.207   -41597034.85249 -32027072.88046  21219493.141    21219500.758
       227.000         177.000
  22012507.811   -16653027.40249 -12617518.39246  22012506.549    22012515.820
       223.000         167.000
  19998749.693   -48717251.82949 -36741982.45147  19998749.434    19998756.626
       239.000         202.000
  20127519.469   -34805007.76049 -25970822.72547  20127519.258    20127526.109
       239.000         203.000
 98  3 19  1 18 29.9950000  0  6G30G10G24G17G 5G 6
  19087040.193   -42213256.55749 -32526328.41448  19087040.427    19087046.378
       247.000         215.000
  19643341.526   -37724179.29649 -29033117.06247  19643340.858    19643347.795
       242.000         208.000
  21223885.761   -41573951.91049 -32009086.18846  21223885.340    21223893.135
       227.000         178.000
  21987762.801   -16783063.11649 -12718844.85446  21987762.819    21987770.817
       223.000         168.000
  20003479.594   -48692396.26249 -36722614.51347  20003479.409    20003486.786
       239.000         202.000
  20106495.297   -34915490.42549 -26056913.08647  20106495.323    20106502.010
       239.000         203.000
 98  3 19  1 18 59.9950000  0  6G30G10G24G17G 5G 6
  19079051.262   -42255238.73649 -32559041.81548  19079051.557    19079057.417
       248.000         215.000
  19637264.595   -37756113.92749 -29058001.18647  19637263.765    19637270.711
       242.000         207.000
  21228269.763   -41550913.85949 -31991134.47546  21228269.565    21228277.203
       227.000         178.000
  21963041.880   -16912972.11449 -12820072.57846  21963040.973    21963050.627
       223.000         168.000
  20008269.548   -48667224.93549 -36703000.53047  20008269.014    20008276.635
       240.000         201.000
  20085483.147   -35025909.83349 -26142954.15347  20085483.109    20085489.493
       239.000         203.000
 98  3 19  1 19 29.9950000  0  6G30G10G24G17G 5G 6
  19071132.976   -42296849.55449 -32591465.84348  19071133.409    19071139.070
       248.000         215.000
  19631251.265   -37787714.05949 -29082624.65647  19631250.588    19631257.490
       242.000         208.000
  21232617.227   -41528067.78249 -31973332.35146  21232617.275    21232625.047
       227.000         178.000
  21938314.651   -17042914.46149 -12921326.29346  21938313.791    21938322.136
       223.000         167.000
  20013088.085   -48641903.52049 -36683269.59047  20013087.788    20013094.742
       239.000         201.000
  20064452.713   -35136425.45649 -26229070.19447  20064452.668    20064459.229
       239.000         203.000
 98  3 19  1 19 59.9950000  0  6G30G10G24G17G 5G 6
  19063307.601   -42337972.18349 -32623509.45948  19063308.076    19063313.712
       248.000         215.000
  19625323.922   -37818862.46349 -29106896.12947  19625323.092    19625329.947
       242.000         208.000
  21236950.408   -41505296.65549 -31955588.62846  21236950.355    21236957.715
       226.000         177.000
  21913604.428   -17172767.38349 -13022510.31346  21913603.128    21913612.129
       222.000         167.000
  20017953.572   -48616335.33349 -36663346.36147  20017953.509    20017960.511
       238.000         201.000
  20043422.545   -35246939.70849 -26315185.16547  20043422.198    20043429.043
       239.000         204.000
 98  3 19  1 20 29.9950000  0  6G30G10G24G17G 5G 6
  19055577.982   -42378591.50849 -32655160.67848  19055578.138    19055583.885
       248.000         215.000
  19619484.218   -37849549.98449 -29130808.25647  19619483.284    19619490.047
       243.000         207.000
  21241270.881   -41482592.06349 -31937896.53646  21241270.754    21241277.738
       225.000         175.000
  21888911.175   -17302530.70549 -13123624.30646  21888910.513    21888918.701
       225.000         167.000
  20022864.261   -48590529.68649 -36643238.10347  20022864.020    20022871.150
       239.000         200.000
  20022394.292   -35357443.49949 -26401291.76247  20022394.125    20022400.126
       241.000         204.000
 98  3 19  1 20 59.9950000  0  6G30G10G24G17G 5G 6
  19047935.923   -42418750.49649 -32686453.40848  19047936.038    19047941.963
       247.000         215.000
  19613728.920   -37879793.97949 -29154374.99747  19613728.079    19613734.828
       241.000         207.000
  21245570.826   -41459995.39649 -31920288.75146  21245570.228    21245577.858
       225.000         175.000
  21864225.986   -17432251.34549 -13224705.25946  21864224.852    21864233.536
       221.000         167.000
  20027814.046   -48564518.49349 -36622969.67847  20027813.713    20027821.089
       238.000         200.000
  20001358.575   -35467986.64949 -26487429.24947  20001358.468    20001365.030
       240.000         204.000
 98  3 19  1 21 29.9950000  0  6G30G10G24G17G 5G 6
  19040396.115   -42458372.23849 -32717327.51348  19040396.288    19040402.222
       247.000         215.000
  19608078.493   -37909486.96649 -29177512.38347  19608077.620    19608084.657
       242.000         207.000
  21249868.250   -41437412.26649 -31902691.52946  21249867.993    21249875.627
       225.000         175.000
  21839567.059   -17561834.36549 -13325678.97646  21839566.233    21839573.995
       221.000         168.000
  20032821.017   -48538206.87849 -36602467.16447  20032820.817    20032827.795
       239.000         200.000
  19980331.516   -35578484.55049 -26573531.48447  19980331.414    19980337.803
       240.000         205.000
 98  3 19  1 21 59.9950000  0  6G30G10G24G17G 5G 6
  19032966.433   -42497415.46349 -32747750.81848  19032966.681    19032972.576
       249.000         215.000
  19602541.275   -37938585.02649 -29200186.18747  19602540.274    19602547.405
       243.000         207.000
  21254170.541   -41414803.55849 -31885074.36546  21254170.314    21254177.556
       227.000         176.000
  21814944.616   -17691225.59849 -13426503.23946  21814944.158    21814952.296
       223.000         168.000
  20037894.331   -48511546.70849 -36581693.04147  20037894.055    20037901.282
       240.000         200.000
  19959324.707   -35688875.61649 -26659550.46847  19959324.507    19959330.992
       242.000         205.000
 98  3 19  1 22 29.9950000  0  6G30G10G24G17G 5G 6
  19025628.034   -42535979.06849 -32777800.39948  19025628.362    19025634.102
       247.000         215.000
  19597097.886   -37967190.11149 -29222475.86047  19597097.092    19597103.984
       241.000         207.000
  21258456.343   -41392281.55549 -31867524.77946  21258456.507    21258464.031
       225.000         176.000
  21790339.007   -17820528.81049 -13527258.93946  21790338.602    21790346.652
       222.000         168.000
  20043019.552   -48484613.62649 -36560706.26647  20043019.366    20043026.424
       238.000         200.000
  19938322.116   -35799244.90249 -26745552.48747  19938321.917    19938328.603
       240.000         205.000
 98  3 19  1 22 59.9950000  0  6G30G10G24G17G 5G 6
  19018391.878   -42574005.32649 -32807431.26848  19018392.121    19018398.225
       247.000         215.000
  19591761.106   -37995234.85649 -29244328.90847  19591760.217    19591767.270
       242.000         207.000
  21262739.785   -41369771.86749 -31849984.78546  21262739.732    21262746.951
       225.000         176.000
  21765765.156   -17949664.78649 -13627884.30746  21765764.165    21765773.513
       222.000         168.000
  20048213.180   -48457321.18649 -36539439.47347  20048212.791    20048220.013
       238.000         199.000
  19917339.127   -35909511.26249 -26831474.30647  19917338.933    19917345.544
       241.000         205.000
 98  3 19  1 23 29.9940000  0  6G30G10G24G17G 5G 6
  19011278.948   -42611383.91249 -32836557.46148  19011279.275    19011285.261
       248.000         215.000
  19586546.488   -38022637.85649 -29265681.89647  19586545.836    19586552.533
       242.000         207.000
  21267040.997   -41347169.04549 -31832372.22446  21267040.944    21267048.320
       225.000         176.000
  21741242.975   -18078529.13749 -13728298.02846  21741242.191    21741250.332
       222.000         168.000
  20053493.262   -48429574.20949 -36517818.49747  20053492.856    20053500.068
       238.000         199.000
  19896399.693   -36019548.51049 -26917217.59847  19896399.569    19896405.988
       241.000         205.000
 98  3 19  1 23 59.9940000  0  6G30G10G24G17G 5G 6
  19004279.245   -42648167.50049 -32865220.01148  19004279.451    19004285.400
       247.000         215.000
  19581439.222   -38049476.72449 -29286595.29947  19581438.542    19581445.288
       241.000         207.000
  21271346.307   -41324544.76249 -31814742.92846  21271346.473    21271354.566
       224.000         176.000
  21716760.109   -18207187.50249 -13828551.23246  21716759.940    21716767.520
       223.000         169.000
  20058847.604   -48401437.14449 -36495893.55747  20058847.329    20058854.321
       237.000         198.000
  19875491.431   -36129421.93849 -27002833.23547  19875491.114    19875497.704
       240.000         206.000
 98  3 19  1 24 29.9940000  0  6G30G10G24G17G 5G 6
  18997391.591   -42684362.28649 -32893423.75248  18997391.869    18997397.823
       247.000         214.000
  19576437.814   -38075759.42449 -29307075.32347  19576437.015    19576443.922
       242.000         207.000
  21275653.470   -41301910.24549 -31797105.66746  21275653.352    21275660.722
       225.000         175.000
  21692317.387   -18335634.66549 -13928639.85546  21692316.182    21692325.264
       223.000         169.000
  20064273.136   -48372925.86149 -36473677.01447  20064272.523    20064280.074
       237.000         198.000
  19854610.226   -36239153.19149 -27088338.09047  19854610.269    19854616.628
       241.000         206.000
 98  3 19  1 24 59.9940000  0  6G30G10G24G17G 5G 6
  18990614.042   -42719978.50249 -32921176.66348  18990614.341    18990620.230
       247.000         215.000
  19571538.367   -38101506.09349 -29327137.66447  19571537.656    19571544.552
       241.000         207.000
  21279963.686   -41279259.78249 -31779455.99146  21279963.288    21279971.758
       224.000         175.000
  21667914.733   -18463871.04949 -14028564.23746  21667913.765    21667922.384
       221.000         169.000
  20069764.021   -48344071.13849 -36451192.85747  20069763.732    20069770.813
       237.000         197.000
  19833756.168   -36348742.21549 -27173732.11047  19833755.986    19833762.292
       241.000         206.000
 98  3 19  1 25 29.9940000  0  6G30G10G24G17G 5G 6
  18983953.252   -42754981.44749 -32948451.70148  18983953.612    18983959.677
       247.000         214.000
  19566743.653   -38126702.43249 -29346771.17547  19566742.986    19566749.914
       241.000         207.000
  21284280.072   -41256576.98349 -31761781.10546  21284280.090    21284288.116
       224.000         174.000
  21643558.045   -18591865.85949 -14128300.37546  21643557.157    21643566.234
       222.000         169.000
  20075322.173   -48314862.97749 -36428433.29447  20075321.944    20075329.214
       237.000         197.000
  19812931.910   -36458174.33749 -27259003.87847  19812931.803    19812938.379
       240.000         206.000
 98  3 19  1 25 59.9940000  0  6G30G10G24G17G 5G 6
  18977433.118   -42789244.99549 -32975150.57948  18977433.396    18977439.347
       247.000         215.000
  19562080.748   -38151206.22549 -29365865.04247  19562080.014    19562086.929
       241.000         206.000
  21288627.079   -41233733.33349 -31743980.88246  21288627.080    21288634.535
       224.000         174.000
  21619272.607   -18719486.26249 -14227744.77646  21619271.600    21619280.490
       223.000         169.000
  20080970.494   -48285181.09449 -36405304.59247  20080970.034    20080977.407
       237.000         197.000
  19792159.447   -36567334.07049 -27344063.38947  19792159.213    19792165.622
       240.000         206.000
 98  3 19  1 26 29.9940000  0  6G30G10G24G17G 5G 6
  18971011.292   -42822991.90449 -33001446.88448  18971011.542    18971017.537
       247.000         215.000
  19557512.455   -38175212.82849 -29384571.48947  19557511.686    19557518.468
       241.000         206.000
  21292966.343   -41210930.69849 -31726212.61446  21292966.396    21292973.419
       224.000         174.000
  21595014.774   -18846961.74149 -14327076.23446  21595013.683    21595021.748
       223.000         170.000
  20086666.795   -48255246.94049 -36381979.32047  20086666.720    20086673.290
       237.000         197.000
  19771399.566   -36676427.76849 -27429071.45147  19771399.365    19771405.799
       241.000         206.000
 98  3 19  1 26 59.9940000  0  6G30G10G24G17G 5G 6
  18964685.195   -42856235.84249 -33027351.26748  18964685.561    18964691.825
       247.000         215.000
  19553037.194   -38198730.36349 -29402896.84447  19553036.564    19553043.316
       241.000         206.000
  21297296.466   -41188175.82349 -31708481.55946  21297296.598    21297303.780
       225.000         174.000
  21570777.140   -18974331.23449 -14426325.11446  21570776.362    21570785.172
       223.000         170.000
  20092408.249   -48225075.63749 -36358469.25847  20092408.045    20092415.222
       237.000         197.000
  19750650.492   -36785464.79749 -27514035.35647  19750650.609    19750657.068
       241.000         207.000
 98  3 19  1 27 29.9940000  0  6G30G10G24G17G 5G 6
  18958479.150   -42888848.91249 -33052764.05448  18958479.588    18958485.581
       247.000         215.000
  19548680.450   -38221625.02649 -29420736.83547  19548679.801    19548686.544
       242.000         206.000
  21301637.246   -41165364.99349 -31690706.89746  21301637.773    21301644.638
       223.000         173.000
  21546579.821   -19101488.59649 -14525408.68946  21546579.603    21546588.027
       223.000         171.000
  20098218.380   -48194543.52349 -36334678.03547  20098217.753    20098225.315
       237.000         197.000
  19729931.686   -36894342.90549 -27598875.42147  19729931.473    19729938.091
       242.000         207.000
 98  3 19  1 27 59.9940000  0  6G30G10G24G17G 5G 6
  18952383.396   -42920882.26949 -33077725.12248  18952383.758    18952389.722
       248.000         215.000
  19544436.898   -38243925.11249 -29438113.52647  19544436.208    19544443.119
       242.000         206.000
  21305980.033   -41142543.46249 -31672923.89446  21305980.057    21305987.366
       223.000         172.000
  21522413.537   -19228482.81749 -14624365.14346  21522412.734    21522421.328
       222.000         171.000
  20104089.710   -48163689.57249 -36310636.03447  20104089.518    20104096.568
       237.000         197.000
  19709237.689   -37003090.59249 -27683613.85647  19709237.669    19709243.872
       242.000         207.000
 98  3 19  1 28 29.9940000  0  6G30G10G24G17G 5G 6
  18946418.612   -42952227.44449 -33102149.94448  18946418.847    18946424.809
       249.000         214.000
  19540324.189   -38265537.76849 -29454954.55847  19540323.506    19540330.347
       243.000         206.000
  21310344.750   -41119606.81249 -31655051.19446  21310344.795    21310352.629
       224.000         172.000
  21498300.672   -19355196.41449 -14723102.94746  21498300.007    21498308.140
       224.000         172.000
  20110045.149   -48132393.69049 -36286249.67047  20110044.686    20110052.056
       239.000         197.000
  19688592.118   -37111583.68049 -27768153.90747  19688592.011    19688598.115
       243.000         207.000
 98  3 19  1 28 59.9940000  0  6G30G10G24G17G 5G 6
  18940569.095   -42982966.94849 -33126102.81648  18940569.477    18940575.284
       247.000         214.000
  19536318.403   -38286588.32349 -29471357.58947  19536317.679    19536324.516
       242.000         206.000
  21314710.899   -41096662.09649 -31637172.20446  21314710.703    21314717.817
       223.000         171.000
  21474226.518   -19481706.46849 -14821682.15146  21474226.432    21474234.290
       223.000         172.000
  20116068.165   -48100742.66049 -36261586.57147  20116067.936    20116075.328
       237.000         197.000
  19667975.947   -37219922.29349 -27852573.58647  19667975.914    19667982.237
       242.000         207.000
 98  3 19  1 29 29.9940000  0  6G30G10G24G17G 5G 6
  18934841.506   -43013065.65049 -33149556.35148  18934841.732    18934847.715
       247.000         214.000
  19532425.521   -38307045.72249 -29487298.41047  19532424.544    19532431.504
       242.000         206.000
  21319084.522   -41073678.61449 -31619263.00346  21319084.405    21319092.343
       222.000         171.000
  21450203.326   -19607948.77749 -14920052.70546  21450202.174    21450210.539
       223.000         172.000
  20122165.473   -48068701.42849 -36236619.40447  20122164.935    20122172.538
       237.000         197.000
  19647397.941   -37328060.37549 -27936836.99647  19647397.680    19647404.161
       242.000         207.000
 98  3 19  1 29 59.9940000  0  6G30G10G24G17G 5G 6
  18929248.212   -43042458.59749 -33172459.96148  18929248.624    18929254.437
       247.000         214.000
  19528657.876   -38326844.90949 -29502726.34947  19528657.022    19528663.806
       241.000         206.000
  21323482.674   -41050566.32949 -31601253.43246  21323482.900    21323490.204
       222.000         171.000
  21426247.601   -19733836.56349 -15018147.02746  21426246.568    21426255.598
       224.000         172.000
  20128352.180   -48036190.24049 -36211286.04847  20128351.722    20128359.137
       237.000         197.000
  19626875.644   -37435905.67149 -28020872.27247  19626875.507    19626881.901
       241.000         208.000
 98  3 19  1 30 29.9940000  0  6G30G10G24G17G 5G 6
  18923760.455   -43071297.00249 -33194931.45848  18923760.863    18923766.685
       247.000         214.000
  19524983.560   -38346153.47649 -29517771.98647  19524982.706    19524989.624
       241.000         206.000
  21327877.025   -41027474.14949 -31583259.53546  21327876.928    21327884.894
       224.000         171.000
  21402329.805   -19859525.40849 -15116086.32746  21402329.276    21402338.342
       224.000         173.000
  20134600.450   -48003355.54449 -36185700.61447  20134599.637    20134607.444
       236.000         196.000
  19606378.054   -37543620.99949 -28104806.26947  19606377.917    19606384.332
       242.000         208.000
 98  3 19  1 30 59.9940000  0  6G30G10G24G17G 5G 6
  18918383.569   -43099552.85449 -33216949.01448  18918383.785    18918389.824
       248.000         214.000
  19521412.155   -38364921.27349 -29532396.23847  19521411.308    19521418.179
       241.000         206.000
  21332274.866   -41004363.34649 -31565251.11246  21332274.734    21332282.740
       223.000         170.000
  21378454.549   -19984990.55349 -15213851.32246  21378453.984    21378462.609
       224.000         173.000
  20140916.249   -47970166.09049 -36159838.73747  20140916.174    20140923.597
       236.000         195.000
  19585911.857   -37651171.69049 -28188611.97047  19585911.446    19585918.159
       243.000         208.000
 98  3 19  1 31 29.9940000  0  6G30G10G24G17G 5G 6
  18913132.027   -43127150.03749 -33238453.32448  18913132.261    18913138.280
       247.000         214.000
  19517967.670   -38383021.87449 -29546500.59747  19517967.023    19517973.783
       241.000         205.000
  21336694.730   -40981136.86149 -31547152.55646  21336694.874    21336702.481
       223.000         170.000
  21354638.140   -20110146.61049 -15311375.46446  21354636.972    21354646.010
       224.000         174.000
  20147316.401   -47936533.16249 -36133631.29447  20147316.083    20147323.374
       235.000         195.000
  19565497.155   -37758451.51549 -28272206.60447  19565496.898    19565503.389
       243.000         208.000
 98  3 19  1 31 59.9940000  0  6G30G10G24G17G 5G 6
  18908002.450   -43154106.22149 -33259458.15848  18908002.752    18908008.743
       247.000         214.000
  19514648.289   -38400465.28649 -29560092.86647  19514647.601    19514654.453
       242.000         205.000
  21341133.137   -40957812.84149 -31528978.00246  21341132.611    21341140.738
       223.000         170.000
  21330871.824   -20235039.22749 -15408694.32546  21330871.105    21330880.027
       225.000         174.000
  20153795.360   -47902486.06549 -36107101.12547  20153795.258    20153802.281
       235.000         194.000
  19545129.298   -37865485.08449 -28355609.35447  19545129.059    19545135.481
       242.000         208.000
 98  3 19  1 32 29.9940000  0  6G30G10G24G17G 5G 6
  18902981.696   -43180490.39149 -33280017.26648  18902981.888    18902987.749
       247.000         214.000
  19511441.699   -38417316.09149 -29573223.35847  19511440.811    19511447.845
       241.000         205.000
  21345571.343   -40934489.75149 -31510804.16146  21345571.099    21345578.724
       223.000         169.000
  21307140.530   -20359747.70049 -15505869.71746  21307139.474    21307147.822
       224.000         174.000
  20160335.358   -47868118.26149 -36080321.05347  20160334.991    20160342.427
       235.000         194.000
  19524791.928   -37972358.50649 -28438887.31147  19524792.008    19524798.265
       242.000         209.000
 98  3 19  1 32 59.9940000  0  6G30G10G24G17G 5G 6
  18898102.398   -43206131.25349 -33299997.17048  18898102.886    18898108.648
       247.000         214.000
  19508383.809   -38433385.41549 -29585744.90847  19508383.137    19508389.855
       241.000         205.000
  21350042.712   -40910992.41749 -31492494.56746  21350042.563    21350050.663
       223.000         169.000
  21283479.008   -20484089.37349 -15602759.29246  21283477.875    21283486.420
       225.000         175.000
  20166966.103   -47833273.60249 -36053169.40947  20166965.740    20166972.840
       234.000         193.000
  19504519.626   -38078890.22449 -28521899.00847  19504519.652    19504525.880
       243.000         209.000
 98  3 19  1 33 29.9940000  0  6G30G10G24G17G 5G 6
  18893357.188   -43231067.41349 -33319427.96148  18893357.621    18893363.510
       247.000         214.000
  19505462.104   -38448738.97949 -29597708.72147  19505461.420    19505468.049
       240.000         205.000
  21354538.627   -40887366.20249 -31474084.54046  21354538.101    21354546.612
       221.000         169.000
  21259879.139   -20608107.30349 -15699396.59946  21259878.512    21259886.834
       225.000         175.000
  20173676.254   -47798011.54349 -36025692.52247  20173676.055    20173683.336
       234.000         193.000
  19484301.653   -38185136.20249 -28604688.04747  19484301.709    19484308.047
       243.000         209.000
 98  3 19  1 33 59.9940000  0  6G30G10G24G17G 5G 6
  18888712.921   -43255473.35449 -33338445.58948  18888713.266    18888719.337
       247.000         214.000
  19502635.417   -38463593.23049 -29609283.46047  19502634.527    19502641.649
       241.000         205.000
  21359023.272   -40863799.26449 -31455720.69846  21359023.386    21359030.482
       222.000         169.000
  21236308.428   -20731972.27749 -15795914.70546  21236307.660    21236316.551
       226.000         176.000
  20180430.155   -47762519.74549 -35998036.61347  20180429.959    20180437.151
       235.000         192.000
  19464100.137   -38291295.78549 -28687409.76847  19464100.134    19464106.342
       242.000         209.000
 98  3 19  1 34 29.9940000  0  6G30G10G24G17G 5G 6
  18884174.513   -43279322.66549 -33357029.48348  18884174.768    18884180.899
       246.000         214.000
  19499904.502   -38477944.31049 -29620466.11847  19499903.927    19499910.494
       241.000         205.000
  21363503.591   -40840255.25249 -31437374.72746  21363503.274    21363510.952
       222.000         169.000
  21212779.515   -20855617.40549 -15892261.52446  21212778.749    21212787.093
       226.000         176.000
  20187235.571   -47726757.31449 -35970169.82847  20187235.308    20187242.808
       235.000         192.000
  19443922.538   -38397329.54249 -28770033.44547  19443922.363    19443928.854
       243.000         209.000
 98  3 19  1 34 59.9940000  0  6G30G10G24G17G 5G 6
  18879743.983   -43302605.16849 -33375171.69948  18879744.195    18879750.246
       245.000         214.000
  19497267.900   -38491799.76049 -29631262.56247  19497267.013    19497273.792
       241.000         204.000
  21367984.955   -40816705.61349 -31419024.37846  21367984.842    21367992.246
       222.000         168.000
  21189294.641   -20979031.12849 -15988428.01746  21189294.087    21189301.575
       226.000         176.000
  20194096.311   -47690704.12049 -35942076.46647  20194096.028    20194103.025
       234.000         192.000
  19423774.592   -38503207.40649 -28852535.64147  19423774.421    19423780.750
       242.000         209.000
 98  3 19  1 35 29.9940000  0  6G30G10G24G17G 5G 6
  18875477.021   -43325028.21449 -33392644.21648  18875477.399    18875483.546
       245.000         214.000
  19494777.080   -38504888.80749 -29641461.81447  19494776.277    19494783.132
       240.000         204.000
  21372519.321   -40792877.31849 -31400456.88046  21372518.963    21372526.662
       221.000         168.000
  21165906.497   -21101936.36649 -16084198.28446  21165905.568    21165914.517
       225.000         176.000
  20201067.898   -47654068.12749 -35913528.98447  20201067.402    20201074.420
       234.000         191.000
  19403710.364   -38608645.61949 -28934695.26047  19403710.181    19403716.764
       243.000         209.000
 98  3 19  1 35 59.9940000  0  6G30G10G24G17G 5G 6
  18871326.103   -43346841.60749 -33409641.67848  18871326.263    18871332.376
       246.000         214.000
  19492387.590   -38517445.54049 -29651246.27847  19492386.961    19492393.878
       240.000         204.000
  21377056.969   -40769031.96349 -31381876.09846  21377057.161    21377064.569
       221.000         168.000
  21142567.990   -21224580.90249 -16179765.40846  21142567.175    21142575.324
       227.000         176.000
  20208104.726   -47617089.63849 -35884714.61447  20208104.071    20208111.170
       234.000         190.000
  19383684.153   -38713883.98949 -29016699.15647  19383684.015    19383690.327
       243.000         209.000
 98  3 19  1 36 29.9940000  0  6G30G10G24G17G 5G 6
  18867285.092   -43368077.06149 -33426188.79248  18867285.360    18867291.682
       245.000         214.000
  19490097.969   -38529477.67949 -29660621.95847  19490097.176    19490104.060
       240.000         204.000
  21381593.349   -40745193.25749 -31363300.49046  21381593.201    21381601.165
       220.000         168.000
  21119268.497   -21347020.32849 -16275172.69546  21119267.845    21119275.751
       226.000         176.000
  20215202.211   -47579792.07349 -35855651.61247  20215201.927    20215209.122
       233.000         190.000
  19363693.722   -38818934.13949 -29098556.38447  19363693.614    19363700.109
       243.000         210.000
 98  3 19  1 36 59.9940000  0  6G30G10G24G17G 5G 6
  18863339.666   -43388810.50849 -33442344.74448  18863340.121    18863346.156
       245.000         214.000
  19487899.403   -38541031.21949 -29669624.71947  19487898.858    19487905.600
       240.000         204.000
  21386113.756   -40721438.19149 -31344790.06046  21386112.962    21386122.066
       220.000         167.000
  21095987.990   -21469360.00949 -16370502.26846  21095987.911    21095995.279
       226.000         176.000
  20222345.450   -47542254.22349 -35826401.39047  20222345.202    20222352.456
       233.000         190.000
  19343724.298   -38923874.23749 -29180327.87447  19343724.108    19343730.770
       243.000         210.000
 98  3 19  1 37 29.9940000  0  6G30G10G24G17G 5G 6
  18859527.321   -43408844.67049 -33457955.78848  18859527.721    18859533.728
       246.000         214.000
  19485832.718   -38551891.70249 -29678087.42947  19485831.999    19485838.835
       241.000         203.000
  21390658.703   -40697554.08149 -31326179.07746  21390658.475    21390666.255
       220.000         167.000
  21072767.871   -21591382.41649 -16465584.61146  21072767.247    21072774.856
       227.000         176.000
  20229572.543   -47504275.77549 -35796807.83347  20229572.328    20229579.707
       233.000         190.000
  19323813.652   -39028505.23749 -29261858.49847  19323813.602    19323820.019
       243.000         210.000
 98  3 19  1 37 59.9930000  0  6G30G10G24G17G 5G 6
  18855803.564   -43428413.20049 -33473204.00648  18855803.849    18855809.985
       245.000         214.000
  19483855.743   -38562280.63049 -29686182.69447  19483855.018    19483862.048
       240.000         203.000
  21395187.406   -40673755.48849 -31307634.72846  21395187.380    21395195.476
       219.000         166.000
  21049565.856   -21713309.84149 -16560592.94946  21049564.899    21049573.382
       227.000         177.000
  20236838.055   -47466095.41149 -35767056.94847  20236837.709    20236845.324
       233.000         189.000
  19303920.537   -39133043.99449 -29343317.24947  19303920.424    19303926.910
       242.000         210.000
 98  3 19  1 38 29.9930000  0  6G30G10G24G17G 5G 6
  18852188.508   -43447410.67849 -33488007.24948  18852188.981    18852194.747
       246.000         214.000
  19481988.382   -38572093.43149 -29693829.03147  19481987.701    19481994.789
       240.000         203.000
  21399725.737   -40649906.36549 -31289051.01346  21399726.268    21399733.127
       221.000         166.000
  21026403.444   -21835028.89649 -16655438.90546  21026402.424    21026410.906
       225.000         177.000
  20244161.836   -47427608.62549 -35737067.28847  20244161.728    20244168.973
       233.000         189.000
  19284067.600   -39237371.65949 -29424611.52047  19284067.508    19284073.548
       243.000         210.000
 98  3 19  1 38 59.9930000  0  6G30G10G24G17G 5G 6
  18848703.848   -43465722.76149 -33502276.41048  18848704.224    18848710.135
       246.000         214.000
  19480248.984   -38581234.06549 -29700951.59347  19480248.185    19480255.234
       240.000         203.000
  21404292.264   -40625909.07749 -31270351.82746  21404292.257    21404300.038
       220.000         166.000
  21003308.175   -21956394.78149 -16750009.64946  21003307.013    21003316.002
       226.000         177.000
  20251561.940   -47388721.03049 -35706765.30247  20251561.506    20251569.330
       232.000         189.000
  19264275.425   -39341380.10349 -29505657.03747  19264275.450    19264281.669
       243.000         210.000
 98  3 19  1 39 29.9930000  0  6G30G10G24G17G 5G 6
  18845293.708   -43483643.33649 -33516240.51048  18845293.905    18845299.952
       245.000         214.000
  19478575.570   -38590027.87049 -29707803.91047  19478574.683    19478581.767
       239.000         203.000
  21408825.924   -40602084.58449 -31251787.28946  21408826.528    21408834.088
       220.000         166.000
  20980225.358   -22077695.59949 -16844529.72246  20980224.793    20980232.701
       227.000         177.000
  20258980.158   -47349738.04049 -35676388.99247  20258979.630    20258987.207
       233.000         189.000
  19244487.058   -39445368.74649 -29586687.13447  19244486.869    19244493.251
       242.000         210.000
 98  3 19  1 39 59.9930000  0  6G30G10G24G17G 5G 6
  18842002.619   -43500938.08749 -33529716.94648  18842002.663    18842008.750
       247.000         213.000
  19477009.791   -38598255.85849 -29714215.32047  19477008.717    19477016.091
       240.000         203.000
  21413366.039   -40578226.50849 -31233196.58046  21413365.715    21413374.424
       221.000         167.000
  20957196.342   -22198713.63249 -16938829.41946  20957195.875    20957203.324
       227.000         178.000
  20266460.508   -47310428.67849 -35645758.35647  20266460.142    20266467.644
       233.000         189.000
  19224744.947   -39549114.08849 -29667527.63847  19224744.756    19224751.109
       244.000         210.000
 98  3 19  1 40 29.9930000  0  6G30G10G24G17G 5G 6
  18838866.215   -43517419.99149 -33542560.00548  18838866.324    18838872.582
       246.000         213.000
  19475585.464   -38605740.73349 -29720047.69247  19475584.523    19475591.514
       240.000         202.000
  21417945.334   -40554162.42649 -31214445.35146  21417944.925    21417952.719
       220.000         167.000
  20934257.188   -22319259.49149 -17032761.19146  20934256.626    20934264.539
       228.000         178.000
  20274038.025   -47270608.64749 -35614729.81047  20274037.756    20274045.296
       232.000         188.000
  19205083.010   -39652438.12049 -29748039.85747  19205082.808    19205089.171
       243.000         210.000
 98  3 19  1 40 59.9930000  0  6G30G10G24G17G 5G 6
  18835838.103   -43533332.79749 -33554959.61048  18835838.420    18835844.402
       245.000         213.000
  19474255.758   -38612728.23949 -29725492.50247  19474254.944    19474262.079
       239.000         203.000
  21422513.211   -40530157.79949 -31195740.45346  21422513.552    21422520.653
       220.000         166.000
  20911358.757   -22439591.42149 -17126526.27146  20911358.028    20911366.496
       227.000         179.000
  20281667.435   -47230515.84149 -35583488.71047  20281667.324    20281674.479
       231.000         188.000
  19185451.113   -39755604.36749 -29828429.12347  19185451.079    19185457.220
       243.000         210.000
 98  3 19  1 41 29.9930000  0  6G30G10G24G17G 5G 6
  18832942.250   -43548550.64049 -33566817.68648  18832942.545    18832948.526
       245.000         213.000
  19473047.521   -38619077.76449 -29730440.18947  19473047.110    19473053.711
       240.000         203.000
  21427098.055   -40506064.32549 -31176966.31346  21427098.518    21427106.953
       219.000         166.000
  20888522.423   -22559596.89049 -17220036.97546  20888521.577    20888529.535
       228.000         179.000
  20289374.204   -47190016.89149 -35551931.13447  20289373.939    20289381.780
       231.000         188.000
  19165873.906   -39858482.90349 -29908594.20247  19165873.942    19165880.176
       243.000         210.000
 98  3 19  1 41 59.9930000  0  6G30G10G24G17G 5G 6
  18830145.787   -43563246.23349 -33578268.81148  18830146.201    18830152.296
       245.000         213.000
  19471932.911   -38624935.22849 -29735004.44547  19471932.242    19471939.208
       239.000         203.000
  21431674.833   -40482013.38649 -31158225.32246  21431674.730    21431683.365
       219.000         165.000
  20865716.598   -22679442.12649 -17313422.80946  20865715.915    20865724.297
       227.000         179.000
  20297126.676   -47149277.46749 -35520186.16846  20297126.452    20297133.814
       231.000         187.000
  19146322.222   -39961227.82649 -29988655.16247  19146322.017    19146328.594
       244.000         210.000
 98  3 19  1 42 29.9930000  0  6G30G10G24G17G 5G 6
  18827455.279   -43577384.93649 -33589285.99648  18827455.624    18827461.610
       245.000         213.000
  19470921.549   -38630249.97349 -29739145.79847  19470921.102    19470927.967
       239.000         203.000
  21436254.301   -40457947.98149 -31139473.05246  21436254.030    21436262.517
       218.000         164.000
  20842948.909   -22799086.98749 -17406652.51146  20842948.327    20842956.270
       228.000         180.000
  20304929.758   -47108272.31549 -35488234.14046  20304929.240    20304937.090
       231.000         187.000
  19126804.945   -40063791.69949 -30068575.04447  19126804.899    19126811.260
       244.000         211.000
 98  3 19  1 42 59.9930000  0  6G30G10G24G17G 5G 6
  18824869.627   -43590972.67849 -33599873.86348  18824869.914    18824875.923
       245.000         213.000
  19470013.164   -38635023.67849 -29742865.56447  19470012.311    19470019.147
       240.000         202.000
  21440838.156   -40433859.68349 -31120702.95246  21440837.497    21440845.527
       218.000         164.000
  20820220.305   -22918526.65349 -17499722.33746  20820219.442    20820227.824
       228.000         181.000
  20312784.172   -47066996.93649 -35456071.55446  20312783.832    20312791.082
       230.000         186.000
  19107323.757   -40166165.98149 -30148347.19547  19107323.845    19107329.977
       245.000         211.000
 98  3 19  1 43 29.9930000  0  6G30G10G24G17G 5G 6
  18822366.362   -43604127.43849 -33610124.33548  18822366.557    18822372.710
       245.000         213.000
  19469183.201   -38639384.97249 -29746263.95847  19469182.186    19469189.282
       240.000         202.000
  21445405.005   -40409860.87949 -31102002.58346  21445405.285    21445412.109
       219.000         163.000
  20797508.236   -23037878.95149 -17592724.06746  20797507.375    20797516.126
       228.000         180.000
  20320664.961   -47025583.13649 -35423801.10046  20320664.447    20320671.873
       230.000         185.000
  19087857.306   -40268463.04949 -30228059.17047  19087857.121    19087863.559
       245.000         211.000
 98  3 19  1 43 59.9930000  0  6G30G10G24G17G 5G 6
  18819962.172   -43616761.52449 -33619969.10348  18819962.521    18819968.487
       245.000         213.000
  19468443.558   -38643271.68449 -29749292.56947  19468442.598    19468449.482
       239.000         202.000
  21449968.796   -40385877.91349 -31083314.55646  21449968.336    21449976.677
       217.000         163.000
  20774830.367   -23157051.59249 -17685585.82046  20774829.545    20774837.498
       228.000         181.000
  20328587.307   -46983951.22349 -35391360.70146  20328586.672    20328594.523
       230.000         185.000
  19068424.681   -40370582.16449 -30307632.49347  19068424.574    19068430.473
       245.000         211.000
 98  3 19  1 44 29.9930000  0  6G30G10G24G17G 5G 6
  18817711.926   -43628586.64149 -33629183.49448  18817712.459    18817718.464
       247.000         213.000
  19467844.708   -38646418.74749 -29751744.81747  19467844.062    19467850.871
       241.000         202.000
  21454577.000   -40361661.42449 -31064444.55845  21454576.716    21454584.787
       219.000         162.000
  20752240.991   -23275759.24349 -17778085.23446  20752240.753    20752249.075
       230.000         181.000
  20336605.277   -46941816.60049 -35358528.57446  20336604.741    20336613.163
       232.000         185.000
  19049077.731   -40472251.02549 -30386854.95847  19049077.708    19049084.051
       246.000         212.000
 98  3 19  1 44 59.9930000  0  6G30G10G24G17G 5G 6
  18815577.485   -43639803.39249 -33637923.84148  18815577.996    18815584.091
       245.000         213.000
  19467347.926   -38649029.45349 -29753779.13347  19467347.276    19467354.193
       239.000         202.000
  21459188.374   -40337428.41749 -31045561.70045  21459188.153    21459195.690
       219.000         162.000
  20729701.696   -23394203.75949 -17870379.61546  20729700.227    20729709.019
       227.000         181.000
  20344682.742   -46899369.44649 -35325452.92646  20344683.189    20344690.442
       230.000         185.000
  19029778.970   -40573666.64849 -30465880.10647  19029778.928    19029785.219
       245.000         212.000
 98  3 19  1 45 29.9930000  0  6G30G10G24G17G 5G 6
  18813530.370   -43650561.11949 -33646306.49948  18813530.684    18813537.002
       245.000         213.000
  19466925.140   -38651251.14449 -29755510.31347  19466924.479    19466931.195
       239.000         201.000
  21463772.378   -40313339.08249 -31026790.78245  21463772.400    21463779.927
       218.000         161.000
  20707183.037   -23512539.48149 -17962589.21246  20707182.216    20707190.924
       228.000         181.000
  20352788.109   -46856775.74049 -35292263.06746  20352787.329    20352795.221
       230.000         185.000
  19010500.872   -40674973.48949 -30544820.47547  19010500.894    19010506.959
       245.000         212.000
 98  3 19  1 45 59.9930000  0  6G30G10G24G17G 5G 6
  18811589.085   -43660762.63149 -33654255.74648  18811589.348    18811595.413
       245.000         213.000
  19466599.074   -38652964.49049 -29756845.37647  19466598.334    19466605.459
       239.000         201.000
  21468345.516   -40289307.08849 -31008064.55145  21468345.134    21468353.611
       218.000         161.000
  20684706.047   -23630656.80249 -18054628.62946  20684705.426    20684713.463
       230.000         181.000
  20360942.493   -46813924.35849 -35258872.43446  20360941.713    20360949.681
       229.000         184.000
  18991264.054   -40776063.73549 -30623592.07347  18991263.932    18991270.360
       244.000         212.000
 98  3 19  1 46 29.9930000  0  6G30G10G24G17G 5G 6
  18809759.963   -43670374.85049 -33661745.80148  18809760.344    18809766.403
       245.000         213.000
  19466383.157   -38654099.10549 -29757729.48147  19466382.334    19466389.195
       238.000         201.000
  21472916.199   -40265287.95349 -30989348.34345  21472916.999    21472923.765
       217.000         161.000
  20662279.621   -23748508.25749 -18146460.88346  20662278.552    20662286.855
       228.000         182.000
  20369155.399   -46770765.34149 -35225242.08446  20369155.127    20369162.497
       228.000         183.000
  18972075.005   -40876902.73949 -30702167.89847  18972074.846    18972081.103
       244.000         212.000
 98  3 19  1 46 59.9930000  0  6G30G10G24G17G 5G 6
  18808072.006   -43679245.21049 -33668657.78848  18808072.302    18808078.500
       245.000         213.000
  19466306.809   -38654500.16949 -29758041.99247  19466305.797    19466313.058
       238.000         200.000
  21477518.236   -40241104.19249 -30970503.83845  21477518.034    21477525.814
       219.000         161.000
  20639935.511   -23865927.09449 -18237956.01046  20639934.511    20639943.504
       230.000         182.000
  20377453.540   -46727158.64849 -35191262.89846  20377453.502    20377460.784
       229.000         183.000
  18952964.514   -40977328.74249 -30780421.90647  18952964.306    18952970.720
       245.000         212.000
 98  3 19  1 47 29.9930000  0  6G30G10G24G17G 5G 6
  18806486.987   -43687574.57949 -33675148.22448  18806487.390    18806493.370
       244.000         213.000
  19466329.236   -38654382.34349 -29757950.17447  19466328.461    19466335.129
       238.000         200.000
  21482115.251   -40216946.45849 -30951679.63045  21482115.651    21482123.279
       219.000         161.000
  20617634.900   -23983117.49049 -18329273.14946  20617634.539    20617642.094
       230.000         182.000
  20385797.104   -46683313.30949 -35157097.75046  20385797.296    20385804.617
       230.000         183.000
  18933892.275   -41077553.87649 -30858519.39247  18933892.229    18933898.303
       245.000         212.000
 98  3 19  1 47 59.9930000  0  6G30G10G24G17G 5G 6
  18804999.098   -43695393.54549 -33681240.94748  18804999.520    18805005.467
       246.000         213.000
  19466444.616   -38653775.95749 -29757477.65747  19466443.851    19466450.840
       239.000         200.000
  21486706.060   -40192821.70749 -30932881.11245  21486706.493    21486713.916
       219.000         161.000
  20595372.785   -24100105.51049 -18420432.60146  20595372.280    20595380.122
       231.000         182.000
  20394181.333   -46639254.23749 -35122766.05646  20394181.472    20394188.672
       231.000         182.000
  18914853.243   -41177604.76149 -30936481.10247  18914853.190    18914859.630
       246.000         212.000
 98  3 19  1 48 29.9930000  0  6G30G10G24G17G 5G 6
  18803602.011   -43702735.30149 -33686961.81148  18803602.307    18803608.319
       245.000         213.000
  19466642.127   -38652737.99149 -29756668.84447  19466641.235    19466648.241
       238.000         200.000
  21491289.866   -40168733.54249 -30914111.10045  21491290.169    21491297.893
       218.000         161.000
  20573141.748   -24216930.30749 -18511464.85646  20573141.111    20573149.510
       230.000         183.000
  20402595.408   -46595038.27949 -35088312.11646  20402595.777    20402602.964
       230.000         182.000
  18895841.272   -41277513.10649 -31014331.73648  18895841.131    18895847.313
       245.000         213.000
 98  3 19  1 48 59.9930000  0  6G30G10G24G17G 5G 6
  18802314.563   -43709500.90949 -33692233.73047  18802315.028    18802321.006
       244.000         212.000
  19466937.435   -38651185.79749 -29755459.33147  19466936.740    19466943.539
       238.000         200.000
  21495886.446   -40144578.40849 -30895288.92045  21495886.617    21495894.720
       216.000         161.000
  20550957.638   -24333508.42349 -18602304.89946  20550957.368    20550964.851
       230.000         183.000
  20411056.716   -46550573.98649 -35053664.67146  20411056.969    20411064.684
       229.000         182.000
  18876876.180   -41377175.12649 -31091990.43048  18876876.231    18876882.382
       244.000         213.000
 98  3 19  1 49 29.9930000  0  6G30G10G24G17G 5G 6
  18801135.961   -43715694.61649 -33697060.00947  18801136.214    18801142.334
       245.000         212.000
  19467332.524   -38649109.61249 -29753841.51547  19467332.016    19467338.646
       238.000         200.000
  21500495.578   -40120357.62449 -30876415.57345  21500495.537    21500502.884
       216.000         161.000
  20528817.455   -24449855.67549 -18692965.03546  20528816.766    20528825.094
       231.000         184.000
  20419568.864   -46505842.42649 -35018808.96446  20419568.557    20419576.189
       229.000         181.000
  18857961.396   -41476573.03949 -31169443.32948  18857961.485    18857967.685
       245.000         213.000
 98  3 19  1 49 59.9930000  0  6G30G10G24G17G 5G 6
  18800050.379   -43721399.64749 -33701505.50447  18800050.756    18800056.867
       245.000         212.000
  19467813.572   -38646581.89649 -29751871.85747  19467812.944    19467819.966
       238.000         200.000
  21505101.767   -40096151.98149 -30857554.02745  21505101.848    21505108.425
       217.000         160.000
  20506706.978   -24566046.63649 -18783503.39646  20506706.353    20506714.353
       231.000         184.000
  20428117.946   -46460916.94849 -34983802.14946  20428117.289    20428125.621
       231.000         181.000
  18839084.817   -41575770.29949 -31246739.87348  18839084.783    18839090.893
       245.000         213.000
 98  3 19  1 50 29.9930000  0  6G30G10G24G17G 5G 6
  18799093.155   -43726429.88949 -33705425.18347  18799093.458    18799099.590
       245.000         212.000
  19468414.331   -38643424.78649 -29749411.76047  19468413.638    19468420.615
       238.000         200.000
  21509735.130   -40071803.77749 -30838581.39545  21509735.110    21509742.651
       216.000         160.000
  20484658.928   -24681909.58649 -18873786.15546  20484658.146    20484666.491
       231.000         184.000
  20436741.716   -46415599.08749 -34948489.57746  20436741.358    20436749.110
       230.000         181.000
  18820281.125   -41674584.31549 -31323737.78148  18820280.841    18820287.253
       245.000         213.000
 98  3 19  1 50 59.9930000  0  6G30G10G24G17G 5G 6
  18798252.523   -43730847.62349 -33708867.58647  18798252.810    18798258.932
       245.000         212.000
  19469123.531   -38639697.63749 -29746507.48047  19469122.647    19469129.571
       238.000         199.000
  21514379.263   -40047398.58749 -30819564.36945  21514379.705    21514386.789
       217.000         159.000
  20462663.651   -24797495.40649 -18963852.97546  20462662.643    20462671.107
       231.000         184.000
  20445433.017   -46369926.12349 -34912900.31346  20445432.701    20445440.416
       230.000         181.000
  18801539.056   -41773074.52349 -31400483.37548  18801538.955    18801545.232
       245.000         213.000
 98  3 19  1 51 29.9930000  0  7G30G10G24G17G13G 5G 6
  18797493.612   -43734835.75149 -33711975.23947  18797493.886    18797499.858
       245.000         212.000
  19469903.089   -38635601.09149 -29743315.36847  19469902.197    19469909.214
       238.000         200.000
  21518996.672   -40023134.13149 -30800656.99445  21518996.449    21519004.572
       215.000         159.000
  20440687.578   -24912980.02049 -19053840.94646  20440686.927    20440693.770
       231.000         184.000
  22402529.089   -11730266.19649  -7666204.16845  22402529.492    22402533.961
       207.000         134.000
  20454153.498   -46324100.01449 -34877191.71746  20454153.544    20454160.832
       229.000         181.000
  18782820.791   -41871439.52449 -31477131.41448  18782820.634    18782826.723
       244.000         214.000
 98  3 19  1 51 59.9930000  0  7G30G10G24G17G13G 5G 6
  18796822.271   -43738363.66449 -33714724.27747  18796822.501    18796828.754
       244.000         212.000
  19470756.640   -38631115.69249 -29739820.24747  19470756.006    19470762.851
       238.000         199.000
  21523591.201   -39998989.71749 -30781843.16845  21523591.308    21523598.489
       216.000         159.000
  20418738.145   -25028324.76949 -19143719.91746  20418737.592    20418745.855
       231.000         185.000
  22390353.439   -11794249.89849  -7716061.56345  22390354.560    22390360.274
       212.000         138.000
  20462903.855   -46278116.77149 -34841360.67946  20462903.077    20462911.284
       228.000         180.000
  18764128.795   -41969666.35749 -31553671.78148  18764128.604    18764134.913
       244.000         214.000
 98  3 19  1 52 29.9930000  0  7G30G10G24G17G13G 5G 6
  18796265.295   -43741290.43049 -33717004.88647  18796265.606    18796271.820
       244.000         212.000
  19471710.924   -38626100.97049 -29735912.66147  19471710.066    19471717.049
       237.000         199.000
  21528190.923   -39974818.09649 -30763008.13145  21528190.784    21528198.119
       216.000         159.000
  20396845.213   -25143372.81949 -19233367.68546  20396844.438    20396852.499
       230.000         185.000
  22378278.351   -11857705.77749  -7765507.63145  22378279.010    22378284.611
       211.000         139.000
  20471708.965   -46231845.88649 -34805305.49346  20471708.971    20471716.921
       229.000         180.000
  18745491.975   -42067603.34349 -31629986.28648  18745491.796    18745498.046
       245.000         214.000
 98  3 19  1 52 59.9920000  0  7G30G10G24G17G13G 5G 6
  18795816.863   -43743647.05549 -33718841.23747  18795817.266    18795823.433
       244.000         211.000
  19472762.824   -38620573.20449 -29731605.30847  19472761.947    19472768.664
       238.000         199.000
  21532792.699   -39950635.22749 -30744164.34145  21532792.328    21532800.587
       216.000         159.000
  20375005.401   -25258141.52849 -19322797.79646  20375004.708    20375012.751
       230.000         185.000
  22366295.615   -11920676.11449  -7814575.37545  22366294.806    22366301.778
       206.000         139.000
  20480558.053   -46185343.94449 -34769070.27046  20480557.855    20480565.686
       229.000         179.000
  18726905.314   -42165276.67649 -31706095.36248  18726905.293    18726911.242
       245.000         214.000
 98  3 19  1 53 29.9920000  0  7G30G10G24G17G13G 5G 6
  18795462.915   -43745507.12549 -33720290.65747  18795463.242    18795469.600
       245.000         211.000
  19473902.783   -38614582.76449 -29726937.42847  19473902.178    19473909.068
       239.000         199.000
  21537384.078   -39926507.28049 -30725363.34345  21537383.650    21537391.709
       216.000         159.000
  20353201.718   -25372720.61749 -19412080.13246  20353201.432    20353209.067
       230.000         185.000
  22354389.536   -11983241.17649  -7863327.30945  22354390.617    22354396.548
       208.000         138.000
  20489435.999   -46138690.51049 -34732717.00646  20489436.538    20489443.327
       229.000         179.000
  18708356.057   -42262753.73649 -31782051.48948  18708356.025    18708362.114
       245.000         214.000
 98  3 19  1 53 59.9920000  0  7G30G10G24G17G13G 5G 6
  18795211.555   -43746827.95049 -33721319.88847  18795211.806    18795218.005
       244.000         211.000
  19475142.553   -38608067.79849 -29721860.82647  19475142.090    19475148.640
       238.000         199.000
  21541972.286   -39902395.99449 -30706575.32745  21541972.273    21541979.582
       215.000         158.000
  20331442.564   -25487065.75149 -19501180.17146  20331441.926    20331449.801
       230.000         185.000
  22342570.380   -12045351.39449  -7911724.82445  22342570.790    22342575.935
       207.000         136.000
  20498353.965   -46091826.37849 -34696199.54746  20498353.625    20498361.669
       228.000         179.000
  18689857.446   -42359964.62749 -31857800.20948  18689857.271    18689863.413
       245.000         214.000
 98  3 19  1 54 29.9920000  0  7G30G10G24G17G13G 5G 6
  18795060.143   -43747623.58749 -33721939.87747  18795060.380    18795066.581
       244.000         211.000
  19476478.946   -38601045.10449 -29716388.59047  19476478.355    19476485.240
       238.000         198.000
  21546553.707   -39878320.07249 -30687814.84945  21546553.342    21546560.630
       216.000         157.000
  20309723.862   -25601198.35949 -19590114.60446  20309722.831    20309731.281
       230.000         185.000
  22330837.107   -12107011.33849  -7959771.48745  22330836.164    22330841.048
       207.000         133.000
  20507311.816   -46044753.00349 -34659519.05446  20507311.214    20507319.068
       228.000         179.000
  18671408.625   -42456913.62249 -31933344.85448  18671408.343    18671414.648
       245.000         214.000
 98  3 19  1 54 59.9920000  0  7G30G10G24G17G13G 5G 6
  18795010.703   -43747883.24449 -33722142.22247  18795011.005    18795017.363
       244.000         211.000
  19477910.981   -38593519.51549 -29710524.49547  19477909.954    19477917.401
       237.000         198.000
  21551126.997   -39854287.15249 -30669087.89745  21551127.065    21551134.218
       216.000         157.000
  20288044.768   -25715122.67949 -19678886.73746  20288043.999    20288051.769
       230.000         185.000
  22319193.731   -12168194.64249  -8007446.73644  22319194.563    22319201.742
       201.000         130.000
  20516311.581   -45997459.08449 -34622666.70446  20516311.583    20516319.172
       227.000         178.000
  18653006.303   -42553618.25349 -32008699.08848  18653006.213    18653012.475
       245.000         214.000
 98  3 19  1 55 29.9920000  0  8G30G10G26G24G17G13G 5G 6
  18795065.514   -43747595.55249 -33721918.06847  18795065.837    18795071.855
       244.000         211.000
  19479436.147   -38585504.51849 -29704279.04047  19479435.507    19479442.201
       238.000         198.000
  22306457.818    -7724577.67049  -5367627.35845  22306457.521    22306467.232
       206.000         141.000
  21555693.769   -39830288.58749 -30650387.70845  21555693.744    21555701.322
       215.000         157.000
  20266409.628   -25828815.57649 -19767478.54446  20266408.607    20266416.947
       230.000         186.000
  22307645.394   -12228881.06249  -8054734.80044  22307646.498    22307652.201
       205.000         126.000
  20525357.968   -45949920.02649 -34585623.34346  20525358.060    20525365.331
       227.000         177.000
  18634654.613   -42650057.02849 -32083846.16648  18634654.717    18634660.616
       245.000         214.000
 98  3 19  1 55 59.9920000  0  8G30G10G26G24G17G13G 5G 6
  18795214.843   -43746810.91549 -33721306.68047  18795215.433    18795221.324
       244.000         211.000
  19481040.341   -38577074.59349 -29697710.26647  19481039.697    19481046.627
       238.000         198.000
  22280586.467    -7860532.40049  -5473565.98145  22280587.081    22280595.708
       205.000         142.000
  21560246.816   -39806361.87249 -30631743.50545  21560247.112    21560253.622
       215.000         156.000
  20244811.912   -25942311.62749 -19855916.94846  20244811.319    20244819.124
       230.000         186.000
  22296180.646   -12289128.71549  -8101680.98744  22296180.785    22296185.327
       204.000         122.000
  20534439.763   -45902194.87549 -34548434.97346  20534439.224    20534447.306
       227.000         177.000
  18616342.768   -42746286.35849 -32158830.03148  18616342.644    18616348.765
       245.000         214.000
 98  3 19  1 56 29.9920000  0  8G30G10G26G24G17G13G 5G 6
  18795444.595   -43745603.65049 -33720365.97147  18795445.044    18795451.051
       244.000         211.000
  19482707.859   -38568311.87149 -29690882.16147  19482707.352    19482713.675
       238.000         198.000
  22254698.527    -7996574.13449  -5579572.41145  22254698.713    22254707.614
       205.000         142.000
  21564776.003   -39782560.84549 -30613197.23345  21564775.686    21564783.981
       215.000         156.000
  20223238.807   -26055678.54649 -19944254.73646  20223237.894    20223245.913
       230.000         186.000
  22284786.884   -12349003.06849  -8148336.30444  22284787.952    22284793.422
       209.000         125.000
  20543541.482   -45854365.48349 -34511165.36746  20543540.923    20543549.016
       228.000         177.000
  18598054.902   -42842389.50649 -32233715.57448  18598054.735    18598060.894
       245.000         214.000
 98  3 19  1 56 59.9920000  0  8G30G10G26G24G17G13G 5G 6
  18795777.913   -43743852.05549 -33719001.10547  18795778.323    18795784.643
       244.000         211.000
  19484463.493   -38559085.91249 -29683693.09647  19484462.817    19484469.378
       237.000         197.000
  22228818.179    -8132576.10049  -5685547.83845  22228818.079    22228826.861
       208.000         145.000
  21569307.368   -39758748.33449 -30594642.00845  21569307.889    21569314.520
       216.000         156.000
  20201716.868   -26168776.60549 -20032383.01346  20201716.273    20201723.906
       231.000         187.000
  22273487.313   -12408383.20249  -8194606.49544  22273488.715    22273493.998
       208.000         127.000
  20552685.386   -45806314.19449 -34473722.85346  20552685.192    20552692.324
       226.000         177.000
  18579815.833   -42938236.48449 -32308401.50548  18579815.751    18579821.738
       245.000         214.000
 98  3 19  1 57 29.9920000  0  8G30G10G26G24G17G13G 5G 6
  18796213.322   -43741564.15949 -33717218.34847  18796213.712    18796220.013
       244.000         211.000
  19486309.894   -38549382.96749 -29676132.35047  19486309.209    19486315.799
       238.000         197.000
  22202942.440    -8268553.44449  -5791504.06845  22202941.463    22202951.510
       207.000         147.000
  21573844.579   -39734905.26049 -30576062.96945  21573844.288    21573851.934
       216.000         156.000
  20180246.829   -26281602.02549 -20120298.85646  20180246.096    20180253.924
       231.000         187.000
  22262278.576   -12467286.27749  -8240504.97744  22262279.924    22262283.425
       209.000         128.000
  20561869.995   -45758048.57849 -34436113.34246  20561870.024    20561877.461
       227.000         177.000
  18561630.332   -43033801.70249 -32382867.88648  18561630.041    18561636.394
       245.000         214.000
 98  3 19  1 57 59.9920000  0  8G30G10G26G24G17G13G 5G 6
  18796751.935   -43738734.01949 -33715013.06147  18796752.259    18796758.561
       244.000         210.000
  19488252.155   -38539176.45349 -29668179.20947  19488251.414    19488257.944
       237.000         197.000
  22177071.052    -8404507.58449  -5897442.18045  22177070.663    22177080.606
       211.000         148.000
  21578390.609   -39711015.70349 -30557447.71745  21578389.772    21578398.502
       215.000         156.000
  20158828.152   -26394157.90649 -20208004.66346  20158827.424    20158835.177
       232.000         187.000
  22251162.086   -12525703.96649  -8286025.21444  22251161.491    22251168.506
       209.000         131.000
  20571096.422   -45709563.46549 -34398332.79946  20571095.927    20571103.980
       226.000         176.000
  18543498.324   -43129085.92049 -32457115.30148  18543498.173    18543504.244
       245.000         214.000
 98  3 19  1 58 29.9920000  0  9G30G10G26G24G17G13G 5G23G 6
  18797378.651   -43735440.69849 -33712446.85447  18797379.005    18797385.109
       245.000         210.000
  19490276.458   -38528538.54749 -29659889.92747  19490275.913    19490282.454
       238.000         197.000
  22151190.461    -8540511.33649  -6003418.98345  22151190.990    22151199.523
       216.000         150.000
  21582928.788   -39687167.21649 -30538864.46945  21582927.970    21582936.428
       215.000         156.000
  20137443.621   -26506534.31249 -20295570.61846  20137442.778    20137450.509
       233.000         187.000
  22240124.505   -12583706.25449  -8331221.76545  22240127.120    22240129.873
       208.000         132.000
  20580350.305   -45660934.20149 -34360439.91346  20580349.800    20580358.439
       227.000         175.000
  22414843.876    -5716630.21949  -4430835.90545  22414843.257    22414853.947
       205.000         141.000
  18525404.787   -43224167.88949 -32531205.12548  18525404.619    18525410.680
       246.000         214.000
 98  3 19  1 58 59.9920000  0  9G30G10G26G24G17G13G 5G23G 6
  18798112.390   -43731584.90649 -33709442.35847  18798112.807    18798118.781
       244.000         210.000
  19492403.139   -38517362.76349 -29651181.51147  19492402.371    19492409.001
       236.000         196.000
  22125320.789    -8676457.95549  -6109351.30245  22125320.699    22125328.700
       216.000         151.000
  21587477.799   -39663262.13449 -30520237.11845  21587477.440    21587485.329
       216.000         156.000
  20116112.368   -26618630.43749 -20382918.16246  20116111.886    20116119.061
       231.000         187.000
  22229186.906   -12641183.58649  -8376009.24745  22229187.274    22229191.702
       210.000         132.000
  20589650.588   -45612061.01949 -34322356.98246  20589649.902    20589658.135
       225.000         175.000
  22384698.293    -5875045.97049  -4554276.66945  22384697.267    22384707.679
       205.000         142.000
  18507370.846   -43318936.61749 -32605050.86348  18507370.604    18507376.920
       245.000         214.000
 98  3 19  1 59 29.9920000  0  9G30G10G26G24G17G13G 5G23G 6
  18798951.469   -43727175.56749 -33706006.52447  18798951.747    18798957.857
       244.000         210.000
  19494629.632   -38505662.28249 -29642064.24547  19494628.869    19494635.820
       236.000         196.000
  22099459.294    -8812360.87749  -6215249.54745  22099458.893    22099467.047
       211.000         149.000
  21592034.951   -39639314.04149 -30501576.26145  21592034.675    21592042.677
       215.000         156.000
  20094829.353   -26730473.32149 -20470068.37847  20094828.480    20094836.736
       231.000         188.000
  22218348.340   -12698139.47549  -8420390.42045  22218350.766    22218354.497
       205.000         132.000
  20598995.188   -45562954.83049 -34284092.47446  20598994.913    20599002.668
       225.000         174.000
  22354572.898    -6033355.98849  -4677635.06045  22354572.232    22354583.238
       209.000         143.000
  18489393.282   -43413409.26949 -32678665.89448  18489393.159    18489399.285
       245.000         214.000
 98  3 19  1 59 59.9920000  0  9G30G10G26G24G17G13G 5G23G 6
  18799873.345   -43722330.98449 -33702231.54047  18799873.518    18799879.874
       244.000         210.000
  19496931.392   -38493566.23949 -29632638.74747  19496930.376    19496937.283
       236.000         196.000
  22073587.213    -8948318.01249  -6321190.02745  22073587.134    22073596.097
       214.000         148.000
  21596573.219   -39615465.54449 -30482992.99445  21596573.443    21596580.440
       216.000         156.000
  20073571.053   -26842186.18649 -20557117.28247  20073570.676    20073578.186
       231.000         188.000
  22207589.076   -12754678.65649  -8464446.85544  22207588.996    22207595.568
       205.000         131.000
  20608360.668   -45513739.08749 -34245742.60146  20608360.549    20608368.585
       225.000         174.000
  22324443.401    -6191687.45649  -4801010.16945  22324443.359    22324452.619
       208.000         144.000
  18471449.162   -43507706.11849 -32752143.94248  18471449.052    18471455.412
       245.000         215.000
 98  3 19  2  0 29.9920000  0  9G30G10G26G24G17G13G 5G23G 6
  18800900.859   -43716931.32349 -33698024.02447  18800901.207    18800907.371
       244.000         210.000
  19499328.612   -38480968.73549 -29622822.49447  19499327.726    19499334.614
       237.000         196.000
  22047729.460    -9084201.41649  -6427073.08645  22047730.274    22047737.683
       217.000         151.000
  21601111.729   -39591615.93649 -30464408.87145  21601112.451    21601119.776
       216.000         157.000
  20052361.343   -26953643.32449 -20643966.91947  20052360.210    20052368.575
       231.000         188.000
  22196934.039   -12810670.56149  -8508076.87144  22196933.832    22196940.333
       202.000         130.000
  20617770.207   -45464292.00749 -34207212.45246  20617769.655    20617778.197
       225.000         173.000
  22294332.831    -6349919.22949  -4924307.58245  22294332.625    22294343.559
       208.000         143.000
  18453564.179   -43601692.27949 -32825379.88548  18453564.123    18453570.392
       245.000         215.000
 98  3 19  2  0 59.9920000  0  9G30G10G26G24G17G13G 5G23G 6
  18802007.604   -43711115.47849 -33693492.21047  18802007.951    18802014.309
       244.000         210.000
  19501792.643   -38468019.95349 -29612732.52547  19501791.960    19501798.775
       236.000         196.000
  22021858.350    -9220155.08749  -6533010.89545  22021858.005    22021867.168
       216.000         150.000
  21605623.047   -39567908.42349 -30445935.49645  21605622.319    21605630.234
       215.000         156.000
  20031174.796   -27064978.76649 -20730721.73447  20031174.027    20031182.001
       232.000         188.000
  22186356.418   -12866256.00949  -8551390.16744  22186358.594    22186362.668
       204.000         131.000
  20627197.400   -45414751.84649 -34168609.78646  20627197.169    20627205.240
       225.000         173.000
  22264213.871    -6508195.09549  -5047639.37345  22264213.046    22264223.848
       208.000         142.000
  18435714.061   -43695494.99049 -32898472.88648  18435713.941    18435720.330
       245.000         215.000
 98  3 19  2  1 29.9920000  0  9G30G10G26G24G17G13G 5G23G 6
  18803189.463   -43704905.01449 -33688652.90147  18803189.853    18803195.954
       245.000         209.000
  19504315.720   -38454760.94549 -29602400.81847  19504314.924    19504321.882
       237.000         195.000
  21995969.784    -9356199.93549  -6639019.74645  21995970.596    21995977.938
       215.000         150.000
  21610101.704   -39544373.17649 -30427596.31845  21610101.158    21610108.291
       216.000         156.000
  20010007.468   -27176213.54649 -20817398.10947  20010006.221    20010014.445
       232.000         188.000
  22175850.146   -12921466.80649  -8594411.49344  22175851.497    22175856.299
       206.000         129.000
  20636637.442   -45365144.31549 -34129954.62546  20636636.794    20636645.351
       225.000         172.000
  22234083.162    -6666533.11249  -5171019.58345  22234083.454    22234092.534
       208.000         142.000
  18417893.559   -43789142.32549 -32971444.81848  18417893.438    18417899.855
       246.000         215.000
 98  3 19  2  1 59.9920000  0  9G30G10G26G24G17G13G 5G23G 6
  18804410.344   -43698489.19049 -33683653.57247  18804410.577    18804416.990
       243.000         209.000
  19506858.754   -38441397.09149 -29591987.41647  19506858.213    19506865.128
       236.000         195.000
  21970029.696    -9492515.70849  -6745239.72845  21970030.155    21970037.659
       215.000         149.000
  21614510.527   -39521204.58949 -30409542.87045  21614510.296    21614518.523
       214.000         156.000
  19988824.943   -27287527.87449 -20904136.47047  19988824.085    19988831.965
       231.000         188.000
  22165378.857   -12976494.78049  -8637290.41344  22165379.237    22165385.068
       206.000         128.000
  20646053.459   -45315662.93749 -34091397.76846  20646053.455    20646061.560
       224.000         171.000
  22203909.152    -6825098.23849  -5294576.73345  22203908.234    22203918.605
       207.000         142.000
  18400066.582   -43882823.54349 -33044443.15048  18400066.639    18400072.736
       244.000         215.000
 98  3 19  2  2 29.9920000  0  9G30G10G26G24G17G13G 5G23G 6
  18805737.056   -43691517.33549 -33678220.96947  18805737.159    18805743.274
       244.000         209.000
  19509488.762   -38427576.37649 -29581218.01647  19509488.082    19509494.518
       237.000         195.000
  21944103.113    -9628760.31849  -6851404.28145  21944102.484    21944111.482
       215.000         148.000
  21618919.333   -39498035.88649 -30391489.33345  21618919.853    21618926.462
       216.000         154.000
  19967693.592   -27398573.68949 -20990665.60547  19967693.184    19967700.693
       232.000         188.000
  22155007.879   -13030994.55949  -8679757.72444  22155007.827    22155014.749
       206.000         127.000
  20655513.156   -45265952.25049 -34052662.22446  20655513.256    20655520.993
       225.000         171.000
  22173764.193    -6983510.76749  -5418014.96945  22173763.953    22173774.555
       209.000         142.000
  18382299.547   -43976189.95049 -33117196.17348  18382299.439    18382305.589
       245.000         215.000
 98  3 19  2  2 59.9920000  0  9G30G10G26G24G17G13G 5G23G 6
  18807163.626   -43684020.52149 -33672379.31147  18807163.931    18807170.229
       243.000         209.000
  19512203.812   -38413308.77849 -29570100.39947  19512202.973    19512210.008
       236.000         195.000
  21918185.647    -9764956.88449  -6957531.36145  21918185.426    21918193.831
       215.000         149.000
  21623327.435   -39474871.36349 -30373439.03745  21623327.252    21623333.967
       215.000         154.000
  19946608.543   -27509376.11549 -21077005.08047  19946607.551    19946615.478
       232.000         188.000
  22144732.613   -13084990.87849  -8721832.71144  22144734.749    22144738.216
       206.000         129.000
  20665007.992   -45216056.90749 -34013782.78946  20665007.533    20665015.849
       224.000         171.000
  22143647.919    -7141772.33849  -5541335.56045  22143646.742    22143657.165
       210.000         143.000
  18364586.288   -44069273.46649 -33189728.75948  18364586.142    18364592.437
       245.000         215.000
 98  3 19  2  3 29.9920000  0  9G30G10G26G24G17G13G 5G23G 6
  18808676.329   -43676071.36349 -33666185.17547  18808676.714    18808682.641
       243.000         209.000
  19514994.691   -38398642.80949 -29558672.36147  19514994.041    19515000.848
       236.000         195.000
  21892268.930    -9901149.43049  -7063655.30145  21892268.488    21892278.140
       212.000         146.000
  21627723.115   -39451771.63649 -30355439.24645  21627722.899    21627730.329
       215.000         153.000
  19925557.302   -27620000.78449 -21163206.05647  19925556.394    19925564.457
       232.000         189.000
  22134541.373   -13138546.13449  -8763564.04444  22134543.904    22134546.778
       209.000         130.000
  20674523.564   -45166052.36049 -33974818.24846  20674523.066    20674531.229
       224.000         170.000
  22113551.182    -7299931.57249  -5664576.40945  22113550.428    22113560.253
       210.000         144.000
  18346914.945   -44162136.91949 -33262089.87048  18346914.935    18346921.067
       245.000         215.000
 98  3 19  2  3 59.9920000  0  9G30G10G26G24G17G13G 5G23G 6
  18810286.980   -43667607.45549 -33659589.93447  18810287.409    18810293.384
       243.000         209.000
  19517878.283   -38383489.37349 -29546864.48547  19517877.235    19517884.118
       235.000         194.000
  21866368.017   -10037258.74349  -7169714.41245  21866367.859    21866374.845
       208.000         142.000
  21632119.892   -39428666.04749 -30337434.89145  21632119.205    21632127.161
       214.000         152.000
  19904553.155   -27730377.97849 -21249214.19247  19904552.305    19904559.992
       233.000         189.000
  22124448.835   -13191584.12549  -8804892.34344  22124448.033    22124454.964
       207.000         131.000
  20684073.271   -45115868.71649 -33935714.15746  20684072.954    20684081.072
       224.000         170.000
  22083488.057    -7457913.72749  -5787679.24445  22083487.929    22083497.138
       211.000         145.000
  18329302.737   -44254689.64049 -33334208.84848  18329302.698    18329308.908
       245.000         215.000
 98  3 19  2  4 29.9920000  0  9G30G10G26G24G17G13G 5G23G 6
  18811993.477   -43658639.84949 -33652602.19747  18811993.828    18812000.137
       243.000         208.000
  19520858.354   -38367828.75349 -29534661.39847  19520857.771    19520864.522
       235.000         194.000
  21840483.988   -10173280.03349  -7275704.95045  21840485.457    21840490.980
       211.000         141.000
  21636521.140   -39405537.19649 -30319412.40045  21636520.698    21636528.129
       212.000         150.000
  19883597.190   -27840501.95449 -21335025.01747  19883596.363    19883604.556
       232.000         190.000
  22114455.474   -13244099.05349  -8845813.03544  22114456.580    22114461.426
       209.000         131.000
  20693658.798   -45065496.60149 -33896463.21746  20693658.428    20693666.320
       222.000         170.000
  22053457.282    -7615726.31649  -5910649.96345  22053456.700    22053465.908
       210.000         146.000
  18311754.245   -44346907.75149 -33406067.09348  18311754.256    18311760.300
       245.000         216.000
 98  3 19  2  4 59.9920000  0  9G30G10G26G24G17G13G 5G23G 6
  18813789.337   -43649202.72349 -33645248.60947  18813789.465    18813795.568
       243.000         208.000
  19523927.449   -38351700.42349 -29522093.85947  19523926.657    19523933.241
       235.000         194.000
  21814613.323   -10309231.00549  -7381640.67445  21814613.038    21814621.876
       207.000         142.000
  21640922.493   -39382407.56849 -30301389.29645  21640922.491    21640930.327
       213.000         150.000
  19862684.869   -27950396.69249 -21420657.21447  19862684.070    19862691.788
       232.000         190.000
  22104556.561   -13296118.00349  -8886347.24944  22104556.024    22104561.517
       207.000         131.000
  20703273.893   -45014969.04249 -33857091.15146  20703273.672    20703281.532
       222.000         170.000
  22023449.322    -7773418.35749  -6033526.74145  22023448.404    22023458.486
       210.000         148.000
  18294265.091   -44438813.85349 -33477682.21148  18294264.844    18294270.976
       245.000         216.000
 98  3 19  2  5 29.9920000  0  9G30G10G26G24G17G13G 5G23G 6
  18815662.747   -43639357.85149 -33637577.28247  18815662.838    18815669.401
       243.000         208.000
  19527069.706   -38335187.79349 -29509226.86247  19527068.991    19527075.522
       234.000         193.000
  21788743.213   -10445178.20849  -7487573.41545  21788743.497    21788752.332
       208.000         140.000
  21645312.634   -39359337.03649 -30283412.25645  21645311.543    21645319.624
       212.000         150.000
  19841802.546   -28060133.86849 -21506166.63447  19841801.697    19841809.223
       232.000         190.000
  22094740.162   -13347703.07149  -8926543.36844  22094740.280    22094743.336
       208.000         131.000
  20712911.140   -44964325.13749 -33817628.41446  20712910.381    20712918.372
       221.000         169.000
  21993449.652    -7931067.50049  -6156370.07545  21993448.952    21993458.221
       211.000         148.000
  18276824.256   -44530466.10649 -33549099.52048  18276824.088    18276830.236
       245.000         216.000
 98  3 19  2  5 59.9920000  0  9G30G10G26G24G17G13G 5G23G 6
  18817625.210   -43629044.90349 -33629541.24147  18817625.669    18817631.714
       243.000         208.000
  19530294.605   -38318240.79249 -29496021.41447  19530293.709    19530300.660
       234.000         193.000
  21762881.001   -10581084.42549  -7593474.30145  21762880.911    21762889.265
       207.000         139.000
  21649704.314   -39336258.36849 -30265428.87645  21649704.402    21649712.860
       211.000         149.000
  19820960.013   -28169661.62249 -21591512.88947  19820959.106    19820966.876
       233.000         191.000
  22085017.948   -13398793.25449  -8966353.86744  22085017.590    22085025.082
       208.000         131.000
  20722583.175   -44913498.50549 -33778023.31846  20722583.184    20722590.866
       221.000         169.000
  21963466.964    -8088626.98549  -6279143.55545  21963466.109    21963476.289
       211.000         148.000
  18259440.647   -44621817.56049 -33620282.45748  18259440.682    18259446.734
       246.000         216.000
 98  3 19  2  6 29.9920000  0  9G30G10G26G24G17G13G 5G23G 6
  18819692.578   -43618180.97549 -33621075.85147  18819692.888    18819699.117
       243.000         208.000
  19533612.120   -38300806.81349 -29482436.48947  19533611.422    19533618.251
       234.000         193.000
  21737041.427   -10716871.21149  -7699282.09345  21737041.499    21737049.426
       203.000         139.000
  21654112.109   -39313095.00549 -30247379.47745  21654111.830    21654118.630
       211.000         148.000
  19800170.883   -28278909.06549 -21676640.69747  19800170.537    19800177.739
       233.000         191.000
  22075402.900   -13449321.09949  -9005726.18045  22075403.636    22075409.281
       209.000         132.000
  20732302.160   -44862424.97949 -33738225.82246  20732301.316    20732310.508
       221.000         169.000
  21933513.292    -8246034.08549  -6401798.28845  21933512.016    21933522.377
       213.000         147.000
  18242123.501   -44712819.64649 -33691193.14548  18242123.411    18242129.430
       245.000         216.000
 98  3 19  2  6 59.9920000  0  9G30G10G26G24G17G13G 5G23G 6
  18821867.454   -43606752.07649 -33612170.23247  18821867.702    18821873.954
       243.000         208.000
  19537021.171   -38282892.04949 -29468476.92647  19537020.332    19537027.482
       234.000         193.000
  21711226.666   -10852528.05849  -7804988.60745  21711227.900    21711234.637
       207.000         140.000
  21658534.247   -39289856.22249 -30229271.35345  21658533.649    21658541.461
       210.000         147.000
  19779436.667   -28387868.17949 -21761543.85047  19779436.111    19779443.781
       233.000         192.000
  22065896.533   -13499276.54749  -9044652.46645  22065896.947    22065902.348
       208.000         132.000
  20742066.530   -44811113.13449 -33698242.62746  20742066.126    20742074.695
       221.000         169.000
  21903590.193    -8403280.36449  -6524327.72445  21903589.431    21903599.792
       211.000         147.000
  18224871.278   -44803480.52249 -33761837.96048  18224871.164    18224877.217
       245.000         216.000
 98  3 19  2  7 29.9920000  0  9G30G10G26G24G17G13G 5G23G 6
  18824081.487                                    18824081.669    18824087.991
       243.000         207.000
  19540454.129                                    19540453.406    19540459.982
       234.000         192.000
  21685367.845   -10988417.23349  -7910876.18345  21685367.053    21685375.927
       207.000         142.000
  21662896.755   -39266930.84849 -30211407.18845  21662896.769    21662902.910
       210.000         145.000
  19758688.822                                    19758687.895    19758695.134
       235.000         192.000
  22056429.239                                    22056427.523    22056433.545
       208.000         131.000
  20751803.844                                    20751803.325    20751812.142
       221.000         168.000
  21873632.067                                    21873631.410    21873639.802
       210.000         147.000
  18207614.536                                    18207614.301    18207620.378
       246.000         216.000
 98  3 19  2  7 59.9920000  0  9G30G10G26G24G17G13G 5G23G 6
  18826340.980   -43583243.63549 -33593851.99847  18826341.415    18826347.514
       243.000         207.000
  19543916.820   -38246655.33049 -29440240.51347  19543916.278    19543923.091
       234.000         192.000
  21659474.574   -11124486.18249  -8016903.79945  21659474.518    21659483.261
       209.000         143.000
  21667201.332   -39244310.10949 -30193780.62245  21667199.840    21667208.979
       209.000         146.000
  19737937.473   -28605947.78549 -21931475.90547  19737936.471    19737944.018
       235.000         192.000
  22047004.094   -13598555.86849  -9122012.63745  22047004.686    22047011.102
       207.000         132.000
  20761516.125   -44708904.90749 -33618599.75646  20761515.372    20761523.371
       221.000         168.000
  21843647.245    -8718281.66949  -6769782.77545  21843646.288    21843655.952
       210.000         147.000
  18190360.522   -44984835.73749 -33903153.65748  18190360.406    18190366.557
       246.000         216.000
 98  3 19  2  8 29.9920000  0  9G30G10G26G24G17G13G 5G23G 6
  18828671.711   -43570995.67849 -33584308.14747  18828672.152    18828678.093
       243.000         207.000
  19547433.528   -38228174.91849 -29425840.19347  19547432.634    19547440.188
       235.000         192.000
  21633576.674   -11260580.24949  -8122951.04045  21633576.766    21633584.342
       208.000         146.000
  21671471.281   -39221871.09549 -30176295.67745  21671470.623    21671479.558
       209.000         146.000
  19717211.604   -28714862.47549 -22016344.45147  19717210.709    19717218.452
       235.000         192.000
  22037648.153   -13647721.58749  -9160323.56745  22037649.303    22037653.643
       211.000         132.000
  20771228.621   -44657865.35649 -33578828.73746  20771227.988    20771236.398
       221.000         167.000
  21813662.429    -8875851.98249  -6892564.71845  21813660.987    21813671.414
       210.000         147.000
  18173140.412   -45075327.93649 -33973667.03548  18173140.147    18173146.189
       247.000         217.000
 98  3 19  2  8 59.9910000  0  9G30G10G26G24G17G13G 5G23G 6
  18831096.085   -43558255.39049 -33574380.66447  18831096.333    18831102.623
       242.000         207.000
  19551029.292   -38209279.01149 -29411116.10647  19551028.645    19551035.135
       234.000         192.000
  21607698.655   -11396570.38749  -8228917.27445  21607698.352    21607707.698
       211.000         146.000
  21675730.242   -39199490.34749 -30158856.12745  21675730.104    21675738.504
       210.000         146.000
  19696536.806   -28823509.11949 -22101004.12747  19696535.942    19696543.201
       234.000         193.000
  22028388.195   -13696382.53849  -9198241.14145  22028388.264    22028395.800
       209.000         133.000
  20780965.853   -44606696.19549 -33538956.72346  20780965.727    20780974.211
       220.000         167.000
  21783704.744    -9033280.05749  -7015235.81145  21783703.746    21783713.526
       209.000         147.000
  18155983.597   -45165487.40849 -34043921.14348  18155983.594    18155989.482
       245.000         216.000
 98  3 19  2  9 29.9910000  0  9G30G10G26G24G17G13G 5G23G 6
  18833613.171   -43545027.92449 -33564073.56247  18833613.601    18833619.787
       242.000         206.000
  19554703.409   -38189971.51249 -29396071.29647  19554702.901    19554709.184
       234.000         192.000
  21581838.930   -11532463.82249  -8334808.14045  21581839.064    21581847.859
       210.000         149.000
  21679978.630   -39177164.68449 -30141459.49345  21679978.823    21679986.576
       208.000         145.000
  19675909.857   -28931904.42049 -22185467.94847  19675908.962    19675916.780
       234.000         193.000
  22019221.733   -13744552.51949  -9235776.17445  22019221.750    22019228.062
       208.000         134.000
  20790729.585   -44555387.60849 -33498976.06346  20790729.158    20790736.971
       219.000         166.000
  21753770.933    -9190582.61349  -7137809.10645  21753770.848    21753779.803
       209.000         148.000
  18138889.129   -45255319.40149 -34113920.07248  18138888.978    18138895.049
       245.000         216.000
 98  3 19  2  9 59.9910000  0  9G30G10G26G24G17G13G 5G23G 6
  18836219.906   -43531329.45349 -33553399.44447  18836220.206    18836226.670
       242.000         206.000
  19558452.484   -38170270.02549 -29380719.47747  19558451.896    19558458.560
       234.000         191.000
  21555999.100   -11668252.59249  -8440617.45045  21555999.022    21556007.202
       211.000         149.000
  21684220.585   -39154873.06249 -30124089.40445  21684220.137    21684228.684
       209.000         147.000
  19655330.827   -29040047.89549 -22269735.54947  19655330.128    19655337.618
       235.000         193.000
  22010150.830   -13792220.79849  -9272920.25445  22010151.349    22010155.316
       210.000         134.000
  20800520.693   -44503935.02549 -33458883.20446  20800519.480    20800528.940
       220.000         166.000
  21723860.430    -9347762.60649  -7260286.89845  21723859.505    21723868.963
       209.000         149.000
  18121856.909   -45344824.06849 -34183663.94348  18121856.510    18121862.700
       246.000         216.000
 98  3 19  2 10 29.9910000  0  9G30G10G26G24G17G13G 5G23G 6
  18838911.271   -43517186.24449 -33542378.77847  18838911.593    18838917.693
       242.000         206.000
  19562275.558   -38150179.89049 -29365064.81847  19562275.029    19562281.408
       234.000         191.000
  21530175.733   -11803954.45349  -8546359.03345  21530175.530    21530183.381
       214.000         149.000
  21688456.431   -39132613.90649 -30106744.60745  21688457.373    21688464.430
       211.000         148.000
  19634792.610   -29147976.81549 -22353835.96647  19634791.886    19634799.249
       234.000         194.000
  22001176.313   -13839382.33449  -9309669.47545  22001176.313    22001182.278
       212.000         135.000
  20810336.477   -44452352.82549 -33418689.33046  20810336.274    20810344.834
       219.000         165.000
  21693970.540    -9504834.19349  -7382680.22545  21693970.167    21693979.944
       210.000         151.000
  18104883.560   -45434019.38149 -34253166.76148  18104883.370    18104889.360
       246.000         216.000
 98  3 19  2 10 59.9910000  0  9G30G10G26G24G17G13G 5G23G 6
  18841687.362   -43502597.93849 -33531011.28447  18841687.611    18841694.099
       242.000         206.000
  19566175.525   -38129685.31449 -29349095.01247  19566174.729    19566181.373
       233.000         190.000
  21504369.565   -11939567.51849  -8652031.46245  21504369.815    21504378.575
       213.000         154.000
  21692689.037   -39110371.28749 -30089412.68845  21692688.374    21692696.269
       210.000         147.000
  19614293.897   -29255698.03949 -22437774.54547  19614292.888    19614300.851
       235.000         194.000
  21992296.320   -13886048.05249  -9346032.35845  21992297.149    21992303.796
       212.000         136.000
  20820175.740   -44400647.10449 -33378399.22946  20820174.953    20820183.802
       219.000         165.000
  21664105.435    -9661775.89849  -7504972.35445  21664104.962    21664114.276
       209.000         152.000
  18087965.544   -45522924.04849 -34322443.10148  18087965.452    18087971.599
       245.000         217.000
 98  3 19  2 11 29.9910000  0  9G30G10G26G24G17G13G 5G23G 6
  18844551.250   -43487548.11749 -33519284.16647  18844551.708    18844557.865
       242.000         206.000
  19570157.245   -38108761.09249 -29332790.41547  19570156.603    19570163.449
       233.000         190.000
  21478582.130   -12075080.65949  -8757625.95845  21478581.158    21478591.079
       210.000         155.000
  21696923.892   -39088116.74249 -30072071.49145  21696923.722    21696931.842
       210.000         149.000
  19593837.452   -29363197.42949 -22521540.26847  19593836.819    19593844.072
       234.000         194.000
  21983511.925   -13932210.66049  -9382003.21245  21983512.931    21983516.770
       213.000         137.000
  20830041.030   -44348804.79649 -33338002.67546  20830040.433    20830049.341
       219.000         164.000
  21634270.349    -9818559.60149  -7627141.35845  21634269.017    21634279.277
       212.000         152.000
  18071102.847   -45611538.01649 -34391492.92148  18071102.786    18071108.767
       246.000         217.000
 98  3 19  2 11 59.9910000  0  9G30G10G26G24G17G13G 5G23G 6
  18847496.893   -43472068.77549 -33507222.35647  18847497.259    18847503.542
       242.000         206.000
  19574217.091   -38087426.44949 -29316166.01447  19574216.302    19574222.789
       232.000         190.000
  21452805.494   -12210536.77849  -8863176.05645  21452805.842    21452813.019
       215.000         154.000
  21701154.971   -39065882.28749 -30054745.94845  21701154.064    21701162.333
       210.000         151.000
  19573416.987   -29470507.26449 -22605158.28147  19573416.246    19573424.350
       234.000         193.000
  21974819.147   -13977891.47449  -9417598.62945  21974820.179    21974824.567
       213.000         136.000
  20839924.982   -44296864.47849 -33297529.76546  20839924.201    20839933.113
       218.000         164.000
  21604460.503    -9975211.01949  -7749207.28845  21604459.124    21604469.595
       212.000         153.000
  18054292.093   -45699878.91549 -34460329.96448  18054291.984    18054298.164
       245.000         217.000
 98  3 19  2 12 29.9910000  0  9G30G10G26G24G17G13G 5G23G 6
  18850521.975   -43456171.83249 -33494835.14847  18850522.465    18850528.530
       242.000         206.000
  19578353.570   -38065689.05549 -29299227.77847  19578352.539    19578359.458
       233.000         190.000
  21427035.173   -12345960.97749  -8968701.34145  21427035.382    21427042.919
       215.000         154.000
  21705376.876   -39043695.66749 -30037457.69945  21705376.910    21705384.387
       211.000         150.000
  19553027.839   -29577652.46549 -22688648.00347  19553026.971    19553034.680
       234.000         193.000
  21966214.126   -14023110.67349  -9452834.34345  21966215.505    21966219.791
       211.000         137.000
  20849824.931   -44244840.00849 -33256991.28246  20849824.877    20849832.985
       217.000         163.000
  21574670.625   -10131757.22949  -7871191.23145  21574669.047    21574679.837
       209.000         153.000
  18037530.993   -45787958.98249 -34528963.76548  18037530.827    18037536.933
       245.000         217.000
 98  3 19  2 12 59.9910000  0  9G30G10G26G24G17G13G 5G23G 6
  18853607.466   -43439957.70749 -33482200.78347  18853607.959    18853613.945
       241.000         206.000
  19582541.928   -38043679.11949 -29282077.17147  19582541.119    19582547.486
       233.000         190.000
  21401248.950   -12481468.16449  -9074291.21345  21401248.734    21401258.119
       215.000         156.000
  21709567.294   -39021674.88049 -30020298.63245  21709566.690    21709575.018
       211.000         151.000
  19532652.603   -29684725.07849 -22772081.16647  19532652.206    19532658.959
       234.000         194.000
  21957676.597   -14067975.65049  -9487794.03745  21957676.727    21957681.136
       211.000         137.000
  20859719.853   -44192842.22949 -33216473.59246  20859719.976    20859727.795
       217.000         163.000
  21544879.828   -10288308.51749  -7993179.13345  21544879.330    21544888.586
       211.000         154.000
  18020798.738   -45875887.62949 -34597479.57648  18020798.571    18020804.623
       245.000         217.000
 98  3 19  2 13 29.9910000  0  9G30G10G26G24G17G13G 5G23G 6
  18856782.940   -43423270.60149 -33469197.86247  18856783.121    18856789.735
       241.000         205.000
  19586808.828   -38021256.41649 -29264604.92747  19586807.825    19586814.826
       233.000         190.000
  21375479.816   -12616885.48749  -9179811.08045  21375480.103    21375487.852
       217.000         158.000
  21713755.240   -38999666.97749 -30003149.62245  21713755.150    21713763.125
       211.000         152.000
  19512322.982   -29791557.69649 -22855327.32447  19512322.440    19512329.875
       235.000         194.000
  21949242.137   -14112298.75749  -9522331.50545  21949241.946    21949247.983
       213.000         137.000
  20869643.853   -44140691.64549 -33175836.81946  20869642.657    20869651.693
       219.000         163.000
  21515116.813   -10444713.42349  -8115052.96745  21515116.175    21515125.635
       212.000         154.000
  18004129.524   -45963484.82249 -34665737.10648  18004129.211    18004135.407
       246.000         217.000
 98  3 19  2 13 59.9910000  0  9G30G10G26G24G17G13G 5G23G 6
  18860041.309   -43406147.67549 -33455855.34547  18860041.565    18860048.174
       241.000         205.000
  19591146.163   -37998463.64449 -29246844.32347  19591145.132    19591152.006
       232.000         189.000
  21349728.246   -12752210.31549  -9285258.89245  21349728.650    21349735.602
       213.000         154.000
  21717933.376   -38977710.32849 -29986040.58145  21717933.478    21717941.328
       212.000         153.000
  19492035.370   -29898169.73449 -22938401.60447  19492034.855    19492042.168
       235.000         194.000
  21940907.654   -14156096.40749  -9556459.50845  21940907.476    21940914.503
       214.000         137.000
  20879592.872   -44088409.34349 -33135097.42046  20879592.679    20879601.183
       217.000         163.000
  21485377.694   -10600992.92749  -8236829.08645  21485376.643    21485386.357
       211.000         153.000
  17987522.363   -46050755.75249 -34733740.41648  17987522.237    17987528.488
       245.000         217.000
 98  3 19  2 14 29.9910000  0  9G30G10G26G24G17G13G 5G23G 6
  18863384.770   -43388577.70149 -33442164.47647  18863385.120    18863391.651
       241.000         205.000
  19595552.472   -37975308.27249 -29228801.17147  19595551.542    19595558.577
       233.000         189.000
  21324001.761   -12887403.67549  -9390604.27545  21324002.141    21324009.860
       218.000         156.000
  21722106.629   -38955780.08349 -29968952.08345  21722107.338    21722114.313
       213.000         154.000
  19471795.039   -30004533.18649 -23021282.17447  19471794.547    19471801.789
       235.000         194.000
  21932675.470   -14199356.45749  -9590168.61245  21932674.635    21932682.407
       212.000         138.000
  20889568.383   -44035987.94849 -33094249.63745  20889568.063    20889576.550
       219.000         162.000
  21455667.341   -10757121.07849  -8358487.26545  21455666.521    21455675.995
       211.000         154.000
  17970978.449   -46137694.44449 -34801484.83448  17970978.371    17970984.488
       245.000         217.000
 98  3 19  2 14 59.9910000  0  9G30G10G26G24G17G13G 5G23G 6
  18866806.615   -43370595.85049 -33428152.66747  18866807.071    18866813.506
       241.000         205.000
  19600020.631   -37951827.67249 -29210504.59647  19600019.799    19600026.785
       232.000         189.000
  21298296.499   -13022485.55049  -9495862.73745  21298295.627    21298304.080
       214.000         157.000
  21726269.567   -38933904.03549 -29951905.79545  21726268.817    21726276.961
       210.000         152.000
  19451596.713   -30110675.95649 -23103990.78247  19451596.210    19451603.313
       235.000         195.000
  21924536.964   -14242124.37349  -9623494.23045  21924537.788    21924542.979
       212.000         137.000
  20899562.534   -43983468.47449 -33053325.43345  20899562.064    20899570.439
       217.000         162.000
  21425981.851   -10913118.64849  -8480043.67545  21425981.432    21425991.154
       211.000         154.000
  17954491.884   -46224331.82149 -34868994.46248  17954491.884    17954497.752
       246.000         217.000
 98  3 19  2 15 29.9910000  0  9G30G10G26G24G17G13G 5G23G 6
  18870340.926   -43352023.03749 -33413680.36047  18870341.205    18870347.685
       241.000         204.000
  19604587.552   -37927828.28949 -29191803.77347  19604586.927    19604593.599
       232.000         188.000
  21272648.808   -13157264.00749  -9600884.80745  21272648.382    21272656.498
       214.000         155.000
  21730458.123   -38911892.90549 -29934754.30245  21730458.447    21730466.766
       212.000         153.000
  19431472.153   -30216431.06649 -23186397.31747  19431471.772    19431479.016
       235.000         195.000
  21916523.631   -14284234.74549  -9656307.47945  21916523.497    21916530.248
       210.000         137.000
  20909607.669   -43930681.10349 -33012192.46845  20909607.780    20909615.659
       217.000         162.000
  21396356.513   -11068800.48649  -8601354.06945  21396355.521    21396365.312
       212.000         154.000
  17938099.545   -46310474.07049 -34936118.28148  17938099.472    17938105.463
       246.000         217.000
 98  3 19  2 15 59.9910000  0  9G30G10G26G24G17G13G 5G23G 6
  18873962.199   -43332993.31549 -33398852.02447  18873962.518    18873968.783
       241.000         204.000
  19609226.559   -37903450.09549 -29172807.77747  19609225.616    19609232.455
       231.000         188.000
  21247031.843   -13291880.78649  -9705780.89845  21247031.836    21247040.099
       214.000         153.000
  21734646.110   -38889885.13149 -29917605.39845  21734646.547    21734653.734
       212.000         155.000
  19411393.602   -30321944.22149 -23268615.30147  19411393.022    19411400.082
       235.000         195.000
  21908604.003   -14325852.35949  -9688736.75645  21908602.890    21908609.647
       210.000         137.000
  20919670.092   -43877802.92049 -32970988.75045  20919669.774    20919678.200
       217.000         161.000
  21366764.745   -11224305.93549  -8722527.00845  21366763.517    21366774.129
       211.000         154.000
  17921772.799   -46396271.50049 -35002973.40548  17921772.805    17921778.833
       245.000         217.000
 98  3 19  2 16 29.9910000  0  9G30G10G26G24G17G13G 5G23G 6
  18877647.862   -43313625.14949 -33383759.96747  18877648.346    18877654.444
       241.000         204.000
  19613913.568   -37878819.65649 -29153615.22646  19613912.931    19613920.084
       231.000         187.000
  21221420.895   -13426467.13249  -9810653.26445  21221421.196    21221428.879
       213.000         154.000
  21738810.485   -38868001.24549 -29900553.02645  21738810.724    21738818.716
       210.000         154.000
  19391336.162   -30427346.56849 -23350746.94447  19391335.648    19391342.625
       235.000         195.000
  21900753.251   -14367107.86849  -9720883.88945  21900751.595    21900757.617
       210.000         136.000
  20929724.238   -43824968.12249 -32929818.82645  20929723.254    20929732.430
       217.000         161.000
  21337180.961   -11379769.47849  -8843667.28545  21337180.178    21337190.034
       212.000         155.000
  17905486.276   -46481857.81949 -35069664.03048  17905486.130    17905492.246
       246.000         217.000
 98  3 19  2 16 59.9910000  0  9G30G10G26G24G17G13G 5G23G 6
  18881388.565   -43293967.71249 -33368442.50047  18881389.096    18881395.281
       241.000         204.000
  19618641.035   -37853976.51749 -29134256.92746  19618640.118    19618647.494
       231.000         187.000
  21195805.843   -13561074.04849  -9915541.64045  21195804.950    21195813.487
       210.000         152.000
  21742940.181   -38846299.82149 -29883642.83645  21742940.336    21742948.177
       212.000         151.000
  19371286.987   -30532705.26249 -23432844.56747  19371286.248    19371293.602
       235.000         195.000
  21892963.216   -14408044.69649  -9752782.69545  21892963.827    21892969.049
       213.000         135.000
  20939762.294   -43772218.03849 -32888714.90645  20939761.805    20939770.163
       217.000         160.000
  21307597.318   -11535231.85549  -8964806.65345  21307596.958    21307606.183
       213.000         155.000
  17889230.957   -46567280.24949 -35136226.94448  17889230.783    17889236.939
       246.000         217.000
 98  3 19  2 17 29.9910000  0  9G30G10G26G24G17G13G 5G23G 6
  18885217.853   -43273844.93349 -33352762.43447  18885218.285    18885224.482
       241.000         204.000
  19623444.010   -37828736.62949 -29114589.47846  19623443.063    19623450.305
       231.000         187.000
  21170223.466   -13695509.64749 -10020296.56445  21170224.858    21170231.268
       214.000         151.000
  21747068.787   -38824604.11149 -29866737.09045  21747069.047    21747076.409
       212.000         153.000
  19351281.604   -30637834.04149 -23514763.03047  19351281.037    19351288.240
       236.000         196.000
  21885273.035   -14448456.77549  -9784272.59645  21885273.041    21885279.893
       212.000         134.000
  20949819.008   -43719369.77049 -32847534.50545  20949819.092    20949828.223
       217.000         160.000
  21278052.960   -11690488.15249  -9085785.45545  21278052.141    21278061.668
       212.000         155.000
  17873042.837   -46652349.32549 -35202514.52548  17873042.890    17873048.611
       245.000         217.000
 98  3 19  2 17 59.9910000  0  9G30G10G26G24G17G13G 5G23G 6
  18889151.326   -43253174.37349 -33336655.52947  18889151.802    18889157.684
       241.000         203.000
  19628339.674   -37803009.76549 -29094542.57046  19628338.764    19628345.842
       231.000         187.000
  21144691.923   -13829679.11849 -10124844.09545  21144691.505    21144699.450
       209.000         151.000
  21751212.603   -38802828.66749 -29849769.23645  21751212.569    21751220.598
       210.000         153.000
  19331340.457   -30742625.34849 -23596418.53347  19331339.652    19331347.158
       236.000         196.000
  21877703.347   -14488235.71349  -9815269.13445  21877702.562    21877709.276
       211.000         134.000
  20959914.566   -43666317.46349 -32806195.10245  20959914.393    20959922.752
       217.000         159.000
  21248566.168   -11845441.90049  -9206528.49345  21248565.754    21248574.990
       212.000         155.000
  17856939.015   -46736975.50549 -35268456.98948  17856939.088    17856944.817
       245.000         217.000
 98  3 19  2 18 29.9910000  0  8G30G10G26G24G17G 5G23G 6
  18893146.689   -43232178.56649 -33320295.17747  18893146.837    18893153.369
       241.000         203.000
  19633289.751   -37776996.99349 -29074272.86746  19633288.907    19633295.822
       231.000         187.000
  21119168.971   -13963802.16649 -10229355.42645  21119169.213    21119176.322
       214.000         150.000
  21755330.536   -38781188.67649 -29832906.92845  21755330.608    21755337.081
       213.000         150.000
  19311423.377   -30847290.27749 -23677975.54847  19311422.550    19311429.783
       236.000         196.000
  20970011.454   -43613258.26649 -32764850.33445  20970011.133    20970019.237
       215.000         159.000
  21219097.482   -12000300.40849  -9327197.32645  21219096.755    21219105.906
       212.000         154.000
  17840880.954   -46821361.17049 -35334212.03048  17840880.975    17840886.727
       246.000         217.000
 98  3 19  2 18 59.9910000  0  8G30G10G26G24G17G 5G23G 6
  18897210.488   -43210823.19049 -33303654.64847  18897210.823    18897217.115
       241.000         203.000
  19638302.442   -37750654.95249 -29053746.59946  19638301.557    19638308.702
       231.000         186.000
  21093660.797   -14097848.80349 -10333807.29645  21093660.053    21093667.104
       209.000         149.000
  21759428.761   -38759652.57549 -29816125.54245  21759428.081    21759435.557
       211.000         149.000
  19291539.269   -30951781.51049 -23759397.22047  19291538.936    19291545.974
       236.000         196.000
  20980115.734   -43560160.10149 -32723475.20845  20980115.728    20980124.272
       215.000         158.000
  21189655.992   -12155015.93349  -9447754.74645  21189655.217    21189665.058
       212.000         154.000
  17824877.525   -46905459.65449 -35399743.29748  17824877.604    17824883.412
       245.000         217.000
 98  3 19  2 19 29.9910000  0  8G30G10G26G24G17G 5G23G 6
  18901335.670   -43189145.37749 -33286762.86247  18901336.057    18901342.336
       241.000         202.000
  19643370.172   -37724023.75249 -29032995.00846  19643369.368    19643376.107
       230.000         185.000
  21068161.003   -14231849.54149 -10438223.30645  21068161.745    21068168.927
       216.000         150.000
  21763501.914   -38738247.91149 -29799446.57245  21763502.111    21763510.968
       210.000         149.000
  19271685.626   -31056113.24149 -23840694.60847  19271685.120    19271691.922
       236.000         196.000
  20990220.022   -43507061.93649 -32682100.07945  20990219.933    20990229.134
       215.000         158.000
  21160232.432   -12309637.20149  -9568238.71045  21160231.427    21160240.775
       213.000         155.000
  17808923.823   -46989297.05349 -35465071.12048  17808923.699    17808929.768
       245.000         217.000
 98  3 19  2 19 59.9910000  0  8G30G10G26G24G17G 5G23G 6
  18905536.819   -43167068.21149 -33269559.89147  18905536.929    18905543.237
       241.000         202.000
  19648506.547   -37697031.94349 -29011962.41646  19648506.102    19648512.853
       230.000         185.000
  21042683.272   -14365736.54549 -10542550.77445  21042682.834    21042690.135
       210.000         151.000
  21767565.687   -38716892.12049 -29782805.74945  21767564.928    21767575.001
       205.000         145.000
  19251876.206   -31160212.19449 -23921810.61047  19251875.614    19251882.870
       236.000         196.000
  21000339.067   -43453885.77149 -32640664.16645  21000339.487    21000347.075
       215.000         158.000
  21130836.858   -12464111.38849  -9688608.08645  21130835.487    21130845.216
       212.000         155.000
  17793034.452   -47072796.09249 -35530135.28248  17793034.279    17793040.391
       246.000         217.000
 98  3 19  2 20 29.9910000  0  8G30G10G26G24G17G 5G23G 6
  18909802.082   -43144654.03949 -33252094.31547  18909802.106    18909808.425
       241.000         202.000
  19653699.656   -37669742.05049 -28990697.56146  19653698.987    19653705.876
       231.000         185.000
  21017217.441   -14499558.90849 -10646827.83245  21017218.163    21017226.086
       216.000         150.000
  21771611.656   -38695630.19749 -29766238.02845  21771611.887    21771619.153
       207.000         143.000
  19232096.157   -31264156.66149 -24002806.22847  19232095.218    19232102.238
       237.000         197.000
  21010461.345   -43400693.29249 -32599215.54045  21010461.170    21010469.259
       217.000         158.000
  21101457.901   -12618498.47049  -9808909.58045  21101457.475    21101466.362
       213.000         157.000
  17777197.516   -47156019.64049 -35594984.77848  17777197.382    17777203.418
       246.000         217.000
 98  3 19  2 20 59.9910000  0  8G30G10G26G24G17G 5G23G 6
  18914119.241   -43121967.10949 -33234416.20647  18914119.597    18914125.890
       241.000         202.000
  19658936.131   -37642224.26349 -28969255.12046  19658935.132    19658942.776
       231.000         186.000
  20991758.088   -14633349.11249 -10751079.82245  20991757.599    20991766.043
       212.000         153.000
  21775629.779   -38674515.29549 -29749784.79045  21775630.035    21775637.644
       205.000         141.000
  19212333.600   -31368009.44049 -24083730.41047  19212332.989    19212339.896
       237.000         197.000
  21020575.364   -43347544.03149 -32557800.57645  21020575.358    21020583.867
       215.000         159.000
  21072082.729   -12772865.39349  -9929195.38045  21072082.011    21072091.524
       214.000         158.000
  17761400.393   -47239034.05249 -35659671.31048  17761400.268    17761406.419
       246.000         217.000
 98  3 19  2 21 29.9910000  0  8G30G10G26G24G17G 5G23G 6
  18918520.578   -43098838.08349 -33216393.60447  18918521.060    18918527.353
       240.000         201.000
  19664248.542   -37614307.25249 -28947501.60846  19664248.084    19664254.690
       230.000         186.000
  20966339.983   -14766921.20149 -10855161.87745  20966341.284    20966346.980
       214.000         152.000
  21779652.521   -38653374.98849 -29733311.84445  21779651.031    21779661.766
       202.000         138.000
  19192618.570   -31471612.46749 -24164459.98247  19192617.947    19192624.910
       236.000         197.000
  21030715.709   -43294256.55949 -32516277.91445  21030716.048    21030724.377
       216.000         159.000
  21042743.270   -12927044.89949 -10049335.14945  21042742.433    21042751.613
       215.000         158.000
  17745675.053   -47321671.25149 -35724063.90948  17745674.835    17745680.944
       245.000         217.000
 98  3 19  2 21 59.9910000  0  8G30G10G26G24G17G 5G23G 6
  18922990.615   -43075347.94849 -33198089.62047  18922991.056    18922997.399
       240.000         201.000
  19669621.848   -37586070.11949 -28925498.64346  19669621.235    19669627.982
       230.000         185.000
  20940948.490   -14900355.12149 -10959136.27945  20940947.604    20940956.713
       212.000         154.000
  21783662.761   -38632300.00049 -29716889.84345  21783662.644    21783670.597
       202.000         139.000
  19172933.268   -31575059.04649 -24245067.64347  19172932.735    19172939.761
       237.000         197.000
  21040866.147   -43240915.85349 -32474713.78045  21040865.792    21040875.381
       217.000         159.000
  21013427.286   -13081100.59249 -10169378.43045  21013426.388    21013435.714
       215.000         159.000
  17730005.790   -47404013.52349 -35788226.69448  17730005.672    17730011.723
       245.000         217.000
 98  3 19  2 22 29.9910000  0  8G30G10G26G24G17G 5G23G 6
  18927530.752   -43051489.21549 -33179498.41347  18927530.963    18927537.474
       241.000         201.000
  19675055.871   -37557513.95449 -28903247.08246  19675055.213    19675062.580
       231.000         185.000
  20915586.309   -15033633.34849 -11062989.30445  20915587.170    20915593.825
       220.000         157.000
  21787659.417   -38611297.76449 -29700524.48245  21787659.357    21787666.974
       212.000         140.000
  19153279.738   -31678338.68449 -24325545.22147  19153278.911    19153285.893
       238.000         197.000
  21051026.243   -43187524.58049 -32433110.24545  21051026.598    21051034.167
       218.000         158.000
  20984137.765   -13235017.62149 -10289313.66545  20984137.504    20984146.037
       216.000         159.000
  17714391.768   -47486065.74749 -35852163.47048  17714391.762    17714397.485
       246.000         217.000
 98  3 19  2 22 59.9900000  0  8G30G10G26G24G17G 5G23G 6
  18932154.614   -43027190.59349 -33160564.44147  18932154.812    18932161.418
       239.000         200.000
  19680561.209   -37528583.10949 -28880703.56246  19680560.302    19680567.560
       231.000         184.000
  20890265.266   -15166696.80849 -11166675.07045  20890263.791    20890271.750
       216.000         156.000
  21791651.934   -38590317.52449 -29684176.21445  21791652.443    21791660.742
       207.000         135.000
  19133674.261   -31781365.94849 -24405826.15247  19133673.953    19133680.612
       238.000         197.000
  21061204.908   -43134035.55749 -32391430.54345  21061204.102    21061212.666
       215.000         156.000
  20954889.309   -13388718.86749 -10409080.76145  20954888.762    20954897.190
       215.000         160.000
  17698847.052   -47567753.51649 -35915816.25448  17698846.863    17698852.757
       246.000         217.000
 98  3 19  2 23 29.9900000  0  8G30G10G26G24G17G 5G23G 6
  18936830.031   -43002621.07549 -33141419.37347  18936830.435    18936836.747
       239.000         200.000
  19686101.494   -37499468.92149 -28858017.17246  19686101.066    19686107.701
       230.000         184.000
  20864945.454   -15299751.77349 -11270354.13845  20864946.738    20864954.139
       219.000         160.000
  21795607.472   -38569530.32249 -29667978.39344  21795607.365    21795615.357
       202.000         129.000
  19114083.777   -31884314.16349 -24486045.48247  19114083.026    19114090.324
       237.000         197.000
  21071368.087   -43080627.80849 -32349814.17445  21071367.216    21071377.006
       214.000         156.000
  20925649.185   -13542376.37749 -10528813.76245  20925648.535    20925657.335
       216.000         161.000
  17683339.764   -47649244.66149 -35979315.82148  17683339.589    17683345.661
       247.000         217.000
 98  3 19  2 23 59.9900000  0  8G30G10G26G24G17G 5G23G 6
  18941580.675   -42977656.42749 -33121966.41647  18941580.976    18941587.357
       239.000         200.000
  19691697.627   -37470061.02849 -28835101.92346  19691696.722    19691703.607
       230.000         185.000
  20839652.385   -15432668.31149 -11373925.37245  20839651.390    20839659.461
       215.000         160.000
  21799553.256   -38548796.07849 -29651821.87045  21799554.013    21799560.836
       211.000         138.000
  19094534.817   -31987044.43349 -24566094.98447  19094534.069    19094541.240
       237.000         197.000
  21081537.463   -43027187.56849 -32308172.49245  21081536.896    21081546.052
       215.000         156.000
  20896443.948   -13695850.39949 -10648403.79446  20896443.203    20896452.731
       217.000         163.000
  17667894.820   -47730408.27549 -36042560.17048  17667894.761    17667900.699
       247.000         217.000
 98  3 19  2 24 29.9900000  0  8G30G10G26G24G17G 5G23G 6
  18946391.446   -42952375.76849 -33102267.21147  18946391.836    18946398.345
       239.000         200.000
  19697335.317   -37440434.68249 -28812016.44346  19697334.259    19697341.188
       230.000         184.000
  20814372.437   -15565514.39249 -11477441.70945  20814373.189    20814380.343
       220.000         160.000
  21803479.522   -38528164.32749 -29635745.19845  21803480.305    21803488.002
       209.000         143.000
  19075013.201   -32089631.04249 -24646032.55047  19075012.274    19075019.341
       237.000         197.000
  21091698.238   -42973792.54149 -32266566.03345  21091698.361    21091706.660
       216.000         156.000
  20867259.872   -13849213.61149 -10767907.47746  20867258.827    20867267.876
       218.000         164.000
  17652498.967   -47811313.85049 -36105603.44848  17652498.619    17652504.701
       247.000         217.000
 98  3 19  2 24 59.9900000  0  7G30G10G26G17G 5G23G 6
  18951274.529   -42926715.11849 -33082271.91947  18951274.736    18951281.166
       239.000         199.000
  19703029.380   -37410512.19449 -28788700.22446  19703028.637    19703035.706
       229.000         184.000
  20789119.135   -15698222.04349 -11580850.16546  20789118.043    20789126.920
       215.000         163.000
  19055531.020   -32192010.25349 -24725808.51547  19055530.411    19055537.659
       238.000         198.000
  21101863.480   -42920373.96149 -32224941.22545  21101863.064    21101871.708
       215.000         156.000
  20838112.628   -14002383.01749 -10887260.13046  20838112.045    20838120.358
       219.000         165.000
  17637170.372   -47891865.97349 -36168371.31848  17637170.141    17637176.097
       247.000         217.000
 98  3 19  2 25 29.9900000  0  7G30G10G26G17G 5G23G 6
  18956204.973   -42900805.35549 -33062082.50247  18956205.152    18956211.646
       239.000         199.000
  19708758.812   -37380403.75149 -28765239.09846  19708757.851    19708764.684
       230.000         184.000
  20763871.804   -15830896.35149 -11684232.61245  20763873.420    20763878.674
       219.000         161.000
  19036063.938   -32294310.29249 -24805522.78147  19036063.358    19036070.288
       238.000         198.000
  21112012.429   -42867040.99249 -32183383.11745  21112011.848    21112020.014
       215.000         156.000
  20808980.075   -14155475.20649 -11006552.61046  20808979.683    20808987.996
       218.000         165.000
  17621887.650   -47972176.77749 -36230951.13748  17621887.231    17621893.264
       247.000         217.000
 98  3 19  2 25 59.9900000  0  7G30G10G26G17G 5G23G 6
  18961217.138   -42874466.37449 -33041558.63747  18961217.592    18961223.863
       239.000         199.000
  19714563.912   -37349897.94049 -28741468.32446  19714563.032    19714570.362
       230.000         183.000
  20738669.810   -15963334.83249 -11787431.39046  20738669.868    20738677.832
       216.000         163.000
  19016644.067   -32396362.11649 -24885043.64247  19016643.342    19016650.469
       238.000         199.000
  21122179.574   -42813612.79849 -32141750.80645  21122180.029    21122188.053
       214.000         156.000
  20779897.892   -14308302.72449 -11125638.86646  20779897.207    20779905.692
       217.000         165.000
  17606685.530   -48052064.33149 -36293201.16048  17606685.355    17606691.469
       247.000         217.000
 98  3 19  2 26 29.9900000  0  7G30G10G26G17G 5G23G 6
  18966282.661   -42847847.09249 -33020816.34847  18966282.886    18966289.216
       239.000         198.000
  19720418.139   -37319133.96049 -28717496.38146  19720417.829    19720424.034
       229.000         182.000
  20713485.505   -16095676.75749 -11890554.78545  20713486.072    20713492.929
       217.000         162.000
  18997243.997   -32498310.05549 -24964483.54947  18997243.292    18997250.390
       238.000         199.000
  21132336.318   -42760238.73749 -32100160.68645  21132336.008    21132343.889
       213.000         155.000
  20750837.782   -14461013.86749 -11244634.42246  20750836.225    20750845.490
       216.000         165.000
  17591537.822   -48131666.05049 -36355228.45548  17591537.682    17591543.660
       246.000         217.000
 98  3 19  2 26 59.9900000  0  7G30G10G26G17G 5G23G 6
  18971399.700   -42820957.04749 -32999863.08347  18971400.043    18971406.749
       238.000         198.000
  19726319.857   -37288120.24449 -28693329.84646  19726318.944    19726325.730
       228.000         182.000
  20688322.095   -16227912.42849 -11993595.55645  20688322.632    20688328.102
       217.000         161.000
  18977867.062   -32600136.43949 -25043828.75147  18977866.506    18977873.839
       238.000         199.000
  21142483.612   -42706914.50449 -32058609.39445  21142483.473    21142491.696
       213.000         153.000
  20721797.964   -14613618.46749 -11363546.96046  20721797.248    20721805.796
       217.000         165.000
  17576444.701   -48210980.94849 -36417032.25848  17576444.571    17576450.444
       247.000         217.000
 98  3 19  2 27 29.9900000  0  7G30G10G26G17G 5G23G 6
  18976600.180   -42793628.35549 -32978568.01647  18976600.633    18976607.028
       240.000         198.000
  19732299.099   -37256698.87149 -28668845.87746  19732298.904    19732305.056
       228.000         181.000
  20663213.744   -16359856.22449 -12096408.97945  20663214.474    20663222.131
       219.000         160.000
  18958547.336   -32701662.21949 -25122939.71547  18958546.681    18958553.554
       240.000         199.000
  21152654.510   -42653466.15649 -32016961.63745  21152654.382    21152663.260
       212.000         151.000
  20692808.479   -14765959.14849 -11482254.08346  20692807.617    20692816.825
       218.000         164.000
  17561434.970   -48289857.48549 -36478494.47848  17561434.952    17561440.773
       248.000         217.000
 98  3 19  2 27 59.9900000  0  7G30G10G26G17G 5G23G 6
  18981876.822   -42765899.37649 -32956961.02747  18981877.010    18981883.622
       238.000         198.000
  19738344.958   -37224927.71949 -28644089.13746  19738344.339    19738351.718
       228.000         181.000
  20638154.639   -16491543.65349 -12199022.46946  20638155.302    20638161.639
       217.000         164.000
  18939278.853   -32802918.48749 -25201840.66647  18939278.330    18939285.202
       238.000         199.000
  21162839.376   -42599945.05249 -31975256.92245  21162839.021    21162848.371
       211.000         150.000
  20663860.538   -14918081.30449 -11600790.69046  20663859.897    20663868.326
       218.000         163.000
  17546499.590   -48368343.29949 -36539652.23548  17546499.531    17546505.538
       247.000         217.000
 98  3 19  2 28 29.9900000  0  7G30G10G26G17G 5G23G 6
  18987215.652   -42737843.68049 -32935099.46647  18987216.074    18987222.296
       237.000         197.000
  19744439.482   -37192901.17049 -28619133.38246  19744438.490    19744445.800
       228.000         180.000
  20613131.073   -16623042.25349 -12301488.80145  20613132.016    20613138.360
       219.000         160.000
  18920052.877   -32903951.34449 -25280567.52947  18920052.041    18920059.108
       238.000         199.000
  21173025.681   -42546415.80649 -31933545.89245  21173025.100    21173034.010
       211.000         149.000
  20634941.055   -15070054.24649 -11719211.03546  20634940.478    20634949.118
       217.000         163.000
  17531624.862   -48446510.69649 -36600561.88548  17531624.819    17531630.753
       246.000         217.000
 98  3 19  2 28 59.9900000  0  7G30G10G26G17G 5G23G 6
  18992593.187   -42709584.48649 -32913079.33147  18992593.331    18992599.910
       238.000         197.000
  19750557.861   -37160748.76449 -28594079.56446  19750556.804    19750563.514
       228.000         180.000
  20588121.357   -16754470.38049 -12403900.23746  20588122.100    20588128.551
       218.000         164.000
  18900844.910   -33004889.72549 -25359220.77347  18900844.158    18900851.246
       238.000         199.000
  21183188.323   -42493010.87449 -31891931.71045  21183188.214    21183197.207
       210.000         150.000
  20606026.559   -15222000.29349 -11837610.42446  20606026.125    20606034.673
       217.000         163.000
  17516786.962   -48524484.43949 -36661320.62948  17516787.011    17516792.684
       247.000         217.000
 98  3 19  2 29 29.9900000  0  7G30G10G26G17G 5G23G 6
  18998015.451   -42681090.23149 -32890876.03647  18998015.887    18998022.032
       237.000         197.000
  19756703.034   -37128455.71449 -28568916.14346  19756702.160    19756709.440
       227.000         179.000
  20563125.812   -16885821.56049 -12506251.66345  20563125.764    20563131.854
       219.000         159.000
  18881653.684   -33105740.29849 -25437805.60147  18881653.124    18881660.210
       237.000         200.000
  21193328.140   -42439726.03349 -31850411.12245  21193327.824    21193336.559
       211.000         149.000
  20577123.579   -15373886.28349 -11955963.01346  20577123.074    20577130.982
       219.000         163.000
  17501988.860   -48602248.98049 -36721916.36248  17501988.895    17501994.641
       247.000         217.000
 98  3 19  2 29 59.9900000  0  7G30G10G26G17G 5G23G 6
  19003544.585   -42652034.52649 -32868235.24347  19003545.050    19003551.040
       238.000         197.000
  19762937.862   -37095691.39349 -28543385.50546  19762936.704    19762943.934
       226.000         178.000
  20538204.897   -17016782.62249 -12608299.21145  20538204.887    20538211.741
       218.000         162.000
  18862540.382   -33206181.15049 -25516071.16647  18862539.735    18862546.832
       238.000         200.000
  21203507.164   -42386235.64049 -31808730.35245  21203505.928    21203515.845
       212.000         149.000
  20548296.581   -15525372.97449 -12074004.47246  20548296.320    20548304.411
       219.000         163.000
  17487295.654   -48679462.21349 -36782082.50648  17487295.587    17487301.451
       247.000         218.000
 98  3 19  2 30 29.9900000  0  8G30G10G26G17G 5G23G22G 6
  19009129.288   -42622686.73949 -32845366.85247  19009129.613    19009136.145
       238.000         197.000
  19769216.253   -37062698.10849 -28517676.44346  19769215.587    19769223.211
       225.000         177.000
  20513308.506   -17147612.21749 -12710244.16445  20513308.382    20513315.181
       217.000         160.000
  18843453.660   -33306482.46349 -25594228.00047  18843453.209    18843459.916
       238.000         200.000
  21213677.809   -42332789.00049 -31767083.67645  21213677.227    21213686.505
       212.000         149.000
  20519499.553   -15676701.98349 -12191923.05446  20519498.377    20519506.785
       219.000         163.000
  21753914.263    -7552418.21249  -4146992.49845  21753914.269    21753921.706
       208.000         140.000
  17472660.370   -48756371.08749 -36842011.48348  17472660.409    17472666.175
       247.000         218.000
 98  3 19  2 30 59.9900000  0  8G30G10G26G17G 5G23G22G 6
  19014781.832   -42592982.28249 -32822220.53147  19014782.140    19014788.824
       238.000         196.000
  19775551.838   -37029404.35049 -28491733.25146  19775550.321    19775558.320
       226.000         177.000
  20488450.146   -17278244.00449 -12812035.15045  20488449.322    20488456.625
       216.000         158.000
  18824400.459   -33406607.54349 -25672247.50447  18824399.659    18824406.854
       239.000         200.000
  21223851.441   -42279326.52949 -31725424.64845  21223850.894    21223859.956
       212.000         149.000
  20490744.544   -15827810.05549 -12309669.48346  20490744.083    20490752.045
       220.000         163.000
  21729616.080    -7680105.64649  -4246489.10545  21729614.831    21729623.084
       207.000         142.000
  17458096.125   -48832906.72949 -36901649.62448  17458095.892    17458101.837
       248.000         218.000
 98  3 19  2 31 29.9900000  0  8G30G10G26G17G 5G23G22G 6
  19020482.576   -42563024.74749 -32798877.01447  19020482.724    19020489.762
       237.000         196.000
  19781927.274   -36995901.14249 -28465626.86346  19781927.057    19781933.717
       226.000         177.000
  20463610.973   -17408773.26349 -12913746.10345  20463611.217    20463618.138
       217.000         160.000
  18805363.569   -33506646.87449 -25750200.20347  18805363.198    18805369.850
       238.000         200.000
  21234012.791   -42225928.51749 -31683815.86345  21234012.029    21234021.953
       212.000         149.000
  20462014.589   -15978786.59649 -12427313.42346  20462013.503    20462022.724
       220.000         164.000
  21705370.357    -7807518.23049  -4345771.53645  21705369.176    21705377.569
       210.000         142.000
  17443587.451   -48909150.45649 -36961060.31248  17443587.256    17443593.284
       247.000         218.000
 98  3 19  2 31 59.9900000  0  8G30G10G26G17G 5G23G22G 6
  19026230.436   -42532819.62049 -32775340.56547  19026230.645    19026237.244
       237.000         196.000
  19788345.272   -36962174.59249 -28439346.43646  19788344.804    19788351.463
       226.000         178.000
  20438796.246   -17539175.80749 -13015358.43045  20438795.536    20438802.470
       215.000         159.000
  18786345.258   -33606588.71749 -25828076.92947  18786344.724    18786351.586
       238.000         200.000
  21244162.586   -42172591.20249 -31642254.36645  21244161.293    21244171.497
       212.000         150.000
  20433311.620   -16129621.23749 -12544846.79546  20433310.833    20433319.348
       222.000         165.000
  21681180.114    -7934638.22249  -4444825.95945  21681178.413    21681186.673
       208.000         142.000
  17429137.911   -48985083.12449 -37020228.61148  17429137.949    17429143.652
       247.000         218.000
 98  3 19  2 32 29.9900000  0  8G30G10G26G17G 5G23G22G 6
  19032020.794   -42502391.19849 -32751630.11847  19032021.136    19032027.613
       237.000         195.000
  19794798.658   -36928261.86949 -28412920.93446  19794797.597    19794804.509
       226.000         177.000
  20414001.940   -17669469.22149 -13116885.65245  20414003.390    20414009.788
       221.000         159.000
  18767339.472   -33706464.89449 -25905902.48447  18767338.692    18767345.899
       238.000         200.000
  21254292.040   -42119360.64849 -31600776.06545  21254292.000    21254300.750
       213.000         150.000
  20404628.997   -16280348.98849 -12662296.88346  20404627.710    20404637.210
       221.000         167.000
  21657040.038    -8061494.51949  -4543674.91245  21657039.214    21657046.416
       209.000         142.000
  17414740.343   -49060742.93949 -37079184.29548  17414740.206    17414746.012
       247.000         218.000
 98  3 19  2 32 59.9900000  0  8G30G10G26G17G 5G23G22G 6
  19037865.167   -42471678.93849 -32727698.50247  19037865.680    19037872.127
       236.000         195.000
  19801293.334   -36894132.05749 -28386326.28346  19801292.421    19801298.852
       225.000         176.000
  20389239.933   -17799595.87049 -13218282.95145  20389239.213    20389246.265
       217.000         162.000
  18748357.028   -33806218.01949 -25983632.16447  18748356.373    18748362.947
       238.000         200.000
  21264408.736   -42066197.10449 -31559349.98045  21264408.227    21264417.790
       211.000         150.000
  20375973.269   -16430935.37549 -12779636.81646  20375972.408    20375980.366
       221.000         168.000
  21632958.588    -8188042.79349  -4642283.84645  21632957.575    21632965.706
       209.000         143.000
  17400403.128   -49136085.40349 -37137892.69848  17400403.112    17400408.900
       247.000         218.000
 98  3 19  2 33 29.9900000  0  8G30G10G26G17G 5G23G22G 6
  19043770.223   -42440647.57649 -32703518.23547  19043770.572    19043776.758
       236.000         194.000
  19807837.191   -36859743.80949 -28359530.24646  19807836.380    19807843.204
       225.000         175.000
  20364518.501   -17929505.80049 -13319511.40645  20364519.616    20364524.786
       221.000         158.000
  18729411.497   -33905777.38949 -26061210.86147  18729410.779    18729417.793
       239.000         200.000
  21274520.571   -42013059.21849 -31517943.90045  21274520.496    21274529.177
       211.000         150.000
  20347355.138   -16581324.13249 -12896822.74646  20347354.070    20347362.881
       221.000         169.000
  21608946.897    -8314224.94449  -4740607.48645  21608946.238    21608954.371
       208.000         144.000
  17386136.164   -49211058.74949 -37196313.47248  17386136.078    17386141.944
       246.000         218.000
 98  3 19  2 33 59.9900000  0  8G30G10G26G17G 5G23G22G 6
  19049737.315   -42409290.09749 -32679083.84947  19049737.701    19049744.247
       236.000         194.000
  19814429.400   -36825101.30449 -28332536.08846  19814428.906    19814435.582
       226.000         175.000
  20339842.802   -18059178.97049 -13420555.35546  20339841.451    20339850.633
       215.000         163.000
  18710504.283   -34005135.47049 -26138632.71047  18710503.408    18710510.157
       238.000         201.000
  21284627.323   -41959948.32149 -31476558.82445  21284626.350    21284636.220
       211.000         150.000
  20318777.551   -16731499.62749 -13013842.49546  20318776.354    20318785.495
       220.000         170.000
  21585003.093    -8440050.30949  -4838653.11945  21585002.444    21585011.208
       210.000         145.000
  17371936.951   -49285676.18549 -37254456.91348  17371936.888    17371942.696
       246.000         218.000
 98  3 19  2 34 29.9900000  0  8G30G10G26G17G 5G23G22G 6
  19055742.847   -42377730.84349 -32654492.23447  19055743.054    19055749.809
       236.000         194.000
  19821048.921   -36790315.74249 -28305430.45946  19821048.174    19821055.317
       226.000         175.000
  20315192.124   -18188717.52249 -13521494.40445  20315192.725    20315196.956
       221.000         160.000
  18691618.160   -34104382.40749 -26215967.95347  18691617.472    18691624.476
       238.000         201.000
  21294708.363   -41906972.20749 -31435278.78345  21294708.610    21294717.074
       210.000         150.000
  20290216.223   -16881589.76049 -13130795.72646  20290215.486    20290224.511
       221.000         170.000
  21561105.106    -8565634.72149  -4936511.00345  21561104.488    21561112.272
       208.000         146.000
  17357784.722   -49360046.87649 -37312408.08748  17357784.646    17357790.411
       246.000         218.000
 98  3 19  2 34 59.9900000  0  8G30G10G26G17G 5G23G22G 6
  19061798.131   -42345910.37049 -32629697.08047  19061798.651    19061804.690
       236.000         193.000
  19827713.228   -36755294.85849 -28278141.45946  19827712.410    19827719.250
       225.000         176.000
  20290584.102   -18318034.10349 -13622260.52445  20290583.361    20290591.893
       217.000         162.000
  18672770.132   -34203429.24849 -26293147.28247  18672769.461    18672776.332
       239.000         201.000
  21304778.992   -41854051.01749 -31394041.54145  21304777.889    21304788.901
       210.000         150.000
  20261689.193   -17031499.99649 -13247608.79046  20261688.315    20261697.050
       221.000         171.000
  21537270.160    -8690887.31049  -5034110.32445  21537269.219    21537276.796
       210.000         146.000
  17343696.618   -49434080.33949 -37370096.48948  17343696.619    17343702.222
       246.000         218.000
 98  3 19  2 35 29.9900000  0  8G30G10G26G17G 5G23G22G 6
  19067912.774   -42313777.70749 -32604658.65747  19067912.949    19067919.684
       236.000         193.000
  19834435.549   -36719968.75249 -28250614.62246  19834434.747    19834441.045
       226.000         177.000
  20266027.265   -18447079.82249 -13722815.52346  20266028.770    20266033.793
       222.000         163.000
  18653970.296   -34302223.04649 -26370129.42747  18653969.566    18653976.651
       238.000         201.000
  21314850.448   -41801125.37649 -31352800.82745  21314850.886    21314858.660
       211.000         149.000
  20233211.862   -17181148.88349 -13364218.19846  20233211.359    20233219.616
       222.000         172.000
  21513511.495    -8815739.46149  -5131397.62245  21513510.247    21513518.795
       208.000         147.000
  17329684.925   -49507712.16049 -37427471.91248  17329684.829    17329690.607
       246.000         218.000
 98  3 19  2 35 59.9900000  0  8G30G10G26G17G 5G23G22G 6
  19074060.401   -42281471.87549 -32579485.29147  19074060.493    19074067.121
       235.000         192.000
  19841187.059   -36684489.49249 -28222968.44546  19841186.073    19841192.892
       225.000         176.000
  20241493.310                                    20241491.357    20241500.731
       216.000         161.000
  18635187.149   -34400928.78849 -26447042.96147  18635186.579    18635193.323
       238.000         201.000
  21324895.252   -41748340.07149 -31311669.46245  21324894.892    21324904.305
       209.000         148.000
  20204755.028   -17330690.24049 -13480743.81746  20204754.130    20204762.287
       220.000         173.000
  21489798.241    -8940352.88549  -5228498.89545  21489798.282    21489805.406
       212.000         148.000
  17315721.529   -49581090.25849 -37484649.63848  17315721.545    17315727.153
       246.000         218.000
 98  3 19  2 36 29.9900000  0  8G30G10G26G17G 5G23G22G 6
  19080236.356   -42249017.24249 -32554195.98447  19080236.577    19080243.309
       235.000         192.000
  19847962.588   -36648883.82449 -28195223.77446  19847961.742    19847968.460
       225.000         176.000
  20216974.747   -18704852.36549 -13923676.85946  20216975.709    20216981.660
       222.000         166.000
  18616414.625   -34499578.95249 -26523913.18447  18616414.055    18616421.008
       239.000         201.000
  21334909.817   -41695713.43249 -31270661.74645  21334909.699    21334918.178
       207.000         147.000
  20176313.030   -17480153.50849 -13597208.58946  20176312.519    20176320.903
       221.000         173.000
  21466131.586    -9064721.99349  -5325409.80945  21466130.747    21466139.178
       212.000         148.000
  17301804.384   -49654225.22449 -37541637.90548  17301804.160    17301810.013
       246.000         218.000
 98  3 19  2 36 59.9900000  0  8G30G10G26G17G 5G23G22G 6
  19086440.336   -42216415.25249 -32528791.84847  19086440.692    19086447.258
       235.000         192.000
  19854755.606   -36613186.38049 -28167407.58846  19854755.309    19854762.436
       225.000         176.000
  20192466.368   -18833644.60649 -14024034.38446  20192465.217    20192472.859
       218.000         163.000
  18597643.850   -34598219.84249 -26600776.17647  18597643.299    18597650.131
       238.000         201.000
  21344893.420   -41643249.21049 -31229780.59245  21344893.778    21344902.043
       209.000         146.000
  20147888.143   -17629526.87549 -13713603.30246  20147886.738    20147895.218
       221.000         172.000
  21442511.087    -9188848.12549  -5422131.37545  21442510.249    21442519.377
       212.000         149.000
  17287929.593   -49727137.59349 -37598452.72248  17287929.495    17287935.249
       246.000         218.000
 98  3 19  2 37 29.9890000  0  8G30G10G26G17G 5G23G22G 6
  19092683.227   -42183608.62449 -32503228.25247  19092683.450    19092689.945
       235.000         192.000
  19861571.327   -36577369.55249 -28139498.37046  19861570.671    19861577.311
       225.000         175.000
  20167978.345   -18962329.54549 -14124308.28046  20167979.248    20167985.489
       221.000         167.000
  18578884.017   -34696803.36449 -26677594.46647  18578883.367    18578890.335
       239.000         202.000
  21354857.657   -41590886.67049 -31188978.66845  21354856.840    21354865.309
       207.000         144.000
  20119487.567   -17778772.33549 -13829898.35446  20119487.579    20119495.006
       221.000         172.000
  21418946.142    -9312682.61749  -5518625.69045  21418945.603    21418953.453
       213.000         150.000
  17274106.209   -49799779.87249 -37655057.07648  17274106.065    17274111.841
       246.000         218.000
 98  3 19  2 37 59.9890000  0  8G30G10G26G17G 5G23G22G 6
  19098964.579   -42150599.76549 -32477507.08047  19098964.672    19098971.461
       235.000         191.000
  19868408.268   -36541441.02049 -28111502.11846  19868407.708    19868414.452
       226.000         175.000
  20143513.659   -19090891.54449 -14224486.36946  20143513.396    20143519.542
       218.000         165.000
  18560136.528   -34795321.99749 -26754362.18947  18560135.755    18560142.643
       239.000         202.000
  21364802.351   -41538627.01049 -31148256.92645  21364802.995    21364811.490
       203.000         142.000
  20091107.145   -17927912.06949 -13946111.02246  20091106.017    20091115.192
       222.000         172.000
  21395435.780    -9436230.14749  -5614896.42245  21395435.009    21395441.771
       210.000         150.000
  17260333.399   -49872156.39549 -37711454.34448  17260333.360    17260339.140
       246.000         218.000
 98  3 19  2 38 29.9890000  0  8G30G10G26G17G 5G23G22G 6
  19105294.908   -42117333.50649 -32451585.32747  19105295.029    19105301.311
       235.000         191.000
  19875280.135   -36505329.36049 -28083363.14746  19875279.161    19875286.455
       224.000         174.000
  20119088.143   -19219248.76049 -14324504.92346  20119088.615    20119094.876
       219.000         167.000
  18541416.095   -34893698.20849 -26831018.93747  18541415.485    18541422.484
       239.000         202.000
  21374737.806   -41486415.43249 -31107572.66145  21374738.267    21374746.714
       207.000         141.000
  20062762.149   -18076865.44049 -14062178.48246  20062761.599    20062769.421
       222.000         172.000
  21371995.166    -9559410.78649  -5710881.25345  21371993.457    21372001.393
       211.000         150.000
  17246624.518   -49944197.00549 -37767589.86848  17246624.420    17246630.158
       246.000         218.000
 98  3 19  2 38 59.9890000  0  8G30G10G26G17G 5G23G22G 6
  19111675.553   -42083803.27949 -32425457.88747  19111675.812    19111682.231
       235.000         191.000
  19882188.613   -36469025.06949 -28055074.08746  19882188.417    19882194.496
       224.000         173.000
  20094704.422   -19347384.37549 -14424350.72446  20094704.815    20094711.513
       220.000         165.000
  18522726.877   -34991910.70549 -26907548.10947  18522726.183    18522733.342
       240.000         203.000
  21384662.087   -41434263.22849 -31066934.64045  21384661.367    21384671.115
       204.000         141.000
  20034455.321   -18225618.75449 -14178090.04946  20034454.776    20034462.877
       223.000         172.000
  21348621.360    -9682240.64649  -5806592.75045  21348620.108    21348627.955
       214.000         151.000
  17232981.045   -50015893.86749 -37823457.52948  17232980.806    17232986.634
       246.000         218.000
 98  3 19  2 39 29.9890000  0  8G30G10G26G17G 5G23G22G 6
  19118092.648   -42050081.36449 -32399181.08547  19118092.870    19118099.775
       235.000         191.000
  19889123.370   -36432582.55249 -28026677.33046  19889122.707    19889129.249
       224.000         172.000
  20070352.461   -19475355.21349 -14524068.21846  20070352.284    20070360.119
       218.000         165.000
  18504061.228   -35089999.29149 -26983980.73647  18504060.775    18504067.758
       239.000         203.000
  21394558.786   -41382255.86149 -31026409.49645  21394558.925    21394567.238
       208.000         142.000
  20006172.639   -18374244.84849 -14293902.49146  20006172.235    20006180.192
       222.000         172.000
  21325299.442    -9804797.64149  -5902091.64045  21325298.293    21325305.765
       212.000         151.000
  17219389.944   -50087315.33549 -37879110.61148  17219389.894    17219395.507
       246.000         218.000
 98  3 19  2 39 59.9890000  0  8G30G10G26G17G 5G23G22G 6
  19124560.490   -42016092.51949 -32372696.28247  19124560.562    19124567.089
       234.000         190.000
  19896099.629   -36395921.75249 -27998110.47046  19896098.668    19896105.777
       223.000         172.000
  20046046.297   -19603083.88049 -14623596.92646  20046046.970    20046053.238
       220.000         167.000
  18485431.959   -35187896.65949 -27060264.35647  18485431.252    18485438.052
       239.000         203.000
  21404439.572   -41330332.44649 -30985949.73745  21404439.215    21404448.962
       208.000         141.000
  19977931.481   -18522652.80549 -14409544.95646  19977930.347    19977938.519
       222.000         172.000
  21302045.562    -9926997.46849  -5997312.23645  21302044.442    21302051.983
       212.000         151.000
  17205866.746   -50158380.21949 -37934485.82248  17205866.526    17205872.403
       246.000         218.000
 98  3 19  2 40 29.9890000  0  8G30G10G26G17G 5G23G22G 6
  19131088.035   -41981790.12249 -32345967.15547  19131088.453    19131094.941
       234.000         190.000
  19903126.903   -36358993.21249 -27969334.99146  19903126.552    19903133.156
       224.000         172.000
  20021794.817   -19730526.38049 -14722902.72346  20021793.431    20021801.267
       217.000         166.000
  18466845.387   -35285569.77649 -27136373.24047  18466844.929    18466851.664
       240.000         204.000
  21414312.738   -41278448.85749 -30945521.00545  21414312.550    21414321.985
       209.000         140.000
  19949741.609   -18670791.26849 -14524977.42346  19949740.502    19949749.078
       223.000         173.000
  21278869.983   -10048785.82349  -6092212.19245  21278869.345    21278877.252
       212.000         151.000
  17192422.269   -50229031.36549 -37989538.65048  17192422.274    17192428.038
       246.000         218.000
 98  3 19  2 40 59.9890000  0  8G30G10G26G17G 5G23G22G 6
  19137670.056   -41947201.32449 -32319014.85347  19137670.307    19137676.557
       235.000         190.000
  19910196.565   -36321842.04149 -27940386.02946  19910196.108    19910202.643
       225.000         172.000
  19997594.182   -19857701.04849 -14821999.77046  19997594.963    19997601.720
       223.000         169.000
  18448296.091   -35383046.86049 -27212329.35947  18448295.421    18448302.074
       240.000         204.000
  21424172.859   -41226633.99249 -30905145.82345  21424172.664    21424181.586
       210.000         139.000
  19921597.535   -18818688.88549 -14640222.21746  19921596.346    19921605.038
       223.000         173.000
  21255769.906   -10170176.88449  -6186802.56245  21255769.287    21255777.102
       211.000         151.000
  17179051.691   -50299293.96749 -38044288.70448  17179051.620    17179057.250
       246.000         218.000
 98  3 19  2 41 29.9890000  0  8G30G10G26G17G 5G23G22G 6
  19144316.608   -41912273.62449 -32291798.47647  19144316.945    19144323.491
       234.000         190.000
  19917317.767   -36284420.36949 -27911226.29246  19917316.868    19917324.215
       224.000         172.000
  19973456.853   -19984543.57349 -14920838.02146  19973457.413    19973462.715
       220.000         167.000
  18429792.892   -35480281.53849 -27288096.60047  18429792.200    18429798.894
       240.000         204.000
  21434032.571   -41174821.14749 -30864772.19545  21434032.508    21434041.440
       211.000         138.000
  19893510.950   -18966284.34049 -14755231.57446  19893511.069    19893517.839
       223.000         174.000
  21232759.740   -10291095.62049  -6281024.91145  21232759.646    21232767.234
       211.000         151.000
  17165768.460   -50369097.68249 -38098681.19648  17165768.236    17165774.002
       246.000         218.000
 98  3 19  2 41 59.9890000  0  8G30G10G26G17G 5G23G22G 6
  19150995.964   -41877173.39049 -32264447.66447  19150996.261    19151003.206
       235.000         190.000
  19924459.197   -36246891.86949 -27881983.30046  19924457.715    19924465.697
       224.000         171.000
  19949355.238   -20111198.15349 -15019529.83246  19949354.579    19949362.736
       221.000         168.000
  18411302.661   -35577448.32149 -27363810.93947  18411302.201    18411308.875
       241.000         204.000
  21443861.674   -41123169.46849 -30824524.15745  21443861.773    21443871.498
       210.000         138.000
  19865452.971   -19113729.57349 -14870123.87446  19865452.803    19865460.784
       226.000         175.000
  21209811.382   -10411690.16949  -6374994.64045  21209810.174    21209818.091
       211.000         151.000
  17152545.076   -50438586.84549 -38152828.58448  17152545.110    17152550.878
       247.000         218.000
 98  3 19  2 42 29.9890000  0  8G30G10G26G17G 5G23G22G 6
  19157714.583   -41841867.10649 -32236936.27847  19157714.550    19157721.411
       234.000         190.000
  19931629.068   -36209213.75649 -27852623.72546  19931628.151    19931634.500
       223.000         170.000
  19925299.882   -20237608.75449 -15118031.48846  19925300.402    19925305.372
       222.000         167.000
  18392835.243   -35674495.16149 -27439431.80447  18392834.566    18392841.400
       241.000         204.000
  21453669.021   -41071631.66649 -30784364.83645  21453667.625    21453677.205
       211.000         137.000
  19837434.072   -19260969.31349 -14984856.04746  19837433.780    19837441.562
       224.000         175.000
  21186932.702   -10531917.92149  -6468678.54345  21186931.213    21186940.360
       212.000         150.000
  17139390.949   -50507712.18849 -38206692.46448  17139390.727    17139396.545
       245.000         218.000
 98  3 19  2 42 59.9890000  0  8G30G10G26G17G 5G23G22G 6
  19164509.949   -41806157.38549 -32209110.54547  19164510.276    19164516.988
       234.000         190.000
  19938863.781   -36171194.81549 -27822998.59546  19938862.593    19938869.629
       222.000         170.000
  19901328.935   -20363577.65249 -15216189.02746  19901328.637    19901335.847
       219.000         168.000
  18374429.849   -35771215.88549 -27514798.57047  18374429.407    18374435.875
       240.000         204.000
  21463492.019   -41020011.89149 -30744141.66445  21463490.655    21463500.875
       213.000         138.000
  19809491.900   -19407805.96949 -15099274.13346  19809490.575    19809499.177
       224.000         175.000
  21164159.645   -10651590.49949  -6561929.86845  21164158.948    21164165.570
       210.000         149.000
  17126340.320   -50576293.51049 -38260132.44748  17126340.341    17126346.099
       246.000         218.000
 98  3 19  2 43 29.9890000  0  8G30G10G26G17G 5G23G22G 6
  19171317.064   -41770385.86649 -32181236.65047  19171317.423    19171324.055
       233.000         189.000
  19946099.297   -36133171.73949 -27793370.22446  19946098.533    19946105.366
       223.000         169.000
  19877375.282   -20489453.74449 -15314274.19546  19877376.688    19877381.554
       222.000         169.000
  18356021.324   -35867953.17949 -27590178.23947  18356020.681    18356027.322
       240.000         204.000
  21473263.718   -40968661.46649 -30704128.36645  21473264.428    21473272.664
       211.000         139.000
  19781559.057   -19554593.72149 -15213654.11046  19781558.222    19781565.722
       224.000         175.000
  21141421.889   -10771077.90649  -6655036.88845  21141420.799    21141428.622
       212.000         149.000
  17113325.574   -50644686.59449 -38313425.74448  17113325.481    17113331.275
       246.000         218.000
 98  3 19  2 43 59.9890000  0  8G30G10G26G17G 5G23G22G 6
  19178161.106   -41734420.20649 -32153211.47547  19178161.235    19178168.245
       233.000         188.000
  19953363.960   -36094995.69349 -27763622.66346  19953363.284    19953369.888
       223.000         169.000
  19853463.894   -20615109.09449 -15412187.38046  19853463.563    19853470.804
       220.000         169.000
  18337637.535   -35964560.57749 -27665456.69747  18337636.868    18337643.677
       241.000         204.000
  21483008.526   -40917452.53249 -30664225.31845  21483008.373    21483016.299
       212.000         140.000
  19753659.453   -19701206.57149 -15327897.79246  19753658.277    19753666.996
       224.000         176.000
  21118743.806   -10890252.09349  -6747899.85045  21118742.519    21118750.509
       210.000         148.000
  17100368.535   -50712776.21349 -38366482.57548  17100368.571    17100374.246
       247.000         218.000
 98  3 19  2 44 29.9890000  0  8G30G10G26G17G 5G23G22G 6
  19185061.473   -41698158.56249 -32124955.66447  19185061.498    19185068.668
       232.000         188.000
  19960677.145   -36056564.62849 -27733676.37246  19960676.511    19960683.459
       223.000         169.000
  19829612.272   -20740449.90549 -15509855.46846  19829613.065    19829619.183
       223.000         170.000
  18319299.451   -36060927.41749 -27740547.70847  18319298.713    18319305.545
       240.000         204.000
  21492744.651   -40866289.11049 -30624357.75845  21492744.283    21492752.585
       211.000         141.000
  19725808.567   -19847563.64549 -15441942.16246  19725808.067    19725816.212
       222.000         176.000
  21096144.292   -11009013.41849  -6840441.10245  21096143.264    21096151.624
       209.000         148.000
  17087486.422   -50780472.20949 -38419232.68748  17087486.249    17087492.126
       246.000         218.000
 98  3 19  2 44 59.9890000  0  7G30G10G26G17G23G22G 6
  19192003.018   -41661680.57649 -32096531.26146  19192003.163    19192009.471
       232.000         187.000
  19968024.182   -36017955.68349 -27703591.48546  19968023.405    19968030.010
       223.000         168.000
  19805802.721   -20865569.64349 -15607351.28946  19805802.348    19805808.626
       221.000         169.000
  18300993.237   -36157126.94249 -27815508.33847  18300992.786    18300999.437
       241.000         204.000
  19697987.873   -19993762.09849 -15555862.93446  19697987.117    19697994.616
       224.000         177.000
  21073609.017   -11127436.76449  -6932718.99745  21073608.734    21073616.123
       211.000         148.000
  17074663.899   -50847854.94949 -38471738.69448  17074663.646    17074669.389
       246.000         218.000
 98  3 19  2 45 29.9890000  0  7G30G10G26G17G23G22G 6
  19199027.648   -41624765.77149 -32067766.50446  19199028.019    19199034.035
       232.000         187.000
  19975451.506   -35978924.83349 -27673177.84146  19975451.033    19975458.056
       222.000         168.000
  19782080.637   -20990230.38949 -15704489.46046  19782080.641    19782087.169
       221.000         170.000
  18282763.281   -36252925.91549 -27890156.86847  18282762.587    18282769.377
       240.000         204.000
  19670244.401   -20139554.47149 -15669467.30046  19670243.514    19670251.777
       224.000         178.000
  21051186.140   -11245269.34849  -7024536.55345  21051185.188    21051193.487
       211.000         148.000
  17061950.930   -50914661.97449 -38523796.12048  17061950.947    17061956.660
       246.000         218.000
 98  3 19  2 45 59.9890000  0  7G30G10G26G17G23G22G 6
  19206091.553   -41587644.92249 -32038841.18346  19206091.759    19206098.193
       232.000         186.000
  19982918.203   -35939687.02749 -27642602.93246  19982917.304    19982924.105
       221.000         167.000
  19758405.107   -21114645.63249 -15801436.33846  19758405.580    19758411.970
       222.000         169.000
  18264567.542   -36348544.98749 -27964665.20647  18264566.953    18264573.547
       240.000         204.000
  19642538.955   -20285147.25349 -15782916.12346  19642538.703    19642546.494
       224.000         178.000
  21028841.182   -11362692.66949  -7116035.21745  21028840.307    21028848.125
       211.000         148.000
  17049311.903   -50981080.41649 -38575550.73848  17049311.757    17049317.548
       245.000         218.000
 98  3 19  2 46 29.9890000  0  7G30G10G26G17G23G22G 6
  19213206.684   -41550254.71249 -32009705.96946  19213206.824    19213213.315
       230.000         185.000
  19990432.981   -35900196.29349 -27611830.93846  19990431.902    19990439.532
       220.000         167.000
  19734790.581   -21238740.73349 -15898133.74446  19734790.179    19734797.541
       220.000         170.000
  18246415.919   -36443932.16849 -28038992.85447  18246415.359    18246422.081
       240.000         204.000
  19614886.679   -20430460.38349 -15896147.04046  19614886.507    19614894.159
       225.000         178.000
  21006588.870   -11479629.33249  -7207154.66245  21006587.882    21006595.471
       210.000         148.000
  17036763.713   -51047021.50349 -38626933.38948  17036763.644    17036769.201
       246.000         218.000
 98  3 19  2 46 59.9890000  0  7G30G10G26G17G23G22G 6
  19220346.973   -41512732.18449 -31980467.65246  19220347.490    19220354.100
       230.000         184.000
  19997965.349   -35860613.44349 -27580987.17046  19997965.267    19997971.283
       220.000         166.000
  19711212.803   -21362641.90149 -15994680.05146  19711212.282    19711218.512
       222.000         169.000
  18228280.064   -36539236.67749 -28113256.07947  18228279.535    18228286.407
       240.000         205.000
  19587265.832   -20575608.50149 -16009249.37646  19587265.428    19587272.963
       224.000         178.000
  20984401.788   -11596223.26849  -7298007.05445  20984402.101    20984408.609
       211.000         148.000
  17024283.544   -51112605.06949 -38678037.45648  17024283.704    17024289.276
       246.000         218.000
 98  3 19  2 47 29.9890000  0  7G30G10G26G17G23G22G 6
  19227513.135   -41475073.72149 -31951123.41146  19227513.250    19227520.226
       230.000         184.000
  20005513.637   -35820946.81249 -27550078.10846  20005513.022    20005519.813
       221.000         166.000
  19687675.720   -21486329.55849 -16091059.96446  19687675.726    19687682.875
       223.000         171.000
  18210158.741   -36634464.73849 -28187459.73047  18210158.130    18210164.598
       240.000         205.000
  19559679.137   -20720577.23249 -16122211.92946  19559678.227    19559685.776
       226.000         179.000
  20962279.331   -11712477.45449  -7388594.70845  20962278.826    20962285.758
       211.000         148.000
  17011872.862   -51177823.68749 -38728857.14448  17011872.776    17011878.279
       246.000         218.000
 98  3 19  2 47 59.9890000  0  7G30G10G26G17G23G22G 6
  19234716.434   -41437220.07749 -31921627.07846  19234716.993    19234723.097
       230.000         183.000
  20013084.421   -35781162.17449 -27519077.09946  20013084.010    20013090.108
       220.000         166.000
  19664191.186   -21609741.55949 -16187225.09346  19664191.394    19664197.453
       221.000         171.000
  18192060.917   -36729569.46549 -28261567.28647  18192060.049    18192066.974
       240.000         205.000
  19532136.008   -20865317.36549 -16234996.36846  19532135.604    19532143.102
       227.000         180.000
  20940228.947   -11828353.30249  -7478887.55645  20940228.851    20940235.672
       211.000         148.000
  16999538.708   -51242640.00349 -38779363.35648  16999538.744    16999544.367
       246.000         218.000
 98  3 19  2 48 29.9890000  0  7G30G10G26G17G23G22G 6
  19241959.698   -41399156.48749 -31891967.16046  19241959.649    19241966.925
       230.000         183.000
  20020679.753   -35741248.43149 -27487975.47946  20020679.072    20020685.212
       221.000         166.000
  19640765.528   -21732843.68949 -16283148.77046  19640766.450    19640772.394
       222.000         171.000
  18173991.281   -36824525.81949 -28335559.22147  18173990.718    18173997.389
       241.000         205.000
  19504642.338   -21009797.12249 -16347577.90846  19504641.578    19504649.660
       227.000         180.000
  20918251.756   -11943843.85249  -7568880.13345  20918251.216    20918258.484
       212.000         149.000
  16987279.936   -51307060.46449 -38829561.11248  16987279.811    16987285.653
       245.000         218.000
 98  3 19  2 48 59.9890000  0  7G30G10G26G17G23G22G 6
  19249352.057   -41360309.58549 -31861696.86046  19249352.261    19249358.835
       231.000         183.000
  20028411.012   -35700620.37049 -27456317.27346  20028409.970    20028417.199
       221.000         166.000
  19617511.050   -21855046.87949 -16378371.97046  19617511.399    19617517.951
       223.000         171.000
  18156062.613   -36918741.35449 -28408973.89547  18156062.170    18156068.758
       241.000         205.000
  19477308.820   -21153435.48449 -16459503.80846  19477308.120    19477315.672
       227.000         180.000
  20896457.252   -12058375.06649  -7658125.21145  20896456.694    20896464.102
       210.000         149.000
  16975203.108   -51370524.38449 -38879013.51048  16975203.121    16975208.819
       246.000         218.000
 98  3 19  2 49 29.9890000  0  7G30G10G26G17G23G22G 6
  19256776.787   -41321292.12949 -31831293.66346  19256777.370    19256783.957
       230.000         183.000
  20036168.646   -35659854.15449 -27424551.39346  20036167.790    20036174.176
       220.000         165.000
  19594312.194   -21976957.64349 -16473367.31746  19594311.720    19594319.072
       222.000         172.000
  18138162.635   -37012806.24149 -28482271.17947  18138161.922    18138168.431
       241.000         205.000
  19450021.574   -21296830.86049 -16571240.37146  19450020.741    19450028.417
       226.000         180.000
  20874733.946   -12172531.71449  -7747078.38845  20874732.383    20874739.719
       212.000         149.000
  16963189.797   -51433654.79149 -38928206.02248  16963189.928    16963195.498
       246.000         218.000
 98  3 19  2 49 59.9890000  0  7G30G10G26G17G23G22G 6
  19264225.885   -41282147.15149 -31800791.10446  19264226.344    19264232.827
       230.000         183.000
  20043946.866   -35618979.30049 -27392700.86946  20043945.545    20043953.152
       219.000         165.000
  19571162.889   -22098607.66749 -16568159.47346  19571163.246    19571168.761
       224.000         172.000
  18120285.523   -37106750.78749 -28555474.68747  18120284.848    18120291.617
       241.000         205.000
  19422775.826   -21440007.93349 -16682806.82546  19422774.943    19422782.750
       226.000         180.000
  20853075.877   -12286345.23449  -7835764.17545  20853075.256    20853082.713
       212.000         150.000
  16951231.186   -51496497.71249 -38977174.51948  16951231.087    16951236.792
       246.000         218.000
 98  3 19  2 50 29.9890000  0  7G30G10G26G17G23G22G 6
  19271688.837   -41242929.14949 -31770231.63746  19271689.437    19271695.917
       230.000         183.000
  20051736.255   -35578045.76349 -27360804.60846  20051734.663    20051742.212
       220.000         165.000
  19548052.186   -22220055.25949 -16662793.89246  19548051.885    19548058.976
       222.000         172.000
  18102422.580   -37200621.27649 -28628620.49247  18102421.984    18102428.690
       241.000         206.000
  19395560.659   -21583024.17449 -16794247.96046  19395559.603    19395567.570
       227.000         181.000
  20831473.386   -12399867.12649  -7924222.72945  20831472.302    20831479.799
       213.000         150.000
  16939319.443   -51559094.21949 -39025951.00448  16939319.403    16939324.996
       245.000         218.000
 98  3 19  2 50 59.9890000  0  7G30G10G26G17G23G22G 6
  19279203.539   -41203439.18349 -31739460.25646  19279203.885    19279209.788
       230.000         183.000
  20059572.487   -35536866.01149 -27328716.49346  20059571.957    20059577.723
       221.000         164.000
  19525011.721   -22341133.37549 -16757140.41946  19525011.576    19525016.934
       222.000         172.000
  18084607.342   -37294240.85049 -28701570.77647  18084606.877    18084613.563
       241.000         206.000
  19368409.410   -21725704.41949 -16905427.28146  19368408.660    19368416.207
       227.000         181.000
  20809961.578   -12512912.04449  -8012309.61345  20809959.974    20809968.611
       213.000         151.000
  16927493.811   -51621238.40049 -39074375.03248  16927493.700    16927499.513
       246.000         218.000
 98  3 19  2 51 29.9880000  0  7G30G10G26G17G23G22G 6
  19286804.079   -41163498.29349 -31708337.49746  19286804.163    19286810.772
       230.000         183.000
  20067488.422   -35495267.61249 -27296302.16846  20067487.917    20067494.250
       220.000         164.000
  19502074.393   -22461669.09249 -16851064.29846  19502074.695    19502080.790
       223.000         172.000
  18066870.414   -37387448.80849 -28774200.31847  18066869.716    18066876.440
       241.000         206.000
  19341354.644   -21867877.72149 -17016211.58646  19341353.769    19341361.542
       227.000         182.000
  20788575.719   -12625295.35649  -8099880.94345  20788575.329    20788583.396
       213.000         151.000
  16915791.580   -51682733.99849 -39122293.66848  16915791.391    16915797.220
       245.000         218.000
